<?xml version="1.0" encoding="UTF-8" standalone="yes"?>
<gpx
 xmlns="http://www.topografix.com/GPX/1/1"
 creator="OziExplorer Version 3956f - http://www.oziexplorer.com"
 version="1.1"
 xmlns:xsi="http://www.w3.org/2001/XMLSchema-instance"
 xsi:schemaLocation="http://www.topografix.com/GPX/1/1 http://www.topografix.com/GPX/1/1/gpx.xsd">
<metadata>
 <time>2022-10-12T08:57:26Z</time>
 <bounds minlat="32.599750" minlon="35.100870" maxlat="32.640440" maxlon="35.135080"/>
</metadata>
<trk>
 <name>HaZorea_sin.30km.660m</name>
 <desc>HaZorea_sin.30km.660m</desc>
<trkseg>
<trkpt lat="32.6370000" lon="35.1091000">
<ele>100.060005</ele>
<time>2022-10-12T11:57:26.350Z</time>
</trkpt>
<trkpt lat="32.6370100" lon="35.1090800">
<ele>100.189995</ele>
<time>2022-10-12T11:57:26.350Z</time>
</trkpt>
<trkpt lat="32.6370100" lon="35.1090800">
<ele>100.189995</ele>
<time>2022-10-12T11:57:26.350Z</time>
</trkpt>
<trkpt lat="32.6370100" lon="35.1090900">
<ele>100.250000</ele>
<time>2022-10-12T11:57:26.350Z</time>
</trkpt>
<trkpt lat="32.6369800" lon="35.1091000">
<ele>99.589996</ele>
<time>2022-10-12T11:57:26.350Z</time>
</trkpt>
<trkpt lat="32.6368800" lon="35.1092200">
<ele>97.460007</ele>
<time>2022-10-12T11:57:26.350Z</time>
</trkpt>
<trkpt lat="32.6365300" lon="35.1092300">
<ele>93.650002</ele>
<time>2022-10-12T11:57:26.350Z</time>
</trkpt>
<trkpt lat="32.6364900" lon="35.1091900">
<ele>94.110008</ele>
<time>2022-10-12T11:57:26.350Z</time>
</trkpt>
<trkpt lat="32.6364100" lon="35.1091200">
<ele>94.720001</ele>
<time>2022-10-12T11:57:26.350Z</time>
</trkpt>
<trkpt lat="32.6362400" lon="35.1090000">
<ele>97.080002</ele>
<time>2022-10-12T11:57:26.350Z</time>
</trkpt>
<trkpt lat="32.6361000" lon="35.1090000">
<ele>99.770004</ele>
<time>2022-10-12T11:57:26.350Z</time>
</trkpt>
<trkpt lat="32.6359100" lon="35.1092000">
<ele>101.900002</ele>
<time>2022-10-12T11:57:26.350Z</time>
</trkpt>
<trkpt lat="32.6358400" lon="35.1093600">
<ele>99.269997</ele>
<time>2022-10-12T11:57:26.351Z</time>
</trkpt>
<trkpt lat="32.6358300" lon="35.1095200">
<ele>95.180008</ele>
<time>2022-10-12T11:57:26.351Z</time>
</trkpt>
<trkpt lat="32.6358100" lon="35.1096200">
<ele>93.110001</ele>
<time>2022-10-12T11:57:26.351Z</time>
</trkpt>
<trkpt lat="32.6356500" lon="35.1099200">
<ele>89.250000</ele>
<time>2022-10-12T11:57:26.351Z</time>
</trkpt>
<trkpt lat="32.6355700" lon="35.1100500">
<ele>86.340004</ele>
<time>2022-10-12T11:57:26.351Z</time>
</trkpt>
<trkpt lat="32.6354200" lon="35.1102000">
<ele>84.370003</ele>
<time>2022-10-12T11:57:26.351Z</time>
</trkpt>
<trkpt lat="32.6352800" lon="35.1103500">
<ele>80.750000</ele>
<time>2022-10-12T11:57:26.351Z</time>
</trkpt>
<trkpt lat="32.6352500" lon="35.1103700">
<ele>81.200005</ele>
<time>2022-10-12T11:57:26.351Z</time>
</trkpt>
<trkpt lat="32.6352300" lon="35.1104400">
<ele>81.119995</ele>
<time>2022-10-12T11:57:26.351Z</time>
</trkpt>
<trkpt lat="32.6352000" lon="35.1104600">
<ele>81.389999</ele>
<time>2022-10-12T11:57:26.351Z</time>
</trkpt>
<trkpt lat="32.6351800" lon="35.1104800">
<ele>81.449997</ele>
<time>2022-10-12T11:57:26.351Z</time>
</trkpt>
<trkpt lat="32.6350000" lon="35.1106100">
<ele>81.609993</ele>
<time>2022-10-12T11:57:26.351Z</time>
</trkpt>
<trkpt lat="32.6348700" lon="35.1106500">
<ele>83.330002</ele>
<time>2022-10-12T11:57:26.351Z</time>
</trkpt>
<trkpt lat="32.6347700" lon="35.1106300">
<ele>85.320000</ele>
<time>2022-10-12T11:57:26.351Z</time>
</trkpt>
<trkpt lat="32.6346000" lon="35.1106600">
<ele>85.529999</ele>
<time>2022-10-12T11:57:26.351Z</time>
</trkpt>
<trkpt lat="32.6345400" lon="35.1106700">
<ele>85.190002</ele>
<time>2022-10-12T11:57:26.351Z</time>
</trkpt>
<trkpt lat="32.6345000" lon="35.1106800">
<ele>84.760002</ele>
<time>2022-10-12T11:57:26.351Z</time>
</trkpt>
<trkpt lat="32.6344900" lon="35.1106900">
<ele>84.290001</ele>
<time>2022-10-12T11:57:26.351Z</time>
</trkpt>
<trkpt lat="32.6343000" lon="35.1107100">
<ele>78.190002</ele>
<time>2022-10-12T11:57:26.351Z</time>
</trkpt>
<trkpt lat="32.6342300" lon="35.1107200">
<ele>75.419998</ele>
<time>2022-10-12T11:57:26.351Z</time>
</trkpt>
<trkpt lat="32.6339700" lon="35.1107600">
<ele>74.159996</ele>
<time>2022-10-12T11:57:26.351Z</time>
</trkpt>
<trkpt lat="32.6337500" lon="35.1108300">
<ele>76.550003</ele>
<time>2022-10-12T11:57:26.351Z</time>
</trkpt>
<trkpt lat="32.6335000" lon="35.1108300">
<ele>80.900002</ele>
<time>2022-10-12T11:57:26.351Z</time>
</trkpt>
<trkpt lat="32.6334500" lon="35.1108200">
<ele>82.459999</ele>
<time>2022-10-12T11:57:26.351Z</time>
</trkpt>
<trkpt lat="32.6332100" lon="35.1108900">
<ele>87.139999</ele>
<time>2022-10-12T11:57:26.351Z</time>
</trkpt>
<trkpt lat="32.6330900" lon="35.1109700">
<ele>89.209999</ele>
<time>2022-10-12T11:57:26.351Z</time>
</trkpt>
<trkpt lat="32.6328400" lon="35.1111300">
<ele>89.250000</ele>
<time>2022-10-12T11:57:26.351Z</time>
</trkpt>
<trkpt lat="32.6328300" lon="35.1111600">
<ele>88.439995</ele>
<time>2022-10-12T11:57:26.351Z</time>
</trkpt>
<trkpt lat="32.6327100" lon="35.1113100">
<ele>86.290001</ele>
<time>2022-10-12T11:57:26.351Z</time>
</trkpt>
<trkpt lat="32.6325200" lon="35.1115400">
<ele>86.779999</ele>
<time>2022-10-12T11:57:26.351Z</time>
</trkpt>
<trkpt lat="32.6324800" lon="35.1117600">
<ele>84.830002</ele>
<time>2022-10-12T11:57:26.351Z</time>
</trkpt>
<trkpt lat="32.6324500" lon="35.1120600">
<ele>82.489998</ele>
<time>2022-10-12T11:57:26.352Z</time>
</trkpt>
<trkpt lat="32.6323900" lon="35.1122600">
<ele>81.680000</ele>
<time>2022-10-12T11:57:26.352Z</time>
</trkpt>
<trkpt lat="32.6321600" lon="35.1124800">
<ele>82.709999</ele>
<time>2022-10-12T11:57:26.352Z</time>
</trkpt>
<trkpt lat="32.6317500" lon="35.1127300">
<ele>88.370003</ele>
<time>2022-10-12T11:57:26.352Z</time>
</trkpt>
<trkpt lat="32.6314300" lon="35.1129000">
<ele>87.369995</ele>
<time>2022-10-12T11:57:26.352Z</time>
</trkpt>
<trkpt lat="32.6311700" lon="35.1130500">
<ele>86.720001</ele>
<time>2022-10-12T11:57:26.352Z</time>
</trkpt>
<trkpt lat="32.6307800" lon="35.1133200">
<ele>87.360001</ele>
<time>2022-10-12T11:57:26.352Z</time>
</trkpt>
<trkpt lat="32.6305200" lon="35.1133500">
<ele>83.500000</ele>
<time>2022-10-12T11:57:26.352Z</time>
</trkpt>
<trkpt lat="32.6302000" lon="35.1132000">
<ele>86.559998</ele>
<time>2022-10-12T11:57:26.352Z</time>
</trkpt>
<trkpt lat="32.6299000" lon="35.1131100">
<ele>92.220001</ele>
<time>2022-10-12T11:57:26.352Z</time>
</trkpt>
<trkpt lat="32.6295800" lon="35.1130600">
<ele>92.860001</ele>
<time>2022-10-12T11:57:26.352Z</time>
</trkpt>
<trkpt lat="32.6293200" lon="35.1130300">
<ele>94.519997</ele>
<time>2022-10-12T11:57:26.352Z</time>
</trkpt>
<trkpt lat="32.6290900" lon="35.1129800">
<ele>98.000000</ele>
<time>2022-10-12T11:57:26.352Z</time>
</trkpt>
<trkpt lat="32.6287900" lon="35.1128200">
<ele>106.630005</ele>
<time>2022-10-12T11:57:26.352Z</time>
</trkpt>
<trkpt lat="32.6286000" lon="35.1126300">
<ele>111.529999</ele>
<time>2022-10-12T11:57:26.353Z</time>
</trkpt>
<trkpt lat="32.6284300" lon="35.1123600">
<ele>113.709999</ele>
<time>2022-10-12T11:57:26.353Z</time>
</trkpt>
<trkpt lat="32.6282800" lon="35.1120900">
<ele>113.459999</ele>
<time>2022-10-12T11:57:26.353Z</time>
</trkpt>
<trkpt lat="32.6281000" lon="35.1117600">
<ele>113.320007</ele>
<time>2022-10-12T11:57:26.353Z</time>
</trkpt>
<trkpt lat="32.6279600" lon="35.1115200">
<ele>112.870003</ele>
<time>2022-10-12T11:57:26.353Z</time>
</trkpt>
<trkpt lat="32.6277800" lon="35.1111800">
<ele>110.590004</ele>
<time>2022-10-12T11:57:26.353Z</time>
</trkpt>
<trkpt lat="32.6276200" lon="35.1108100">
<ele>108.879997</ele>
<time>2022-10-12T11:57:26.353Z</time>
</trkpt>
<trkpt lat="32.6275900" lon="35.1106500">
<ele>106.930000</ele>
<time>2022-10-12T11:57:26.353Z</time>
</trkpt>
<trkpt lat="32.6275900" lon="35.1103800">
<ele>104.980003</ele>
<time>2022-10-12T11:57:26.353Z</time>
</trkpt>
<trkpt lat="32.6276000" lon="35.1101300">
<ele>103.489998</ele>
<time>2022-10-12T11:57:26.353Z</time>
</trkpt>
<trkpt lat="32.6276400" lon="35.1100500">
<ele>103.979996</ele>
<time>2022-10-12T11:57:26.353Z</time>
</trkpt>
<trkpt lat="32.6276800" lon="35.1098500">
<ele>102.439995</ele>
<time>2022-10-12T11:57:26.353Z</time>
</trkpt>
<trkpt lat="32.6277300" lon="35.1097800">
<ele>101.859993</ele>
<time>2022-10-12T11:57:26.353Z</time>
</trkpt>
<trkpt lat="32.6277500" lon="35.1097300">
<ele>101.050003</ele>
<time>2022-10-12T11:57:26.353Z</time>
</trkpt>
<trkpt lat="32.6278200" lon="35.1096900">
<ele>102.840004</ele>
<time>2022-10-12T11:57:26.353Z</time>
</trkpt>
<trkpt lat="32.6278100" lon="35.1097200">
<ele>102.820000</ele>
<time>2022-10-12T11:57:26.353Z</time>
</trkpt>
<trkpt lat="32.6277500" lon="35.1099200">
<ele>104.739998</ele>
<time>2022-10-12T11:57:26.353Z</time>
</trkpt>
<trkpt lat="32.6277500" lon="35.1099500">
<ele>105.330002</ele>
<time>2022-10-12T11:57:26.353Z</time>
</trkpt>
<trkpt lat="32.6276900" lon="35.1102000">
<ele>106.989998</ele>
<time>2022-10-12T11:57:26.353Z</time>
</trkpt>
<trkpt lat="32.6276800" lon="35.1104500">
<ele>108.719994</ele>
<time>2022-10-12T11:57:26.353Z</time>
</trkpt>
<trkpt lat="32.6277600" lon="35.1106800">
<ele>112.450005</ele>
<time>2022-10-12T11:57:26.353Z</time>
</trkpt>
<trkpt lat="32.6278200" lon="35.1108500">
<ele>114.700005</ele>
<time>2022-10-12T11:57:26.354Z</time>
</trkpt>
<trkpt lat="32.6279100" lon="35.1109700">
<ele>117.730003</ele>
<time>2022-10-12T11:57:26.354Z</time>
</trkpt>
<trkpt lat="32.6279200" lon="35.1110300">
<ele>117.730003</ele>
<time>2022-10-12T11:57:26.354Z</time>
</trkpt>
<trkpt lat="32.6280000" lon="35.1112000">
<ele>119.190002</ele>
<time>2022-10-12T11:57:26.354Z</time>
</trkpt>
<trkpt lat="32.6280800" lon="35.1114300">
<ele>118.129997</ele>
<time>2022-10-12T11:57:26.354Z</time>
</trkpt>
<trkpt lat="32.6281400" lon="35.1115200">
<ele>118.540001</ele>
<time>2022-10-12T11:57:26.354Z</time>
</trkpt>
<trkpt lat="32.6281600" lon="35.1115600">
<ele>118.449997</ele>
<time>2022-10-12T11:57:26.354Z</time>
</trkpt>
<trkpt lat="32.6281800" lon="35.1116000">
<ele>118.340004</ele>
<time>2022-10-12T11:57:26.354Z</time>
</trkpt>
<trkpt lat="32.6283400" lon="35.1118600">
<ele>118.690002</ele>
<time>2022-10-12T11:57:26.354Z</time>
</trkpt>
<trkpt lat="32.6283500" lon="35.1118900">
<ele>118.400002</ele>
<time>2022-10-12T11:57:26.354Z</time>
</trkpt>
<trkpt lat="32.6284000" lon="35.1119000">
<ele>119.480003</ele>
<time>2022-10-12T11:57:26.354Z</time>
</trkpt>
<trkpt lat="32.6284200" lon="35.1119100">
<ele>119.799995</ele>
<time>2022-10-12T11:57:26.354Z</time>
</trkpt>
<trkpt lat="32.6284200" lon="35.1119000">
<ele>119.979996</ele>
<time>2022-10-12T11:57:26.354Z</time>
</trkpt>
<trkpt lat="32.6284200" lon="35.1118900">
<ele>120.159996</ele>
<time>2022-10-12T11:57:26.354Z</time>
</trkpt>
<trkpt lat="32.6284000" lon="35.1118300">
<ele>120.739998</ele>
<time>2022-10-12T11:57:26.354Z</time>
</trkpt>
<trkpt lat="32.6283600" lon="35.1117200">
<ele>121.710007</ele>
<time>2022-10-12T11:57:26.354Z</time>
</trkpt>
<trkpt lat="32.6282300" lon="35.1115200">
<ele>121.620003</ele>
<time>2022-10-12T11:57:26.354Z</time>
</trkpt>
<trkpt lat="32.6282200" lon="35.1115000">
<ele>121.679993</ele>
<time>2022-10-12T11:57:26.354Z</time>
</trkpt>
<trkpt lat="32.6281400" lon="35.1113100">
<ele>122.370003</ele>
<time>2022-10-12T11:57:26.355Z</time>
</trkpt>
<trkpt lat="32.6280200" lon="35.1110500">
<ele>121.900002</ele>
<time>2022-10-12T11:57:26.355Z</time>
</trkpt>
<trkpt lat="32.6280100" lon="35.1110200">
<ele>121.689995</ele>
<time>2022-10-12T11:57:26.355Z</time>
</trkpt>
<trkpt lat="32.6279400" lon="35.1108900">
<ele>119.599998</ele>
<time>2022-10-12T11:57:26.355Z</time>
</trkpt>
<trkpt lat="32.6278800" lon="35.1106100">
<ele>117.120003</ele>
<time>2022-10-12T11:57:26.355Z</time>
</trkpt>
<trkpt lat="32.6278600" lon="35.1103300">
<ele>114.870003</ele>
<time>2022-10-12T11:57:26.355Z</time>
</trkpt>
<trkpt lat="32.6279300" lon="35.1100200">
<ele>115.899994</ele>
<time>2022-10-12T11:57:26.355Z</time>
</trkpt>
<trkpt lat="32.6279900" lon="35.1097700">
<ele>114.260002</ele>
<time>2022-10-12T11:57:26.355Z</time>
</trkpt>
<trkpt lat="32.6280900" lon="35.1095500">
<ele>112.049995</ele>
<time>2022-10-12T11:57:26.355Z</time>
</trkpt>
<trkpt lat="32.6282100" lon="35.1093000">
<ele>110.480003</ele>
<time>2022-10-12T11:57:26.355Z</time>
</trkpt>
<trkpt lat="32.6283700" lon="35.1090600">
<ele>109.150002</ele>
<time>2022-10-12T11:57:26.355Z</time>
</trkpt>
<trkpt lat="32.6284100" lon="35.1089800">
<ele>106.559998</ele>
<time>2022-10-12T11:57:26.355Z</time>
</trkpt>
<trkpt lat="32.6284200" lon="35.1089700">
<ele>106.379997</ele>
<time>2022-10-12T11:57:26.355Z</time>
</trkpt>
<trkpt lat="32.6284300" lon="35.1089700">
<ele>106.680000</ele>
<time>2022-10-12T11:57:26.355Z</time>
</trkpt>
<trkpt lat="32.6284300" lon="35.1089500">
<ele>105.720001</ele>
<time>2022-10-12T11:57:26.355Z</time>
</trkpt>
<trkpt lat="32.6284600" lon="35.1088700">
<ele>103.150002</ele>
<time>2022-10-12T11:57:26.355Z</time>
</trkpt>
<trkpt lat="32.6286300" lon="35.1086800">
<ele>100.990005</ele>
<time>2022-10-12T11:57:26.355Z</time>
</trkpt>
<trkpt lat="32.6286500" lon="35.1086400">
<ele>100.049995</ele>
<time>2022-10-12T11:57:26.355Z</time>
</trkpt>
<trkpt lat="32.6288400" lon="35.1083400">
<ele>99.400002</ele>
<time>2022-10-12T11:57:26.355Z</time>
</trkpt>
<trkpt lat="32.6290600" lon="35.1080900">
<ele>103.440002</ele>
<time>2022-10-12T11:57:26.355Z</time>
</trkpt>
<trkpt lat="32.6290600" lon="35.1080800">
<ele>103.399994</ele>
<time>2022-10-12T11:57:26.355Z</time>
</trkpt>
<trkpt lat="32.6291300" lon="35.1079600">
<ele>103.669998</ele>
<time>2022-10-12T11:57:26.355Z</time>
</trkpt>
<trkpt lat="32.6290700" lon="35.1078400">
<ele>101.569992</ele>
<time>2022-10-12T11:57:26.355Z</time>
</trkpt>
<trkpt lat="32.6286600" lon="35.1074600">
<ele>100.930000</ele>
<time>2022-10-12T11:57:26.355Z</time>
</trkpt>
<trkpt lat="32.6285400" lon="35.1073400">
<ele>100.610001</ele>
<time>2022-10-12T11:57:26.355Z</time>
</trkpt>
<trkpt lat="32.6285100" lon="35.1073500">
<ele>100.690002</ele>
<time>2022-10-12T11:57:26.355Z</time>
</trkpt>
<trkpt lat="32.6284800" lon="35.1073500">
<ele>100.750000</ele>
<time>2022-10-12T11:57:26.356Z</time>
</trkpt>
<trkpt lat="32.6285400" lon="35.1072800">
<ele>100.560005</ele>
<time>2022-10-12T11:57:26.356Z</time>
</trkpt>
<trkpt lat="32.6285500" lon="35.1072800">
<ele>100.510002</ele>
<time>2022-10-12T11:57:26.356Z</time>
</trkpt>
<trkpt lat="32.6285300" lon="35.1072100">
<ele>100.750000</ele>
<time>2022-10-12T11:57:26.356Z</time>
</trkpt>
<trkpt lat="32.6284600" lon="35.1072500">
<ele>101.020004</ele>
<time>2022-10-12T11:57:26.356Z</time>
</trkpt>
<trkpt lat="32.6283400" lon="35.1073700">
<ele>100.930000</ele>
<time>2022-10-12T11:57:26.356Z</time>
</trkpt>
<trkpt lat="32.6283900" lon="35.1073600">
<ele>100.900002</ele>
<time>2022-10-12T11:57:26.356Z</time>
</trkpt>
<trkpt lat="32.6285500" lon="35.1073500">
<ele>100.599998</ele>
<time>2022-10-12T11:57:26.356Z</time>
</trkpt>
<trkpt lat="32.6285900" lon="35.1073900">
<ele>100.619995</ele>
<time>2022-10-12T11:57:26.356Z</time>
</trkpt>
<trkpt lat="32.6287000" lon="35.1074800">
<ele>101.000000</ele>
<time>2022-10-12T11:57:26.356Z</time>
</trkpt>
<trkpt lat="32.6287300" lon="35.1074200">
<ele>101.079994</ele>
<time>2022-10-12T11:57:26.356Z</time>
</trkpt>
<trkpt lat="32.6286900" lon="35.1074400">
<ele>100.970001</ele>
<time>2022-10-12T11:57:26.356Z</time>
</trkpt>
<trkpt lat="32.6286700" lon="35.1074700">
<ele>100.959999</ele>
<time>2022-10-12T11:57:26.356Z</time>
</trkpt>
<trkpt lat="32.6285700" lon="35.1073600">
<ele>100.570000</ele>
<time>2022-10-12T11:57:26.356Z</time>
</trkpt>
<trkpt lat="32.6285500" lon="35.1073500">
<ele>100.599998</ele>
<time>2022-10-12T11:57:26.356Z</time>
</trkpt>
<trkpt lat="32.6285600" lon="35.1072600">
<ele>100.430000</ele>
<time>2022-10-12T11:57:26.356Z</time>
</trkpt>
<trkpt lat="32.6285600" lon="35.1072600">
<ele>100.430000</ele>
<time>2022-10-12T11:57:26.356Z</time>
</trkpt>
<trkpt lat="32.6285500" lon="35.1072500">
<ele>100.470001</ele>
<time>2022-10-12T11:57:26.356Z</time>
</trkpt>
<trkpt lat="32.6284700" lon="35.1072900">
<ele>100.889999</ele>
<time>2022-10-12T11:57:26.356Z</time>
</trkpt>
<trkpt lat="32.6282100" lon="35.1076000">
<ele>101.419998</ele>
<time>2022-10-12T11:57:26.356Z</time>
</trkpt>
<trkpt lat="32.6278600" lon="35.1079900">
<ele>102.820000</ele>
<time>2022-10-12T11:57:26.356Z</time>
</trkpt>
<trkpt lat="32.6277400" lon="35.1080900">
<ele>103.049995</ele>
<time>2022-10-12T11:57:26.356Z</time>
</trkpt>
<trkpt lat="32.6275900" lon="35.1082200">
<ele>103.650002</ele>
<time>2022-10-12T11:57:26.356Z</time>
</trkpt>
<trkpt lat="32.6274900" lon="35.1083300">
<ele>104.129997</ele>
<time>2022-10-12T11:57:26.356Z</time>
</trkpt>
<trkpt lat="32.6272300" lon="35.1086800">
<ele>101.940002</ele>
<time>2022-10-12T11:57:26.356Z</time>
</trkpt>
<trkpt lat="32.6269700" lon="35.1091700">
<ele>106.160004</ele>
<time>2022-10-12T11:57:26.356Z</time>
</trkpt>
<trkpt lat="32.6269100" lon="35.1093000">
<ele>107.459999</ele>
<time>2022-10-12T11:57:26.356Z</time>
</trkpt>
<trkpt lat="32.6268400" lon="35.1094800">
<ele>107.580002</ele>
<time>2022-10-12T11:57:26.356Z</time>
</trkpt>
<trkpt lat="32.6267300" lon="35.1099100">
<ele>105.889999</ele>
<time>2022-10-12T11:57:26.356Z</time>
</trkpt>
<trkpt lat="32.6267200" lon="35.1101100">
<ele>103.989998</ele>
<time>2022-10-12T11:57:26.356Z</time>
</trkpt>
<trkpt lat="32.6266800" lon="35.1105500">
<ele>100.970001</ele>
<time>2022-10-12T11:57:26.356Z</time>
</trkpt>
<trkpt lat="32.6266800" lon="35.1111900">
<ele>103.219994</ele>
<time>2022-10-12T11:57:26.356Z</time>
</trkpt>
<trkpt lat="32.6267000" lon="35.1113400">
<ele>105.440002</ele>
<time>2022-10-12T11:57:26.356Z</time>
</trkpt>
<trkpt lat="32.6267300" lon="35.1114900">
<ele>106.510002</ele>
<time>2022-10-12T11:57:26.357Z</time>
</trkpt>
<trkpt lat="32.6267700" lon="35.1116800">
<ele>107.120003</ele>
<time>2022-10-12T11:57:26.357Z</time>
</trkpt>
<trkpt lat="32.6267800" lon="35.1117200">
<ele>107.449997</ele>
<time>2022-10-12T11:57:26.357Z</time>
</trkpt>
<trkpt lat="32.6268300" lon="35.1118300">
<ele>107.969994</ele>
<time>2022-10-12T11:57:26.357Z</time>
</trkpt>
<trkpt lat="32.6269000" lon="35.1120300">
<ele>108.970001</ele>
<time>2022-10-12T11:57:26.357Z</time>
</trkpt>
<trkpt lat="32.6269200" lon="35.1120800">
<ele>109.389999</ele>
<time>2022-10-12T11:57:26.357Z</time>
</trkpt>
<trkpt lat="32.6270300" lon="35.1122700">
<ele>110.220001</ele>
<time>2022-10-12T11:57:26.357Z</time>
</trkpt>
<trkpt lat="32.6271000" lon="35.1124200">
<ele>112.779999</ele>
<time>2022-10-12T11:57:26.357Z</time>
</trkpt>
<trkpt lat="32.6271800" lon="35.1125800">
<ele>115.739998</ele>
<time>2022-10-12T11:57:26.357Z</time>
</trkpt>
<trkpt lat="32.6272800" lon="35.1127400">
<ele>118.070000</ele>
<time>2022-10-12T11:57:26.357Z</time>
</trkpt>
<trkpt lat="32.6273600" lon="35.1128700">
<ele>120.510002</ele>
<time>2022-10-12T11:57:26.357Z</time>
</trkpt>
<trkpt lat="32.6274300" lon="35.1129700">
<ele>123.599998</ele>
<time>2022-10-12T11:57:26.357Z</time>
</trkpt>
<trkpt lat="32.6275500" lon="35.1131900">
<ele>127.230003</ele>
<time>2022-10-12T11:57:26.357Z</time>
</trkpt>
<trkpt lat="32.6276400" lon="35.1133200">
<ele>125.339996</ele>
<time>2022-10-12T11:57:26.357Z</time>
</trkpt>
<trkpt lat="32.6277500" lon="35.1134800">
<ele>126.699997</ele>
<time>2022-10-12T11:57:26.357Z</time>
</trkpt>
<trkpt lat="32.6278200" lon="35.1136000">
<ele>129.809998</ele>
<time>2022-10-12T11:57:26.357Z</time>
</trkpt>
<trkpt lat="32.6279100" lon="35.1137900">
<ele>133.069992</ele>
<time>2022-10-12T11:57:26.357Z</time>
</trkpt>
<trkpt lat="32.6279900" lon="35.1139100">
<ele>135.570007</ele>
<time>2022-10-12T11:57:26.357Z</time>
</trkpt>
<trkpt lat="32.6281100" lon="35.1140300">
<ele>134.770004</ele>
<time>2022-10-12T11:57:26.357Z</time>
</trkpt>
<trkpt lat="32.6282500" lon="35.1141400">
<ele>133.669998</ele>
<time>2022-10-12T11:57:26.358Z</time>
</trkpt>
<trkpt lat="32.6284200" lon="35.1143100">
<ele>132.669998</ele>
<time>2022-10-12T11:57:26.358Z</time>
</trkpt>
<trkpt lat="32.6285600" lon="35.1144800">
<ele>131.320007</ele>
<time>2022-10-12T11:57:26.358Z</time>
</trkpt>
<trkpt lat="32.6287000" lon="35.1146300">
<ele>128.809998</ele>
<time>2022-10-12T11:57:26.358Z</time>
</trkpt>
<trkpt lat="32.6288100" lon="35.1147600">
<ele>128.639999</ele>
<time>2022-10-12T11:57:26.358Z</time>
</trkpt>
<trkpt lat="32.6289500" lon="35.1148200">
<ele>128.989990</ele>
<time>2022-10-12T11:57:26.358Z</time>
</trkpt>
<trkpt lat="32.6290600" lon="35.1147900">
<ele>130.179993</ele>
<time>2022-10-12T11:57:26.358Z</time>
</trkpt>
<trkpt lat="32.6291100" lon="35.1147600">
<ele>130.179993</ele>
<time>2022-10-12T11:57:26.358Z</time>
</trkpt>
<trkpt lat="32.6292800" lon="35.1146800">
<ele>131.660004</ele>
<time>2022-10-12T11:57:26.358Z</time>
</trkpt>
<trkpt lat="32.6294300" lon="35.1146400">
<ele>134.139999</ele>
<time>2022-10-12T11:57:26.358Z</time>
</trkpt>
<trkpt lat="32.6295900" lon="35.1146200">
<ele>137.179993</ele>
<time>2022-10-12T11:57:26.358Z</time>
</trkpt>
<trkpt lat="32.6297700" lon="35.1146000">
<ele>138.380005</ele>
<time>2022-10-12T11:57:26.358Z</time>
</trkpt>
<trkpt lat="32.6300000" lon="35.1146200">
<ele>137.800003</ele>
<time>2022-10-12T11:57:26.358Z</time>
</trkpt>
<trkpt lat="32.6303600" lon="35.1147600">
<ele>136.490005</ele>
<time>2022-10-12T11:57:26.358Z</time>
</trkpt>
<trkpt lat="32.6307600" lon="35.1150500">
<ele>136.259995</ele>
<time>2022-10-12T11:57:26.358Z</time>
</trkpt>
<trkpt lat="32.6310100" lon="35.1153100">
<ele>142.960007</ele>
<time>2022-10-12T11:57:26.358Z</time>
</trkpt>
<trkpt lat="32.6312300" lon="35.1154400">
<ele>142.970001</ele>
<time>2022-10-12T11:57:26.358Z</time>
</trkpt>
<trkpt lat="32.6314100" lon="35.1153800">
<ele>140.770004</ele>
<time>2022-10-12T11:57:26.358Z</time>
</trkpt>
<trkpt lat="32.6316500" lon="35.1150700">
<ele>136.699997</ele>
<time>2022-10-12T11:57:26.358Z</time>
</trkpt>
<trkpt lat="32.6318200" lon="35.1147800">
<ele>131.180008</ele>
<time>2022-10-12T11:57:26.358Z</time>
</trkpt>
<trkpt lat="32.6319600" lon="35.1146200">
<ele>129.440002</ele>
<time>2022-10-12T11:57:26.358Z</time>
</trkpt>
<trkpt lat="32.6323800" lon="35.1143800">
<ele>126.750000</ele>
<time>2022-10-12T11:57:26.358Z</time>
</trkpt>
<trkpt lat="32.6327600" lon="35.1143600">
<ele>128.520004</ele>
<time>2022-10-12T11:57:26.358Z</time>
</trkpt>
<trkpt lat="32.6331500" lon="35.1145500">
<ele>130.190002</ele>
<time>2022-10-12T11:57:26.359Z</time>
</trkpt>
<trkpt lat="32.6335100" lon="35.1148500">
<ele>135.500000</ele>
<time>2022-10-12T11:57:26.359Z</time>
</trkpt>
<trkpt lat="32.6336800" lon="35.1147400">
<ele>137.989990</ele>
<time>2022-10-12T11:57:26.359Z</time>
</trkpt>
<trkpt lat="32.6338700" lon="35.1145300">
<ele>140.309998</ele>
<time>2022-10-12T11:57:26.359Z</time>
</trkpt>
<trkpt lat="32.6339600" lon="35.1143700">
<ele>142.610001</ele>
<time>2022-10-12T11:57:26.359Z</time>
</trkpt>
<trkpt lat="32.6339900" lon="35.1143200">
<ele>143.510010</ele>
<time>2022-10-12T11:57:26.359Z</time>
</trkpt>
<trkpt lat="32.6340700" lon="35.1140400">
<ele>144.779999</ele>
<time>2022-10-12T11:57:26.359Z</time>
</trkpt>
<trkpt lat="32.6341100" lon="35.1138600">
<ele>144.849991</ele>
<time>2022-10-12T11:57:26.359Z</time>
</trkpt>
<trkpt lat="32.6342200" lon="35.1136700">
<ele>146.830002</ele>
<time>2022-10-12T11:57:26.359Z</time>
</trkpt>
<trkpt lat="32.6342500" lon="35.1136400">
<ele>147.569992</ele>
<time>2022-10-12T11:57:26.359Z</time>
</trkpt>
<trkpt lat="32.6343400" lon="35.1135400">
<ele>148.009995</ele>
<time>2022-10-12T11:57:26.359Z</time>
</trkpt>
<trkpt lat="32.6345000" lon="35.1134300">
<ele>148.610001</ele>
<time>2022-10-12T11:57:26.359Z</time>
</trkpt>
<trkpt lat="32.6346900" lon="35.1133900">
<ele>154.580002</ele>
<time>2022-10-12T11:57:26.359Z</time>
</trkpt>
<trkpt lat="32.6347700" lon="35.1134200">
<ele>155.959991</ele>
<time>2022-10-12T11:57:26.359Z</time>
</trkpt>
<trkpt lat="32.6348200" lon="35.1134500">
<ele>155.929993</ele>
<time>2022-10-12T11:57:26.359Z</time>
</trkpt>
<trkpt lat="32.6348400" lon="35.1134900">
<ele>156.660004</ele>
<time>2022-10-12T11:57:26.359Z</time>
</trkpt>
<trkpt lat="32.6348600" lon="35.1134700">
<ele>155.710007</ele>
<time>2022-10-12T11:57:26.359Z</time>
</trkpt>
<trkpt lat="32.6348600" lon="35.1134700">
<ele>155.710007</ele>
<time>2022-10-12T11:57:26.359Z</time>
</trkpt>
<trkpt lat="32.6350100" lon="35.1135200">
<ele>153.839996</ele>
<time>2022-10-12T11:57:26.359Z</time>
</trkpt>
<trkpt lat="32.6352600" lon="35.1136300">
<ele>156.020004</ele>
<time>2022-10-12T11:57:26.359Z</time>
</trkpt>
<trkpt lat="32.6355600" lon="35.1137800">
<ele>156.520004</ele>
<time>2022-10-12T11:57:26.359Z</time>
</trkpt>
<trkpt lat="32.6358800" lon="35.1139400">
<ele>167.050003</ele>
<time>2022-10-12T11:57:26.359Z</time>
</trkpt>
<trkpt lat="32.6362600" lon="35.1141100">
<ele>158.660004</ele>
<time>2022-10-12T11:57:26.359Z</time>
</trkpt>
<trkpt lat="32.6365500" lon="35.1142200">
<ele>162.320007</ele>
<time>2022-10-12T11:57:26.359Z</time>
</trkpt>
<trkpt lat="32.6368200" lon="35.1143200">
<ele>163.399994</ele>
<time>2022-10-12T11:57:26.359Z</time>
</trkpt>
<trkpt lat="32.6370600" lon="35.1144200">
<ele>160.159988</ele>
<time>2022-10-12T11:57:26.359Z</time>
</trkpt>
<trkpt lat="32.6372200" lon="35.1145500">
<ele>161.229996</ele>
<time>2022-10-12T11:57:26.359Z</time>
</trkpt>
<trkpt lat="32.6373400" lon="35.1147000">
<ele>161.050003</ele>
<time>2022-10-12T11:57:26.359Z</time>
</trkpt>
<trkpt lat="32.6373400" lon="35.1147000">
<ele>161.050003</ele>
<time>2022-10-12T11:57:26.359Z</time>
</trkpt>
<trkpt lat="32.6373400" lon="35.1147100">
<ele>161.509995</ele>
<time>2022-10-12T11:57:26.359Z</time>
</trkpt>
<trkpt lat="32.6373900" lon="35.1147900">
<ele>161.350006</ele>
<time>2022-10-12T11:57:26.359Z</time>
</trkpt>
<trkpt lat="32.6374100" lon="35.1148000">
<ele>160.690002</ele>
<time>2022-10-12T11:57:26.359Z</time>
</trkpt>
<trkpt lat="32.6374600" lon="35.1149400">
<ele>162.620010</ele>
<time>2022-10-12T11:57:26.360Z</time>
</trkpt>
<trkpt lat="32.6375400" lon="35.1152200">
<ele>167.039993</ele>
<time>2022-10-12T11:57:26.360Z</time>
</trkpt>
<trkpt lat="32.6375400" lon="35.1155500">
<ele>167.169998</ele>
<time>2022-10-12T11:57:26.360Z</time>
</trkpt>
<trkpt lat="32.6375900" lon="35.1159000">
<ele>169.830002</ele>
<time>2022-10-12T11:57:26.360Z</time>
</trkpt>
<trkpt lat="32.6377100" lon="35.1162600">
<ele>167.809998</ele>
<time>2022-10-12T11:57:26.360Z</time>
</trkpt>
<trkpt lat="32.6381300" lon="35.1168100">
<ele>153.029999</ele>
<time>2022-10-12T11:57:26.360Z</time>
</trkpt>
<trkpt lat="32.6385100" lon="35.1171200">
<ele>153.290009</ele>
<time>2022-10-12T11:57:26.360Z</time>
</trkpt>
<trkpt lat="32.6388400" lon="35.1172900">
<ele>149.900009</ele>
<time>2022-10-12T11:57:26.360Z</time>
</trkpt>
<trkpt lat="32.6390600" lon="35.1174200">
<ele>147.949997</ele>
<time>2022-10-12T11:57:26.360Z</time>
</trkpt>
<trkpt lat="32.6392700" lon="35.1174800">
<ele>149.039993</ele>
<time>2022-10-12T11:57:26.360Z</time>
</trkpt>
<trkpt lat="32.6396200" lon="35.1175400">
<ele>149.309998</ele>
<time>2022-10-12T11:57:26.360Z</time>
</trkpt>
<trkpt lat="32.6398300" lon="35.1176400">
<ele>150.240005</ele>
<time>2022-10-12T11:57:26.360Z</time>
</trkpt>
<trkpt lat="32.6399300" lon="35.1177000">
<ele>153.940002</ele>
<time>2022-10-12T11:57:26.360Z</time>
</trkpt>
<trkpt lat="32.6403700" lon="35.1180700">
<ele>159.150009</ele>
<time>2022-10-12T11:57:26.360Z</time>
</trkpt>
<trkpt lat="32.6404400" lon="35.1182100">
<ele>159.260010</ele>
<time>2022-10-12T11:57:26.360Z</time>
</trkpt>
<trkpt lat="32.6403900" lon="35.1183100">
<ele>161.149994</ele>
<time>2022-10-12T11:57:26.360Z</time>
</trkpt>
<trkpt lat="32.6403100" lon="35.1183600">
<ele>162.920013</ele>
<time>2022-10-12T11:57:26.360Z</time>
</trkpt>
<trkpt lat="32.6402500" lon="35.1183200">
<ele>163.080002</ele>
<time>2022-10-12T11:57:26.360Z</time>
</trkpt>
<trkpt lat="32.6401200" lon="35.1181600">
<ele>161.470001</ele>
<time>2022-10-12T11:57:26.360Z</time>
</trkpt>
<trkpt lat="32.6400100" lon="35.1181000">
<ele>160.009995</ele>
<time>2022-10-12T11:57:26.360Z</time>
</trkpt>
<trkpt lat="32.6399300" lon="35.1180700">
<ele>160.550003</ele>
<time>2022-10-12T11:57:26.360Z</time>
</trkpt>
<trkpt lat="32.6399700" lon="35.1181900">
<ele>162.340012</ele>
<time>2022-10-12T11:57:26.360Z</time>
</trkpt>
<trkpt lat="32.6399700" lon="35.1182400">
<ele>163.380005</ele>
<time>2022-10-12T11:57:26.360Z</time>
</trkpt>
<trkpt lat="32.6399900" lon="35.1183400">
<ele>165.129990</ele>
<time>2022-10-12T11:57:26.360Z</time>
</trkpt>
<trkpt lat="32.6399300" lon="35.1184000">
<ele>165.939987</ele>
<time>2022-10-12T11:57:26.360Z</time>
</trkpt>
<trkpt lat="32.6397900" lon="35.1183600">
<ele>167.289993</ele>
<time>2022-10-12T11:57:26.360Z</time>
</trkpt>
<trkpt lat="32.6396700" lon="35.1182900">
<ele>167.410004</ele>
<time>2022-10-12T11:57:26.360Z</time>
</trkpt>
<trkpt lat="32.6395100" lon="35.1181600">
<ele>165.980011</ele>
<time>2022-10-12T11:57:26.360Z</time>
</trkpt>
<trkpt lat="32.6394000" lon="35.1180000">
<ele>163.830002</ele>
<time>2022-10-12T11:57:26.361Z</time>
</trkpt>
<trkpt lat="32.6393600" lon="35.1179600">
<ele>162.819992</ele>
<time>2022-10-12T11:57:26.361Z</time>
</trkpt>
<trkpt lat="32.6391800" lon="35.1178900">
<ele>160.110001</ele>
<time>2022-10-12T11:57:26.361Z</time>
</trkpt>
<trkpt lat="32.6389300" lon="35.1178300">
<ele>159.100006</ele>
<time>2022-10-12T11:57:26.361Z</time>
</trkpt>
<trkpt lat="32.6389100" lon="35.1178300">
<ele>159.210007</ele>
<time>2022-10-12T11:57:26.361Z</time>
</trkpt>
<trkpt lat="32.6388800" lon="35.1178300">
<ele>159.790009</ele>
<time>2022-10-12T11:57:26.361Z</time>
</trkpt>
<trkpt lat="32.6389200" lon="35.1179400">
<ele>162.060013</ele>
<time>2022-10-12T11:57:26.361Z</time>
</trkpt>
<trkpt lat="32.6389200" lon="35.1179300">
<ele>161.800003</ele>
<time>2022-10-12T11:57:26.361Z</time>
</trkpt>
<trkpt lat="32.6389200" lon="35.1179400">
<ele>162.060013</ele>
<time>2022-10-12T11:57:26.361Z</time>
</trkpt>
<trkpt lat="32.6390000" lon="35.1180300">
<ele>164.650009</ele>
<time>2022-10-12T11:57:26.362Z</time>
</trkpt>
<trkpt lat="32.6390200" lon="35.1180600">
<ele>165.520004</ele>
<time>2022-10-12T11:57:26.362Z</time>
</trkpt>
<trkpt lat="32.6389700" lon="35.1181600">
<ele>166.419998</ele>
<time>2022-10-12T11:57:26.362Z</time>
</trkpt>
<trkpt lat="32.6388800" lon="35.1181800">
<ele>166.600006</ele>
<time>2022-10-12T11:57:26.362Z</time>
</trkpt>
<trkpt lat="32.6387800" lon="35.1181100">
<ele>168.959991</ele>
<time>2022-10-12T11:57:26.362Z</time>
</trkpt>
<trkpt lat="32.6387300" lon="35.1180200">
<ele>169.759995</ele>
<time>2022-10-12T11:57:26.362Z</time>
</trkpt>
<trkpt lat="32.6386400" lon="35.1179100">
<ele>172.680008</ele>
<time>2022-10-12T11:57:26.362Z</time>
</trkpt>
<trkpt lat="32.6386100" lon="35.1178900">
<ele>174.000000</ele>
<time>2022-10-12T11:57:26.362Z</time>
</trkpt>
<trkpt lat="32.6385700" lon="35.1179000">
<ele>174.029999</ele>
<time>2022-10-12T11:57:26.362Z</time>
</trkpt>
<trkpt lat="32.6385800" lon="35.1179100">
<ele>174.039993</ele>
<time>2022-10-12T11:57:26.362Z</time>
</trkpt>
<trkpt lat="32.6385400" lon="35.1179400">
<ele>174.240005</ele>
<time>2022-10-12T11:57:26.362Z</time>
</trkpt>
<trkpt lat="32.6385400" lon="35.1179300">
<ele>174.190002</ele>
<time>2022-10-12T11:57:26.362Z</time>
</trkpt>
<trkpt lat="32.6385300" lon="35.1179100">
<ele>174.110001</ele>
<time>2022-10-12T11:57:26.362Z</time>
</trkpt>
<trkpt lat="32.6384900" lon="35.1178600">
<ele>173.770004</ele>
<time>2022-10-12T11:57:26.362Z</time>
</trkpt>
<trkpt lat="32.6383800" lon="35.1178000">
<ele>172.669998</ele>
<time>2022-10-12T11:57:26.362Z</time>
</trkpt>
<trkpt lat="32.6383300" lon="35.1177600">
<ele>171.780014</ele>
<time>2022-10-12T11:57:26.362Z</time>
</trkpt>
<trkpt lat="32.6382700" lon="35.1177500">
<ele>172.350006</ele>
<time>2022-10-12T11:57:26.362Z</time>
</trkpt>
<trkpt lat="32.6382600" lon="35.1177600">
<ele>172.590012</ele>
<time>2022-10-12T11:57:26.362Z</time>
</trkpt>
<trkpt lat="32.6382900" lon="35.1178500">
<ele>173.570007</ele>
<time>2022-10-12T11:57:26.362Z</time>
</trkpt>
<trkpt lat="32.6383000" lon="35.1178600">
<ele>173.660004</ele>
<time>2022-10-12T11:57:26.362Z</time>
</trkpt>
<trkpt lat="32.6383000" lon="35.1178700">
<ele>173.819992</ele>
<time>2022-10-12T11:57:26.362Z</time>
</trkpt>
<trkpt lat="32.6382700" lon="35.1179600">
<ele>175.220001</ele>
<time>2022-10-12T11:57:26.362Z</time>
</trkpt>
<trkpt lat="32.6382000" lon="35.1181300">
<ele>176.299988</ele>
<time>2022-10-12T11:57:26.363Z</time>
</trkpt>
<trkpt lat="32.6381900" lon="35.1181400">
<ele>176.279999</ele>
<time>2022-10-12T11:57:26.363Z</time>
</trkpt>
<trkpt lat="32.6381900" lon="35.1181300">
<ele>176.239990</ele>
<time>2022-10-12T11:57:26.363Z</time>
</trkpt>
<trkpt lat="32.6381700" lon="35.1181600">
<ele>176.270004</ele>
<time>2022-10-12T11:57:26.363Z</time>
</trkpt>
<trkpt lat="32.6380800" lon="35.1182700">
<ele>176.579987</ele>
<time>2022-10-12T11:57:26.363Z</time>
</trkpt>
<trkpt lat="32.6379900" lon="35.1183600">
<ele>177.600006</ele>
<time>2022-10-12T11:57:26.363Z</time>
</trkpt>
<trkpt lat="32.6379400" lon="35.1183100">
<ele>177.799988</ele>
<time>2022-10-12T11:57:26.363Z</time>
</trkpt>
<trkpt lat="32.6380200" lon="35.1180500">
<ele>175.779999</ele>
<time>2022-10-12T11:57:26.363Z</time>
</trkpt>
<trkpt lat="32.6379100" lon="35.1177900">
<ele>180.150009</ele>
<time>2022-10-12T11:57:26.363Z</time>
</trkpt>
<trkpt lat="32.6378300" lon="35.1177200">
<ele>182.910004</ele>
<time>2022-10-12T11:57:26.363Z</time>
</trkpt>
<trkpt lat="32.6376000" lon="35.1174800">
<ele>190.819992</ele>
<time>2022-10-12T11:57:26.363Z</time>
</trkpt>
<trkpt lat="32.6374200" lon="35.1173600">
<ele>195.289993</ele>
<time>2022-10-12T11:57:26.363Z</time>
</trkpt>
<trkpt lat="32.6372200" lon="35.1172700">
<ele>199.479996</ele>
<time>2022-10-12T11:57:26.363Z</time>
</trkpt>
<trkpt lat="32.6370300" lon="35.1171800">
<ele>199.240005</ele>
<time>2022-10-12T11:57:26.363Z</time>
</trkpt>
<trkpt lat="32.6368300" lon="35.1171100">
<ele>199.809998</ele>
<time>2022-10-12T11:57:26.363Z</time>
</trkpt>
<trkpt lat="32.6367800" lon="35.1170400">
<ele>200.310013</ele>
<time>2022-10-12T11:57:26.363Z</time>
</trkpt>
<trkpt lat="32.6367100" lon="35.1170000">
<ele>200.599991</ele>
<time>2022-10-12T11:57:26.363Z</time>
</trkpt>
<trkpt lat="32.6365000" lon="35.1169600">
<ele>200.959991</ele>
<time>2022-10-12T11:57:26.363Z</time>
</trkpt>
<trkpt lat="32.6363800" lon="35.1168500">
<ele>201.360001</ele>
<time>2022-10-12T11:57:26.363Z</time>
</trkpt>
<trkpt lat="32.6362500" lon="35.1167700">
<ele>202.260010</ele>
<time>2022-10-12T11:57:26.363Z</time>
</trkpt>
<trkpt lat="32.6361600" lon="35.1167500">
<ele>202.850006</ele>
<time>2022-10-12T11:57:26.363Z</time>
</trkpt>
<trkpt lat="32.6359500" lon="35.1166200">
<ele>200.679993</ele>
<time>2022-10-12T11:57:26.363Z</time>
</trkpt>
<trkpt lat="32.6357300" lon="35.1165800">
<ele>197.270004</ele>
<time>2022-10-12T11:57:26.363Z</time>
</trkpt>
<trkpt lat="32.6357000" lon="35.1166000">
<ele>196.770004</ele>
<time>2022-10-12T11:57:26.363Z</time>
</trkpt>
<trkpt lat="32.6355100" lon="35.1166800">
<ele>195.119995</ele>
<time>2022-10-12T11:57:26.363Z</time>
</trkpt>
<trkpt lat="32.6353300" lon="35.1168800">
<ele>192.300003</ele>
<time>2022-10-12T11:57:26.363Z</time>
</trkpt>
<trkpt lat="32.6351400" lon="35.1169700">
<ele>195.099991</ele>
<time>2022-10-12T11:57:26.364Z</time>
</trkpt>
<trkpt lat="32.6349700" lon="35.1170800">
<ele>198.689987</ele>
<time>2022-10-12T11:57:26.364Z</time>
</trkpt>
<trkpt lat="32.6348400" lon="35.1172500">
<ele>200.940002</ele>
<time>2022-10-12T11:57:26.364Z</time>
</trkpt>
<trkpt lat="32.6347700" lon="35.1174100">
<ele>201.980011</ele>
<time>2022-10-12T11:57:26.364Z</time>
</trkpt>
<trkpt lat="32.6347300" lon="35.1175900">
<ele>202.410004</ele>
<time>2022-10-12T11:57:26.364Z</time>
</trkpt>
<trkpt lat="32.6346600" lon="35.1177600">
<ele>203.169998</ele>
<time>2022-10-12T11:57:26.364Z</time>
</trkpt>
<trkpt lat="32.6345400" lon="35.1178900">
<ele>204.879990</ele>
<time>2022-10-12T11:57:26.364Z</time>
</trkpt>
<trkpt lat="32.6344800" lon="35.1179400">
<ele>205.779999</ele>
<time>2022-10-12T11:57:26.364Z</time>
</trkpt>
<trkpt lat="32.6345300" lon="35.1181100">
<ele>204.259995</ele>
<time>2022-10-12T11:57:26.364Z</time>
</trkpt>
<trkpt lat="32.6345600" lon="35.1184100">
<ele>202.139999</ele>
<time>2022-10-12T11:57:26.364Z</time>
</trkpt>
<trkpt lat="32.6345200" lon="35.1185700">
<ele>201.469986</ele>
<time>2022-10-12T11:57:26.364Z</time>
</trkpt>
<trkpt lat="32.6343700" lon="35.1186300">
<ele>203.240005</ele>
<time>2022-10-12T11:57:26.364Z</time>
</trkpt>
<trkpt lat="32.6342600" lon="35.1185600">
<ele>204.700012</ele>
<time>2022-10-12T11:57:26.364Z</time>
</trkpt>
<trkpt lat="32.6342000" lon="35.1184700">
<ele>205.779999</ele>
<time>2022-10-12T11:57:26.364Z</time>
</trkpt>
<trkpt lat="32.6342500" lon="35.1184100">
<ele>205.850006</ele>
<time>2022-10-12T11:57:26.364Z</time>
</trkpt>
<trkpt lat="32.6341900" lon="35.1183000">
<ele>207.279999</ele>
<time>2022-10-12T11:57:26.364Z</time>
</trkpt>
<trkpt lat="32.6342000" lon="35.1182600">
<ele>207.719986</ele>
<time>2022-10-12T11:57:26.364Z</time>
</trkpt>
<trkpt lat="32.6342100" lon="35.1182100">
<ele>208.259995</ele>
<time>2022-10-12T11:57:26.364Z</time>
</trkpt>
<trkpt lat="32.6342000" lon="35.1180900">
<ele>209.949997</ele>
<time>2022-10-12T11:57:26.364Z</time>
</trkpt>
<trkpt lat="32.6341600" lon="35.1180200">
<ele>211.369995</ele>
<time>2022-10-12T11:57:26.364Z</time>
</trkpt>
<trkpt lat="32.6340000" lon="35.1180500">
<ele>211.010010</ele>
<time>2022-10-12T11:57:26.364Z</time>
</trkpt>
<trkpt lat="32.6337800" lon="35.1181800">
<ele>210.889999</ele>
<time>2022-10-12T11:57:26.364Z</time>
</trkpt>
<trkpt lat="32.6336800" lon="35.1182900">
<ele>210.820007</ele>
<time>2022-10-12T11:57:26.364Z</time>
</trkpt>
<trkpt lat="32.6334300" lon="35.1183500">
<ele>210.090012</ele>
<time>2022-10-12T11:57:26.364Z</time>
</trkpt>
<trkpt lat="32.6331000" lon="35.1183600">
<ele>204.559998</ele>
<time>2022-10-12T11:57:26.364Z</time>
</trkpt>
<trkpt lat="32.6329000" lon="35.1183900">
<ele>201.279999</ele>
<time>2022-10-12T11:57:26.364Z</time>
</trkpt>
<trkpt lat="32.6328400" lon="35.1183800">
<ele>200.740005</ele>
<time>2022-10-12T11:57:26.364Z</time>
</trkpt>
<trkpt lat="32.6327200" lon="35.1183100">
<ele>202.339996</ele>
<time>2022-10-12T11:57:26.364Z</time>
</trkpt>
<trkpt lat="32.6325700" lon="35.1182300">
<ele>205.669998</ele>
<time>2022-10-12T11:57:26.364Z</time>
</trkpt>
<trkpt lat="32.6324700" lon="35.1181900">
<ele>207.630005</ele>
<time>2022-10-12T11:57:26.364Z</time>
</trkpt>
<trkpt lat="32.6324500" lon="35.1181700">
<ele>208.210007</ele>
<time>2022-10-12T11:57:26.364Z</time>
</trkpt>
<trkpt lat="32.6323800" lon="35.1179200">
<ele>212.069992</ele>
<time>2022-10-12T11:57:26.364Z</time>
</trkpt>
<trkpt lat="32.6323300" lon="35.1178700">
<ele>213.470001</ele>
<time>2022-10-12T11:57:26.365Z</time>
</trkpt>
<trkpt lat="32.6322100" lon="35.1177300">
<ele>215.989990</ele>
<time>2022-10-12T11:57:26.365Z</time>
</trkpt>
<trkpt lat="32.6322000" lon="35.1176900">
<ele>215.949997</ele>
<time>2022-10-12T11:57:26.365Z</time>
</trkpt>
<trkpt lat="32.6322600" lon="35.1175700">
<ele>214.880005</ele>
<time>2022-10-12T11:57:26.365Z</time>
</trkpt>
<trkpt lat="32.6323500" lon="35.1175400">
<ele>214.029999</ele>
<time>2022-10-12T11:57:26.365Z</time>
</trkpt>
<trkpt lat="32.6325200" lon="35.1175000">
<ele>212.210007</ele>
<time>2022-10-12T11:57:26.365Z</time>
</trkpt>
<trkpt lat="32.6326400" lon="35.1171700">
<ele>206.509995</ele>
<time>2022-10-12T11:57:26.365Z</time>
</trkpt>
<trkpt lat="32.6326200" lon="35.1170600">
<ele>208.469986</ele>
<time>2022-10-12T11:57:26.365Z</time>
</trkpt>
<trkpt lat="32.6326700" lon="35.1168200">
<ele>206.110001</ele>
<time>2022-10-12T11:57:26.365Z</time>
</trkpt>
<trkpt lat="32.6328500" lon="35.1167900">
<ele>199.209991</ele>
<time>2022-10-12T11:57:26.365Z</time>
</trkpt>
<trkpt lat="32.6328600" lon="35.1165300">
<ele>192.690002</ele>
<time>2022-10-12T11:57:26.365Z</time>
</trkpt>
<trkpt lat="32.6327400" lon="35.1164900">
<ele>195.540009</ele>
<time>2022-10-12T11:57:26.365Z</time>
</trkpt>
<trkpt lat="32.6326900" lon="35.1164400">
<ele>196.259995</ele>
<time>2022-10-12T11:57:26.365Z</time>
</trkpt>
<trkpt lat="32.6324800" lon="35.1163700">
<ele>202.329987</ele>
<time>2022-10-12T11:57:26.365Z</time>
</trkpt>
<trkpt lat="32.6323900" lon="35.1163900">
<ele>203.030014</ele>
<time>2022-10-12T11:57:26.365Z</time>
</trkpt>
<trkpt lat="32.6321400" lon="35.1164200">
<ele>200.839996</ele>
<time>2022-10-12T11:57:26.365Z</time>
</trkpt>
<trkpt lat="32.6319800" lon="35.1165900">
<ele>201.149994</ele>
<time>2022-10-12T11:57:26.365Z</time>
</trkpt>
<trkpt lat="32.6319400" lon="35.1166100">
<ele>200.860001</ele>
<time>2022-10-12T11:57:26.365Z</time>
</trkpt>
<trkpt lat="32.6318100" lon="35.1167700">
<ele>204.619995</ele>
<time>2022-10-12T11:57:26.366Z</time>
</trkpt>
<trkpt lat="32.6317700" lon="35.1168100">
<ele>206.059998</ele>
<time>2022-10-12T11:57:26.366Z</time>
</trkpt>
<trkpt lat="32.6316700" lon="35.1168200">
<ele>206.289993</ele>
<time>2022-10-12T11:57:26.366Z</time>
</trkpt>
<trkpt lat="32.6315300" lon="35.1167700">
<ele>204.690002</ele>
<time>2022-10-12T11:57:26.366Z</time>
</trkpt>
<trkpt lat="32.6315200" lon="35.1167800">
<ele>205.270004</ele>
<time>2022-10-12T11:57:26.366Z</time>
</trkpt>
<trkpt lat="32.6315000" lon="35.1167800">
<ele>205.429993</ele>
<time>2022-10-12T11:57:26.366Z</time>
</trkpt>
<trkpt lat="32.6315000" lon="35.1167800">
<ele>205.429993</ele>
<time>2022-10-12T11:57:26.366Z</time>
</trkpt>
<trkpt lat="32.6315300" lon="35.1167900">
<ele>205.699997</ele>
<time>2022-10-12T11:57:26.366Z</time>
</trkpt>
<trkpt lat="32.6316900" lon="35.1168500">
<ele>207.880005</ele>
<time>2022-10-12T11:57:26.366Z</time>
</trkpt>
<trkpt lat="32.6318400" lon="35.1166800">
<ele>201.599991</ele>
<time>2022-10-12T11:57:26.366Z</time>
</trkpt>
<trkpt lat="32.6319200" lon="35.1166100">
<ele>200.410004</ele>
<time>2022-10-12T11:57:26.366Z</time>
</trkpt>
<trkpt lat="32.6319100" lon="35.1166000">
<ele>199.800003</ele>
<time>2022-10-12T11:57:26.366Z</time>
</trkpt>
<trkpt lat="32.6319100" lon="35.1166000">
<ele>199.800003</ele>
<time>2022-10-12T11:57:26.366Z</time>
</trkpt>
<trkpt lat="32.6317500" lon="35.1167800">
<ele>204.639999</ele>
<time>2022-10-12T11:57:26.366Z</time>
</trkpt>
<trkpt lat="32.6317400" lon="35.1168100">
<ele>205.970001</ele>
<time>2022-10-12T11:57:26.366Z</time>
</trkpt>
<trkpt lat="32.6316200" lon="35.1168000">
<ele>205.539993</ele>
<time>2022-10-12T11:57:26.366Z</time>
</trkpt>
<trkpt lat="32.6313400" lon="35.1166800">
<ele>202.830002</ele>
<time>2022-10-12T11:57:26.366Z</time>
</trkpt>
<trkpt lat="32.6313100" lon="35.1166700">
<ele>203.130005</ele>
<time>2022-10-12T11:57:26.366Z</time>
</trkpt>
<trkpt lat="32.6312500" lon="35.1166300">
<ele>202.320007</ele>
<time>2022-10-12T11:57:26.366Z</time>
</trkpt>
<trkpt lat="32.6311700" lon="35.1166100">
<ele>203.439987</ele>
<time>2022-10-12T11:57:26.366Z</time>
</trkpt>
<trkpt lat="32.6310800" lon="35.1166000">
<ele>205.839996</ele>
<time>2022-10-12T11:57:26.367Z</time>
</trkpt>
<trkpt lat="32.6309400" lon="35.1165700">
<ele>209.929993</ele>
<time>2022-10-12T11:57:26.367Z</time>
</trkpt>
<trkpt lat="32.6308300" lon="35.1164800">
<ele>210.619995</ele>
<time>2022-10-12T11:57:26.367Z</time>
</trkpt>
<trkpt lat="32.6305400" lon="35.1162500">
<ele>205.059998</ele>
<time>2022-10-12T11:57:26.367Z</time>
</trkpt>
<trkpt lat="32.6302300" lon="35.1161300">
<ele>205.080002</ele>
<time>2022-10-12T11:57:26.367Z</time>
</trkpt>
<trkpt lat="32.6300400" lon="35.1161400">
<ele>204.760010</ele>
<time>2022-10-12T11:57:26.367Z</time>
</trkpt>
<trkpt lat="32.6298900" lon="35.1161500">
<ele>200.829987</ele>
<time>2022-10-12T11:57:26.367Z</time>
</trkpt>
<trkpt lat="32.6296500" lon="35.1161400">
<ele>194.630005</ele>
<time>2022-10-12T11:57:26.367Z</time>
</trkpt>
<trkpt lat="32.6295300" lon="35.1161800">
<ele>195.639999</ele>
<time>2022-10-12T11:57:26.367Z</time>
</trkpt>
<trkpt lat="32.6293000" lon="35.1162300">
<ele>196.310013</ele>
<time>2022-10-12T11:57:26.367Z</time>
</trkpt>
<trkpt lat="32.6291000" lon="35.1162600">
<ele>196.160004</ele>
<time>2022-10-12T11:57:26.367Z</time>
</trkpt>
<trkpt lat="32.6288600" lon="35.1162500">
<ele>192.950012</ele>
<time>2022-10-12T11:57:26.367Z</time>
</trkpt>
<trkpt lat="32.6287800" lon="35.1162400">
<ele>192.430008</ele>
<time>2022-10-12T11:57:26.367Z</time>
</trkpt>
<trkpt lat="32.6286700" lon="35.1162200">
<ele>191.440002</ele>
<time>2022-10-12T11:57:26.367Z</time>
</trkpt>
<trkpt lat="32.6284900" lon="35.1160800">
<ele>190.120010</ele>
<time>2022-10-12T11:57:26.367Z</time>
</trkpt>
<trkpt lat="32.6283000" lon="35.1159900">
<ele>195.099991</ele>
<time>2022-10-12T11:57:26.367Z</time>
</trkpt>
<trkpt lat="32.6282100" lon="35.1159500">
<ele>196.449997</ele>
<time>2022-10-12T11:57:26.368Z</time>
</trkpt>
<trkpt lat="32.6281100" lon="35.1159100">
<ele>198.069992</ele>
<time>2022-10-12T11:57:26.368Z</time>
</trkpt>
<trkpt lat="32.6280100" lon="35.1159500">
<ele>198.770004</ele>
<time>2022-10-12T11:57:26.368Z</time>
</trkpt>
<trkpt lat="32.6278500" lon="35.1159800">
<ele>197.870010</ele>
<time>2022-10-12T11:57:26.368Z</time>
</trkpt>
<trkpt lat="32.6278200" lon="35.1159400">
<ele>197.830002</ele>
<time>2022-10-12T11:57:26.368Z</time>
</trkpt>
<trkpt lat="32.6276500" lon="35.1157100">
<ele>199.550003</ele>
<time>2022-10-12T11:57:26.368Z</time>
</trkpt>
<trkpt lat="32.6275400" lon="35.1155900">
<ele>201.360001</ele>
<time>2022-10-12T11:57:26.368Z</time>
</trkpt>
<trkpt lat="32.6273300" lon="35.1155000">
<ele>202.779999</ele>
<time>2022-10-12T11:57:26.368Z</time>
</trkpt>
<trkpt lat="32.6272700" lon="35.1153700">
<ele>201.879990</ele>
<time>2022-10-12T11:57:26.368Z</time>
</trkpt>
<trkpt lat="32.6274500" lon="35.1152100">
<ele>200.509995</ele>
<time>2022-10-12T11:57:26.368Z</time>
</trkpt>
<trkpt lat="32.6274200" lon="35.1150600">
<ele>199.430008</ele>
<time>2022-10-12T11:57:26.368Z</time>
</trkpt>
<trkpt lat="32.6273400" lon="35.1149800">
<ele>198.629990</ele>
<time>2022-10-12T11:57:26.368Z</time>
</trkpt>
<trkpt lat="32.6271500" lon="35.1147900">
<ele>195.440002</ele>
<time>2022-10-12T11:57:26.368Z</time>
</trkpt>
<trkpt lat="32.6268800" lon="35.1146500">
<ele>197.500000</ele>
<time>2022-10-12T11:57:26.368Z</time>
</trkpt>
<trkpt lat="32.6268500" lon="35.1146200">
<ele>197.750000</ele>
<time>2022-10-12T11:57:26.368Z</time>
</trkpt>
<trkpt lat="32.6266700" lon="35.1144900">
<ele>199.900009</ele>
<time>2022-10-12T11:57:26.368Z</time>
</trkpt>
<trkpt lat="32.6265200" lon="35.1142900">
<ele>200.590012</ele>
<time>2022-10-12T11:57:26.368Z</time>
</trkpt>
<trkpt lat="32.6264300" lon="35.1140300">
<ele>195.550003</ele>
<time>2022-10-12T11:57:26.368Z</time>
</trkpt>
<trkpt lat="32.6264400" lon="35.1139200">
<ele>193.070007</ele>
<time>2022-10-12T11:57:26.368Z</time>
</trkpt>
<trkpt lat="32.6265300" lon="35.1138200">
<ele>191.889999</ele>
<time>2022-10-12T11:57:26.368Z</time>
</trkpt>
<trkpt lat="32.6263600" lon="35.1136700">
<ele>190.919998</ele>
<time>2022-10-12T11:57:26.368Z</time>
</trkpt>
<trkpt lat="32.6261700" lon="35.1135100">
<ele>187.680008</ele>
<time>2022-10-12T11:57:26.368Z</time>
</trkpt>
<trkpt lat="32.6261400" lon="35.1134900">
<ele>187.300003</ele>
<time>2022-10-12T11:57:26.368Z</time>
</trkpt>
<trkpt lat="32.6258900" lon="35.1133100">
<ele>182.039993</ele>
<time>2022-10-12T11:57:26.368Z</time>
</trkpt>
<trkpt lat="32.6256800" lon="35.1132800">
<ele>178.379990</ele>
<time>2022-10-12T11:57:26.369Z</time>
</trkpt>
<trkpt lat="32.6256200" lon="35.1132300">
<ele>176.440002</ele>
<time>2022-10-12T11:57:26.369Z</time>
</trkpt>
<trkpt lat="32.6253000" lon="35.1132900">
<ele>166.170013</ele>
<time>2022-10-12T11:57:26.369Z</time>
</trkpt>
<trkpt lat="32.6249100" lon="35.1134800">
<ele>169.190002</ele>
<time>2022-10-12T11:57:26.369Z</time>
</trkpt>
<trkpt lat="32.6246500" lon="35.1137200">
<ele>171.240005</ele>
<time>2022-10-12T11:57:26.369Z</time>
</trkpt>
<trkpt lat="32.6244200" lon="35.1139500">
<ele>171.650009</ele>
<time>2022-10-12T11:57:26.369Z</time>
</trkpt>
<trkpt lat="32.6242300" lon="35.1141700">
<ele>174.329987</ele>
<time>2022-10-12T11:57:26.369Z</time>
</trkpt>
<trkpt lat="32.6240300" lon="35.1144800">
<ele>182.149994</ele>
<time>2022-10-12T11:57:26.369Z</time>
</trkpt>
<trkpt lat="32.6239100" lon="35.1147600">
<ele>184.660004</ele>
<time>2022-10-12T11:57:26.369Z</time>
</trkpt>
<trkpt lat="32.6238000" lon="35.1150300">
<ele>185.609985</ele>
<time>2022-10-12T11:57:26.369Z</time>
</trkpt>
<trkpt lat="32.6236600" lon="35.1152100">
<ele>185.370010</ele>
<time>2022-10-12T11:57:26.369Z</time>
</trkpt>
<trkpt lat="32.6233900" lon="35.1153900">
<ele>183.259995</ele>
<time>2022-10-12T11:57:26.369Z</time>
</trkpt>
<trkpt lat="32.6233000" lon="35.1154400">
<ele>183.299988</ele>
<time>2022-10-12T11:57:26.369Z</time>
</trkpt>
<trkpt lat="32.6232100" lon="35.1154500">
<ele>185.279999</ele>
<time>2022-10-12T11:57:26.369Z</time>
</trkpt>
<trkpt lat="32.6231400" lon="35.1154300">
<ele>186.720001</ele>
<time>2022-10-12T11:57:26.369Z</time>
</trkpt>
<trkpt lat="32.6231000" lon="35.1154000">
<ele>187.479996</ele>
<time>2022-10-12T11:57:26.369Z</time>
</trkpt>
<trkpt lat="32.6230400" lon="35.1152400">
<ele>187.720001</ele>
<time>2022-10-12T11:57:26.369Z</time>
</trkpt>
<trkpt lat="32.6230000" lon="35.1151600">
<ele>187.069992</ele>
<time>2022-10-12T11:57:26.369Z</time>
</trkpt>
<trkpt lat="32.6229300" lon="35.1149700">
<ele>184.910004</ele>
<time>2022-10-12T11:57:26.369Z</time>
</trkpt>
<trkpt lat="32.6228200" lon="35.1147400">
<ele>178.880005</ele>
<time>2022-10-12T11:57:26.369Z</time>
</trkpt>
<trkpt lat="32.6227300" lon="35.1146300">
<ele>177.069992</ele>
<time>2022-10-12T11:57:26.369Z</time>
</trkpt>
<trkpt lat="32.6225200" lon="35.1144700">
<ele>177.069992</ele>
<time>2022-10-12T11:57:26.369Z</time>
</trkpt>
<trkpt lat="32.6222700" lon="35.1143900">
<ele>179.949997</ele>
<time>2022-10-12T11:57:26.369Z</time>
</trkpt>
<trkpt lat="32.6220100" lon="35.1143400">
<ele>187.109985</ele>
<time>2022-10-12T11:57:26.369Z</time>
</trkpt>
<trkpt lat="32.6213900" lon="35.1142000">
<ele>184.250000</ele>
<time>2022-10-12T11:57:26.369Z</time>
</trkpt>
<trkpt lat="32.6211500" lon="35.1141300">
<ele>183.279999</ele>
<time>2022-10-12T11:57:26.369Z</time>
</trkpt>
<trkpt lat="32.6209900" lon="35.1140300">
<ele>188.119995</ele>
<time>2022-10-12T11:57:26.369Z</time>
</trkpt>
<trkpt lat="32.6208700" lon="35.1139100">
<ele>193.729996</ele>
<time>2022-10-12T11:57:26.369Z</time>
</trkpt>
<trkpt lat="32.6207100" lon="35.1137200">
<ele>195.509995</ele>
<time>2022-10-12T11:57:26.369Z</time>
</trkpt>
<trkpt lat="32.6206400" lon="35.1135800">
<ele>197.489990</ele>
<time>2022-10-12T11:57:26.369Z</time>
</trkpt>
<trkpt lat="32.6207300" lon="35.1134100">
<ele>198.620010</ele>
<time>2022-10-12T11:57:26.369Z</time>
</trkpt>
<trkpt lat="32.6208000" lon="35.1134100">
<ele>198.689987</ele>
<time>2022-10-12T11:57:26.369Z</time>
</trkpt>
<trkpt lat="32.6208700" lon="35.1133500">
<ele>197.769989</ele>
<time>2022-10-12T11:57:26.370Z</time>
</trkpt>
<trkpt lat="32.6209700" lon="35.1132800">
<ele>194.860001</ele>
<time>2022-10-12T11:57:26.370Z</time>
</trkpt>
<trkpt lat="32.6210400" lon="35.1132900">
<ele>192.500015</ele>
<time>2022-10-12T11:57:26.370Z</time>
</trkpt>
<trkpt lat="32.6212500" lon="35.1131500">
<ele>187.330002</ele>
<time>2022-10-12T11:57:26.370Z</time>
</trkpt>
<trkpt lat="32.6213800" lon="35.1130700">
<ele>184.219986</ele>
<time>2022-10-12T11:57:26.370Z</time>
</trkpt>
<trkpt lat="32.6214300" lon="35.1130300">
<ele>184.119995</ele>
<time>2022-10-12T11:57:26.370Z</time>
</trkpt>
<trkpt lat="32.6214800" lon="35.1129400">
<ele>185.009995</ele>
<time>2022-10-12T11:57:26.370Z</time>
</trkpt>
<trkpt lat="32.6215400" lon="35.1128500">
<ele>185.399994</ele>
<time>2022-10-12T11:57:26.370Z</time>
</trkpt>
<trkpt lat="32.6217700" lon="35.1126100">
<ele>187.170013</ele>
<time>2022-10-12T11:57:26.370Z</time>
</trkpt>
<trkpt lat="32.6217700" lon="35.1125500">
<ele>188.169998</ele>
<time>2022-10-12T11:57:26.370Z</time>
</trkpt>
<trkpt lat="32.6216700" lon="35.1125000">
<ele>189.000000</ele>
<time>2022-10-12T11:57:26.370Z</time>
</trkpt>
<trkpt lat="32.6214900" lon="35.1126100">
<ele>192.119995</ele>
<time>2022-10-12T11:57:26.370Z</time>
</trkpt>
<trkpt lat="32.6213300" lon="35.1127200">
<ele>193.019989</ele>
<time>2022-10-12T11:57:26.370Z</time>
</trkpt>
<trkpt lat="32.6213000" lon="35.1127300">
<ele>193.699997</ele>
<time>2022-10-12T11:57:26.370Z</time>
</trkpt>
<trkpt lat="32.6213100" lon="35.1127500">
<ele>192.730011</ele>
<time>2022-10-12T11:57:26.370Z</time>
</trkpt>
<trkpt lat="32.6213100" lon="35.1127600">
<ele>192.410004</ele>
<time>2022-10-12T11:57:26.370Z</time>
</trkpt>
<trkpt lat="32.6213100" lon="35.1127600">
<ele>192.410004</ele>
<time>2022-10-12T11:57:26.370Z</time>
</trkpt>
<trkpt lat="32.6213100" lon="35.1127300">
<ele>193.359985</ele>
<time>2022-10-12T11:57:26.370Z</time>
</trkpt>
<trkpt lat="32.6213600" lon="35.1126000">
<ele>196.169998</ele>
<time>2022-10-12T11:57:26.370Z</time>
</trkpt>
<trkpt lat="32.6213800" lon="35.1125300">
<ele>198.130005</ele>
<time>2022-10-12T11:57:26.370Z</time>
</trkpt>
<trkpt lat="32.6213900" lon="35.1124700">
<ele>199.389999</ele>
<time>2022-10-12T11:57:26.370Z</time>
</trkpt>
<trkpt lat="32.6214600" lon="35.1123200">
<ele>199.029984</ele>
<time>2022-10-12T11:57:26.370Z</time>
</trkpt>
<trkpt lat="32.6214700" lon="35.1122400">
<ele>199.820007</ele>
<time>2022-10-12T11:57:26.370Z</time>
</trkpt>
<trkpt lat="32.6216300" lon="35.1122100">
<ele>194.479996</ele>
<time>2022-10-12T11:57:26.370Z</time>
</trkpt>
<trkpt lat="32.6217100" lon="35.1123900">
<ele>190.400009</ele>
<time>2022-10-12T11:57:26.371Z</time>
</trkpt>
<trkpt lat="32.6218400" lon="35.1124600">
<ele>189.310013</ele>
<time>2022-10-12T11:57:26.371Z</time>
</trkpt>
<trkpt lat="32.6220700" lon="35.1124300">
<ele>192.759995</ele>
<time>2022-10-12T11:57:26.371Z</time>
</trkpt>
<trkpt lat="32.6221500" lon="35.1123900">
<ele>195.889999</ele>
<time>2022-10-12T11:57:26.371Z</time>
</trkpt>
<trkpt lat="32.6221100" lon="35.1123300">
<ele>195.739990</ele>
<time>2022-10-12T11:57:26.371Z</time>
</trkpt>
<trkpt lat="32.6220600" lon="35.1122500">
<ele>195.020004</ele>
<time>2022-10-12T11:57:26.371Z</time>
</trkpt>
<trkpt lat="32.6219200" lon="35.1121600">
<ele>192.180008</ele>
<time>2022-10-12T11:57:26.371Z</time>
</trkpt>
<trkpt lat="32.6218800" lon="35.1121300">
<ele>193.300003</ele>
<time>2022-10-12T11:57:26.371Z</time>
</trkpt>
<trkpt lat="32.6217900" lon="35.1120800">
<ele>194.850006</ele>
<time>2022-10-12T11:57:26.371Z</time>
</trkpt>
<trkpt lat="32.6216200" lon="35.1119600">
<ele>198.139999</ele>
<time>2022-10-12T11:57:26.371Z</time>
</trkpt>
<trkpt lat="32.6215500" lon="35.1119100">
<ele>201.559998</ele>
<time>2022-10-12T11:57:26.371Z</time>
</trkpt>
<trkpt lat="32.6215700" lon="35.1118100">
<ele>204.729996</ele>
<time>2022-10-12T11:57:26.371Z</time>
</trkpt>
<trkpt lat="32.6216600" lon="35.1117500">
<ele>206.159988</ele>
<time>2022-10-12T11:57:26.371Z</time>
</trkpt>
<trkpt lat="32.6216900" lon="35.1116700">
<ele>210.339996</ele>
<time>2022-10-12T11:57:26.371Z</time>
</trkpt>
<trkpt lat="32.6215700" lon="35.1115100">
<ele>213.380005</ele>
<time>2022-10-12T11:57:26.371Z</time>
</trkpt>
<trkpt lat="32.6215300" lon="35.1114700">
<ele>214.249985</ele>
<time>2022-10-12T11:57:26.371Z</time>
</trkpt>
<trkpt lat="32.6214000" lon="35.1114300">
<ele>215.110001</ele>
<time>2022-10-12T11:57:26.371Z</time>
</trkpt>
<trkpt lat="32.6212600" lon="35.1113000">
<ele>215.270004</ele>
<time>2022-10-12T11:57:26.371Z</time>
</trkpt>
<trkpt lat="32.6210900" lon="35.1112600">
<ele>213.360001</ele>
<time>2022-10-12T11:57:26.371Z</time>
</trkpt>
<trkpt lat="32.6208900" lon="35.1112600">
<ele>211.690002</ele>
<time>2022-10-12T11:57:26.371Z</time>
</trkpt>
<trkpt lat="32.6206500" lon="35.1112800">
<ele>207.690002</ele>
<time>2022-10-12T11:57:26.371Z</time>
</trkpt>
<trkpt lat="32.6206000" lon="35.1112900">
<ele>206.820007</ele>
<time>2022-10-12T11:57:26.371Z</time>
</trkpt>
<trkpt lat="32.6204700" lon="35.1113500">
<ele>203.679993</ele>
<time>2022-10-12T11:57:26.371Z</time>
</trkpt>
<trkpt lat="32.6202200" lon="35.1113700">
<ele>195.969986</ele>
<time>2022-10-12T11:57:26.371Z</time>
</trkpt>
<trkpt lat="32.6201300" lon="35.1114100">
<ele>195.889999</ele>
<time>2022-10-12T11:57:26.372Z</time>
</trkpt>
<trkpt lat="32.6198700" lon="35.1114600">
<ele>196.669998</ele>
<time>2022-10-12T11:57:26.372Z</time>
</trkpt>
<trkpt lat="32.6197500" lon="35.1116000">
<ele>195.199997</ele>
<time>2022-10-12T11:57:26.372Z</time>
</trkpt>
<trkpt lat="32.6198100" lon="35.1116600">
<ele>194.409988</ele>
<time>2022-10-12T11:57:26.372Z</time>
</trkpt>
<trkpt lat="32.6197600" lon="35.1118500">
<ele>190.539993</ele>
<time>2022-10-12T11:57:26.372Z</time>
</trkpt>
<trkpt lat="32.6195400" lon="35.1119300">
<ele>185.720001</ele>
<time>2022-10-12T11:57:26.372Z</time>
</trkpt>
<trkpt lat="32.6192300" lon="35.1120400">
<ele>177.770004</ele>
<time>2022-10-12T11:57:26.372Z</time>
</trkpt>
<trkpt lat="32.6189400" lon="35.1117800">
<ele>188.040009</ele>
<time>2022-10-12T11:57:26.372Z</time>
</trkpt>
<trkpt lat="32.6189000" lon="35.1116100">
<ele>190.469986</ele>
<time>2022-10-12T11:57:26.372Z</time>
</trkpt>
<trkpt lat="32.6188700" lon="35.1113300">
<ele>193.199997</ele>
<time>2022-10-12T11:57:26.372Z</time>
</trkpt>
<trkpt lat="32.6187700" lon="35.1109200">
<ele>191.689987</ele>
<time>2022-10-12T11:57:26.372Z</time>
</trkpt>
<trkpt lat="32.6187100" lon="35.1106000">
<ele>186.039993</ele>
<time>2022-10-12T11:57:26.372Z</time>
</trkpt>
<trkpt lat="32.6185300" lon="35.1104200">
<ele>180.559998</ele>
<time>2022-10-12T11:57:26.372Z</time>
</trkpt>
<trkpt lat="32.6184100" lon="35.1105000">
<ele>178.979996</ele>
<time>2022-10-12T11:57:26.372Z</time>
</trkpt>
<trkpt lat="32.6184000" lon="35.1105100">
<ele>178.869995</ele>
<time>2022-10-12T11:57:26.372Z</time>
</trkpt>
<trkpt lat="32.6183300" lon="35.1106700">
<ele>178.339996</ele>
<time>2022-10-12T11:57:26.372Z</time>
</trkpt>
<trkpt lat="32.6183300" lon="35.1106700">
<ele>178.339996</ele>
<time>2022-10-12T11:57:26.372Z</time>
</trkpt>
<trkpt lat="32.6183200" lon="35.1106700">
<ele>178.099991</ele>
<time>2022-10-12T11:57:26.372Z</time>
</trkpt>
<trkpt lat="32.6183200" lon="35.1106600">
<ele>178.070007</ele>
<time>2022-10-12T11:57:26.372Z</time>
</trkpt>
<trkpt lat="32.6182600" lon="35.1107600">
<ele>176.960007</ele>
<time>2022-10-12T11:57:26.372Z</time>
</trkpt>
<trkpt lat="32.6182400" lon="35.1107900">
<ele>176.539993</ele>
<time>2022-10-12T11:57:26.372Z</time>
</trkpt>
<trkpt lat="32.6181400" lon="35.1111500">
<ele>171.520004</ele>
<time>2022-10-12T11:57:26.372Z</time>
</trkpt>
<trkpt lat="32.6180100" lon="35.1113200">
<ele>169.040009</ele>
<time>2022-10-12T11:57:26.372Z</time>
</trkpt>
<trkpt lat="32.6177600" lon="35.1114100">
<ele>169.250000</ele>
<time>2022-10-12T11:57:26.372Z</time>
</trkpt>
<trkpt lat="32.6177400" lon="35.1114200">
<ele>169.579987</ele>
<time>2022-10-12T11:57:26.372Z</time>
</trkpt>
<trkpt lat="32.6176100" lon="35.1116000">
<ele>171.719986</ele>
<time>2022-10-12T11:57:26.372Z</time>
</trkpt>
<trkpt lat="32.6176000" lon="35.1116100">
<ele>171.910004</ele>
<time>2022-10-12T11:57:26.372Z</time>
</trkpt>
<trkpt lat="32.6176100" lon="35.1116200">
<ele>171.690002</ele>
<time>2022-10-12T11:57:26.372Z</time>
</trkpt>
<trkpt lat="32.6175400" lon="35.1116500">
<ele>173.139999</ele>
<time>2022-10-12T11:57:26.372Z</time>
</trkpt>
<trkpt lat="32.6175300" lon="35.1116400">
<ele>173.360001</ele>
<time>2022-10-12T11:57:26.372Z</time>
</trkpt>
<trkpt lat="32.6175100" lon="35.1116200">
<ele>173.790009</ele>
<time>2022-10-12T11:57:26.373Z</time>
</trkpt>
<trkpt lat="32.6175000" lon="35.1115800">
<ele>174.000000</ele>
<time>2022-10-12T11:57:26.373Z</time>
</trkpt>
<trkpt lat="32.6174800" lon="35.1115100">
<ele>174.970001</ele>
<time>2022-10-12T11:57:26.373Z</time>
</trkpt>
<trkpt lat="32.6174700" lon="35.1114100">
<ele>175.149994</ele>
<time>2022-10-12T11:57:26.373Z</time>
</trkpt>
<trkpt lat="32.6174000" lon="35.1113900">
<ele>177.610001</ele>
<time>2022-10-12T11:57:26.373Z</time>
</trkpt>
<trkpt lat="32.6174200" lon="35.1114300">
<ele>177.219986</ele>
<time>2022-10-12T11:57:26.373Z</time>
</trkpt>
<trkpt lat="32.6174000" lon="35.1114600">
<ele>178.339996</ele>
<time>2022-10-12T11:57:26.373Z</time>
</trkpt>
<trkpt lat="32.6173600" lon="35.1114800">
<ele>180.360001</ele>
<time>2022-10-12T11:57:26.373Z</time>
</trkpt>
<trkpt lat="32.6173300" lon="35.1114500">
<ele>181.199997</ele>
<time>2022-10-12T11:57:26.373Z</time>
</trkpt>
<trkpt lat="32.6173000" lon="35.1114100">
<ele>181.639999</ele>
<time>2022-10-12T11:57:26.373Z</time>
</trkpt>
<trkpt lat="32.6172300" lon="35.1113600">
<ele>184.119995</ele>
<time>2022-10-12T11:57:26.373Z</time>
</trkpt>
<trkpt lat="32.6171900" lon="35.1112700">
<ele>187.970001</ele>
<time>2022-10-12T11:57:26.373Z</time>
</trkpt>
<trkpt lat="32.6171600" lon="35.1112200">
<ele>190.539993</ele>
<time>2022-10-12T11:57:26.373Z</time>
</trkpt>
<trkpt lat="32.6171200" lon="35.1111200">
<ele>193.829987</ele>
<time>2022-10-12T11:57:26.373Z</time>
</trkpt>
<trkpt lat="32.6170800" lon="35.1110800">
<ele>196.020004</ele>
<time>2022-10-12T11:57:26.373Z</time>
</trkpt>
<trkpt lat="32.6170200" lon="35.1110400">
<ele>199.209991</ele>
<time>2022-10-12T11:57:26.373Z</time>
</trkpt>
<trkpt lat="32.6170200" lon="35.1110300">
<ele>199.139999</ele>
<time>2022-10-12T11:57:26.373Z</time>
</trkpt>
<trkpt lat="32.6169700" lon="35.1109700">
<ele>201.559998</ele>
<time>2022-10-12T11:57:26.373Z</time>
</trkpt>
<trkpt lat="32.6169200" lon="35.1109300">
<ele>203.399994</ele>
<time>2022-10-12T11:57:26.373Z</time>
</trkpt>
<trkpt lat="32.6168400" lon="35.1108200">
<ele>204.809998</ele>
<time>2022-10-12T11:57:26.373Z</time>
</trkpt>
<trkpt lat="32.6168300" lon="35.1107700">
<ele>204.330002</ele>
<time>2022-10-12T11:57:26.373Z</time>
</trkpt>
<trkpt lat="32.6167700" lon="35.1107000">
<ele>204.680008</ele>
<time>2022-10-12T11:57:26.373Z</time>
</trkpt>
<trkpt lat="32.6167200" lon="35.1106300">
<ele>204.489990</ele>
<time>2022-10-12T11:57:26.373Z</time>
</trkpt>
<trkpt lat="32.6166700" lon="35.1105300">
<ele>203.480011</ele>
<time>2022-10-12T11:57:26.373Z</time>
</trkpt>
<trkpt lat="32.6166300" lon="35.1104900">
<ele>203.840012</ele>
<time>2022-10-12T11:57:26.373Z</time>
</trkpt>
<trkpt lat="32.6165400" lon="35.1103400">
<ele>203.410004</ele>
<time>2022-10-12T11:57:26.373Z</time>
</trkpt>
<trkpt lat="32.6165200" lon="35.1103200">
<ele>203.540009</ele>
<time>2022-10-12T11:57:26.373Z</time>
</trkpt>
<trkpt lat="32.6164600" lon="35.1102700">
<ele>204.069992</ele>
<time>2022-10-12T11:57:26.373Z</time>
</trkpt>
<trkpt lat="32.6164300" lon="35.1102400">
<ele>204.279999</ele>
<time>2022-10-12T11:57:26.373Z</time>
</trkpt>
<trkpt lat="32.6163100" lon="35.1101000">
<ele>204.240005</ele>
<time>2022-10-12T11:57:26.373Z</time>
</trkpt>
<trkpt lat="32.6162700" lon="35.1100300">
<ele>203.389999</ele>
<time>2022-10-12T11:57:26.373Z</time>
</trkpt>
<trkpt lat="32.6162000" lon="35.1100400">
<ele>204.729996</ele>
<time>2022-10-12T11:57:26.373Z</time>
</trkpt>
<trkpt lat="32.6162600" lon="35.1101600">
<ele>206.540009</ele>
<time>2022-10-12T11:57:26.373Z</time>
</trkpt>
<trkpt lat="32.6163100" lon="35.1102000">
<ele>206.350006</ele>
<time>2022-10-12T11:57:26.373Z</time>
</trkpt>
<trkpt lat="32.6163400" lon="35.1102500">
<ele>206.679993</ele>
<time>2022-10-12T11:57:26.373Z</time>
</trkpt>
<trkpt lat="32.6164000" lon="35.1103300">
<ele>206.840012</ele>
<time>2022-10-12T11:57:26.374Z</time>
</trkpt>
<trkpt lat="32.6164100" lon="35.1103600">
<ele>207.220001</ele>
<time>2022-10-12T11:57:26.374Z</time>
</trkpt>
<trkpt lat="32.6163900" lon="35.1103600">
<ele>207.750000</ele>
<time>2022-10-12T11:57:26.374Z</time>
</trkpt>
<trkpt lat="32.6163600" lon="35.1103500">
<ele>208.290009</ele>
<time>2022-10-12T11:57:26.374Z</time>
</trkpt>
<trkpt lat="32.6163300" lon="35.1103200">
<ele>208.400009</ele>
<time>2022-10-12T11:57:26.374Z</time>
</trkpt>
<trkpt lat="32.6161900" lon="35.1102000">
<ele>209.009995</ele>
<time>2022-10-12T11:57:26.374Z</time>
</trkpt>
<trkpt lat="32.6160600" lon="35.1101100">
<ele>208.720001</ele>
<time>2022-10-12T11:57:26.374Z</time>
</trkpt>
<trkpt lat="32.6160200" lon="35.1100900">
<ele>208.579987</ele>
<time>2022-10-12T11:57:26.374Z</time>
</trkpt>
<trkpt lat="32.6159000" lon="35.1100200">
<ele>207.860001</ele>
<time>2022-10-12T11:57:26.374Z</time>
</trkpt>
<trkpt lat="32.6158200" lon="35.1099700">
<ele>206.660004</ele>
<time>2022-10-12T11:57:26.374Z</time>
</trkpt>
<trkpt lat="32.6158200" lon="35.1099700">
<ele>206.660004</ele>
<time>2022-10-12T11:57:26.374Z</time>
</trkpt>
<trkpt lat="32.6158100" lon="35.1099400">
<ele>205.349991</ele>
<time>2022-10-12T11:57:26.374Z</time>
</trkpt>
<trkpt lat="32.6155700" lon="35.1098100">
<ele>196.979996</ele>
<time>2022-10-12T11:57:26.375Z</time>
</trkpt>
<trkpt lat="32.6153700" lon="35.1097500">
<ele>193.470001</ele>
<time>2022-10-12T11:57:26.375Z</time>
</trkpt>
<trkpt lat="32.6150800" lon="35.1095300">
<ele>191.850006</ele>
<time>2022-10-12T11:57:26.375Z</time>
</trkpt>
<trkpt lat="32.6149800" lon="35.1093800">
<ele>191.399994</ele>
<time>2022-10-12T11:57:26.375Z</time>
</trkpt>
<trkpt lat="32.6149900" lon="35.1093700">
<ele>191.040009</ele>
<time>2022-10-12T11:57:26.375Z</time>
</trkpt>
<trkpt lat="32.6150200" lon="35.1093600">
<ele>190.400009</ele>
<time>2022-10-12T11:57:26.375Z</time>
</trkpt>
<trkpt lat="32.6150100" lon="35.1093500">
<ele>190.520004</ele>
<time>2022-10-12T11:57:26.375Z</time>
</trkpt>
<trkpt lat="32.6150000" lon="35.1093500">
<ele>190.660004</ele>
<time>2022-10-12T11:57:26.375Z</time>
</trkpt>
<trkpt lat="32.6149500" lon="35.1093300">
<ele>192.020004</ele>
<time>2022-10-12T11:57:26.375Z</time>
</trkpt>
<trkpt lat="32.6148900" lon="35.1090600">
<ele>192.600006</ele>
<time>2022-10-12T11:57:26.375Z</time>
</trkpt>
<trkpt lat="32.6148800" lon="35.1089500">
<ele>193.379990</ele>
<time>2022-10-12T11:57:26.375Z</time>
</trkpt>
<trkpt lat="32.6148700" lon="35.1087800">
<ele>194.660004</ele>
<time>2022-10-12T11:57:26.375Z</time>
</trkpt>
<trkpt lat="32.6148600" lon="35.1086600">
<ele>195.660004</ele>
<time>2022-10-12T11:57:26.375Z</time>
</trkpt>
<trkpt lat="32.6148700" lon="35.1079700">
<ele>199.419998</ele>
<time>2022-10-12T11:57:26.375Z</time>
</trkpt>
<trkpt lat="32.6148000" lon="35.1075700">
<ele>199.070007</ele>
<time>2022-10-12T11:57:26.375Z</time>
</trkpt>
<trkpt lat="32.6147500" lon="35.1074200">
<ele>200.930008</ele>
<time>2022-10-12T11:57:26.375Z</time>
</trkpt>
<trkpt lat="32.6147400" lon="35.1074200">
<ele>201.270004</ele>
<time>2022-10-12T11:57:26.375Z</time>
</trkpt>
<trkpt lat="32.6147500" lon="35.1074200">
<ele>200.930008</ele>
<time>2022-10-12T11:57:26.375Z</time>
</trkpt>
<trkpt lat="32.6147500" lon="35.1073900">
<ele>201.170013</ele>
<time>2022-10-12T11:57:26.375Z</time>
</trkpt>
<trkpt lat="32.6145300" lon="35.1071800">
<ele>200.529999</ele>
<time>2022-10-12T11:57:26.375Z</time>
</trkpt>
<trkpt lat="32.6142300" lon="35.1070100">
<ele>198.610001</ele>
<time>2022-10-12T11:57:26.375Z</time>
</trkpt>
<trkpt lat="32.6140200" lon="35.1069300">
<ele>196.569992</ele>
<time>2022-10-12T11:57:26.375Z</time>
</trkpt>
<trkpt lat="32.6138600" lon="35.1068800">
<ele>194.620010</ele>
<time>2022-10-12T11:57:26.375Z</time>
</trkpt>
<trkpt lat="32.6137800" lon="35.1068700">
<ele>193.250015</ele>
<time>2022-10-12T11:57:26.375Z</time>
</trkpt>
<trkpt lat="32.6137400" lon="35.1068800">
<ele>192.389999</ele>
<time>2022-10-12T11:57:26.375Z</time>
</trkpt>
<trkpt lat="32.6137200" lon="35.1068800">
<ele>192.020004</ele>
<time>2022-10-12T11:57:26.375Z</time>
</trkpt>
<trkpt lat="32.6136100" lon="35.1068500">
<ele>189.979996</ele>
<time>2022-10-12T11:57:26.375Z</time>
</trkpt>
<trkpt lat="32.6130900" lon="35.1068100">
<ele>180.139999</ele>
<time>2022-10-12T11:57:26.376Z</time>
</trkpt>
<trkpt lat="32.6128300" lon="35.1068800">
<ele>178.319992</ele>
<time>2022-10-12T11:57:26.376Z</time>
</trkpt>
<trkpt lat="32.6123600" lon="35.1070200">
<ele>175.290009</ele>
<time>2022-10-12T11:57:26.376Z</time>
</trkpt>
<trkpt lat="32.6123200" lon="35.1070400">
<ele>174.139999</ele>
<time>2022-10-12T11:57:26.376Z</time>
</trkpt>
<trkpt lat="32.6120900" lon="35.1071100">
<ele>172.449997</ele>
<time>2022-10-12T11:57:26.376Z</time>
</trkpt>
<trkpt lat="32.6117200" lon="35.1072200">
<ele>181.600006</ele>
<time>2022-10-12T11:57:26.376Z</time>
</trkpt>
<trkpt lat="32.6113500" lon="35.1073800">
<ele>190.239990</ele>
<time>2022-10-12T11:57:26.376Z</time>
</trkpt>
<trkpt lat="32.6109300" lon="35.1074100">
<ele>199.220001</ele>
<time>2022-10-12T11:57:26.376Z</time>
</trkpt>
<trkpt lat="32.6106500" lon="35.1074700">
<ele>207.300003</ele>
<time>2022-10-12T11:57:26.376Z</time>
</trkpt>
<trkpt lat="32.6104000" lon="35.1075000">
<ele>207.199997</ele>
<time>2022-10-12T11:57:26.376Z</time>
</trkpt>
<trkpt lat="32.6103400" lon="35.1075200">
<ele>206.419998</ele>
<time>2022-10-12T11:57:26.376Z</time>
</trkpt>
<trkpt lat="32.6103900" lon="35.1076200">
<ele>208.479996</ele>
<time>2022-10-12T11:57:26.376Z</time>
</trkpt>
<trkpt lat="32.6104400" lon="35.1076400">
<ele>209.260010</ele>
<time>2022-10-12T11:57:26.376Z</time>
</trkpt>
<trkpt lat="32.6106500" lon="35.1077600">
<ele>210.529999</ele>
<time>2022-10-12T11:57:26.376Z</time>
</trkpt>
<trkpt lat="32.6108700" lon="35.1078300">
<ele>210.490005</ele>
<time>2022-10-12T11:57:26.376Z</time>
</trkpt>
<trkpt lat="32.6111200" lon="35.1078700">
<ele>208.510010</ele>
<time>2022-10-12T11:57:26.376Z</time>
</trkpt>
<trkpt lat="32.6113500" lon="35.1079000">
<ele>206.419998</ele>
<time>2022-10-12T11:57:26.376Z</time>
</trkpt>
<trkpt lat="32.6115700" lon="35.1079200">
<ele>210.110001</ele>
<time>2022-10-12T11:57:26.376Z</time>
</trkpt>
<trkpt lat="32.6117900" lon="35.1078800">
<ele>212.519989</ele>
<time>2022-10-12T11:57:26.376Z</time>
</trkpt>
<trkpt lat="32.6120300" lon="35.1077900">
<ele>213.589996</ele>
<time>2022-10-12T11:57:26.376Z</time>
</trkpt>
<trkpt lat="32.6122700" lon="35.1078300">
<ele>213.560013</ele>
<time>2022-10-12T11:57:26.376Z</time>
</trkpt>
<trkpt lat="32.6125300" lon="35.1078400">
<ele>208.259995</ele>
<time>2022-10-12T11:57:26.376Z</time>
</trkpt>
<trkpt lat="32.6127800" lon="35.1078100">
<ele>202.059998</ele>
<time>2022-10-12T11:57:26.376Z</time>
</trkpt>
<trkpt lat="32.6130600" lon="35.1078300">
<ele>204.230011</ele>
<time>2022-10-12T11:57:26.376Z</time>
</trkpt>
<trkpt lat="32.6132700" lon="35.1078600">
<ele>201.349991</ele>
<time>2022-10-12T11:57:26.376Z</time>
</trkpt>
<trkpt lat="32.6134700" lon="35.1079200">
<ele>201.649994</ele>
<time>2022-10-12T11:57:26.376Z</time>
</trkpt>
<trkpt lat="32.6136900" lon="35.1079900">
<ele>203.169998</ele>
<time>2022-10-12T11:57:26.376Z</time>
</trkpt>
<trkpt lat="32.6138000" lon="35.1080100">
<ele>203.389999</ele>
<time>2022-10-12T11:57:26.377Z</time>
</trkpt>
<trkpt lat="32.6139400" lon="35.1080300">
<ele>203.849991</ele>
<time>2022-10-12T11:57:26.377Z</time>
</trkpt>
<trkpt lat="32.6142100" lon="35.1082000">
<ele>207.809998</ele>
<time>2022-10-12T11:57:26.377Z</time>
</trkpt>
<trkpt lat="32.6142500" lon="35.1082400">
<ele>207.619995</ele>
<time>2022-10-12T11:57:26.377Z</time>
</trkpt>
<trkpt lat="32.6143500" lon="35.1084700">
<ele>206.880005</ele>
<time>2022-10-12T11:57:26.377Z</time>
</trkpt>
<trkpt lat="32.6144000" lon="35.1086500">
<ele>205.720001</ele>
<time>2022-10-12T11:57:26.377Z</time>
</trkpt>
<trkpt lat="32.6144200" lon="35.1089100">
<ele>205.800003</ele>
<time>2022-10-12T11:57:26.377Z</time>
</trkpt>
<trkpt lat="32.6146600" lon="35.1093900">
<ele>200.979996</ele>
<time>2022-10-12T11:57:26.377Z</time>
</trkpt>
<trkpt lat="32.6147800" lon="35.1096000">
<ele>201.630005</ele>
<time>2022-10-12T11:57:26.377Z</time>
</trkpt>
<trkpt lat="32.6148800" lon="35.1098400">
<ele>203.229996</ele>
<time>2022-10-12T11:57:26.377Z</time>
</trkpt>
<trkpt lat="32.6149800" lon="35.1100600">
<ele>204.290009</ele>
<time>2022-10-12T11:57:26.377Z</time>
</trkpt>
<trkpt lat="32.6150300" lon="35.1102500">
<ele>209.889999</ele>
<time>2022-10-12T11:57:26.377Z</time>
</trkpt>
<trkpt lat="32.6151200" lon="35.1104000">
<ele>216.029999</ele>
<time>2022-10-12T11:57:26.377Z</time>
</trkpt>
<trkpt lat="32.6151400" lon="35.1104300">
<ele>217.080002</ele>
<time>2022-10-12T11:57:26.377Z</time>
</trkpt>
<trkpt lat="32.6151800" lon="35.1105000">
<ele>219.139999</ele>
<time>2022-10-12T11:57:26.377Z</time>
</trkpt>
<trkpt lat="32.6151900" lon="35.1105900">
<ele>220.620010</ele>
<time>2022-10-12T11:57:26.377Z</time>
</trkpt>
<trkpt lat="32.6150800" lon="35.1106500">
<ele>220.260010</ele>
<time>2022-10-12T11:57:26.377Z</time>
</trkpt>
<trkpt lat="32.6149600" lon="35.1105900">
<ele>219.910004</ele>
<time>2022-10-12T11:57:26.377Z</time>
</trkpt>
<trkpt lat="32.6149300" lon="35.1105600">
<ele>220.279999</ele>
<time>2022-10-12T11:57:26.377Z</time>
</trkpt>
<trkpt lat="32.6147500" lon="35.1104700">
<ele>221.279999</ele>
<time>2022-10-12T11:57:26.377Z</time>
</trkpt>
<trkpt lat="32.6145900" lon="35.1103800">
<ele>222.160004</ele>
<time>2022-10-12T11:57:26.377Z</time>
</trkpt>
<trkpt lat="32.6144200" lon="35.1102900">
<ele>225.699997</ele>
<time>2022-10-12T11:57:26.377Z</time>
</trkpt>
<trkpt lat="32.6142600" lon="35.1102000">
<ele>230.309998</ele>
<time>2022-10-12T11:57:26.378Z</time>
</trkpt>
<trkpt lat="32.6141100" lon="35.1101100">
<ele>233.559998</ele>
<time>2022-10-12T11:57:26.378Z</time>
</trkpt>
<trkpt lat="32.6139400" lon="35.1100100">
<ele>231.720001</ele>
<time>2022-10-12T11:57:26.378Z</time>
</trkpt>
<trkpt lat="32.6138900" lon="35.1099700">
<ele>230.360001</ele>
<time>2022-10-12T11:57:26.378Z</time>
</trkpt>
<trkpt lat="32.6137100" lon="35.1098600">
<ele>230.559998</ele>
<time>2022-10-12T11:57:26.378Z</time>
</trkpt>
<trkpt lat="32.6134900" lon="35.1097300">
<ele>230.910004</ele>
<time>2022-10-12T11:57:26.378Z</time>
</trkpt>
<trkpt lat="32.6130400" lon="35.1094600">
<ele>234.150009</ele>
<time>2022-10-12T11:57:26.378Z</time>
</trkpt>
<trkpt lat="32.6126200" lon="35.1092200">
<ele>230.949997</ele>
<time>2022-10-12T11:57:26.378Z</time>
</trkpt>
<trkpt lat="32.6120600" lon="35.1089100">
<ele>230.270004</ele>
<time>2022-10-12T11:57:26.378Z</time>
</trkpt>
<trkpt lat="32.6118000" lon="35.1088900">
<ele>226.490005</ele>
<time>2022-10-12T11:57:26.378Z</time>
</trkpt>
<trkpt lat="32.6116700" lon="35.1091300">
<ele>226.069992</ele>
<time>2022-10-12T11:57:26.378Z</time>
</trkpt>
<trkpt lat="32.6115600" lon="35.1093300">
<ele>218.669998</ele>
<time>2022-10-12T11:57:26.378Z</time>
</trkpt>
<trkpt lat="32.6115400" lon="35.1094100">
<ele>216.750000</ele>
<time>2022-10-12T11:57:26.378Z</time>
</trkpt>
<trkpt lat="32.6115400" lon="35.1094000">
<ele>216.940002</ele>
<time>2022-10-12T11:57:26.378Z</time>
</trkpt>
<trkpt lat="32.6115300" lon="35.1094000">
<ele>216.830002</ele>
<time>2022-10-12T11:57:26.378Z</time>
</trkpt>
<trkpt lat="32.6115000" lon="35.1094000">
<ele>216.470001</ele>
<time>2022-10-12T11:57:26.378Z</time>
</trkpt>
<trkpt lat="32.6114100" lon="35.1094700">
<ele>214.750000</ele>
<time>2022-10-12T11:57:26.378Z</time>
</trkpt>
<trkpt lat="32.6113700" lon="35.1095500">
<ele>213.710007</ele>
<time>2022-10-12T11:57:26.378Z</time>
</trkpt>
<trkpt lat="32.6112200" lon="35.1098000">
<ele>212.139999</ele>
<time>2022-10-12T11:57:26.378Z</time>
</trkpt>
<trkpt lat="32.6110900" lon="35.1100500">
<ele>208.709991</ele>
<time>2022-10-12T11:57:26.378Z</time>
</trkpt>
<trkpt lat="32.6110800" lon="35.1100800">
<ele>207.970001</ele>
<time>2022-10-12T11:57:26.378Z</time>
</trkpt>
<trkpt lat="32.6109500" lon="35.1102400">
<ele>202.280014</ele>
<time>2022-10-12T11:57:26.378Z</time>
</trkpt>
<trkpt lat="32.6108000" lon="35.1104300">
<ele>198.100006</ele>
<time>2022-10-12T11:57:26.378Z</time>
</trkpt>
<trkpt lat="32.6107800" lon="35.1104500">
<ele>198.649994</ele>
<time>2022-10-12T11:57:26.378Z</time>
</trkpt>
<trkpt lat="32.6106500" lon="35.1105300">
<ele>203.639999</ele>
<time>2022-10-12T11:57:26.378Z</time>
</trkpt>
<trkpt lat="32.6104300" lon="35.1107000">
<ele>207.389999</ele>
<time>2022-10-12T11:57:26.378Z</time>
</trkpt>
<trkpt lat="32.6103900" lon="35.1107200">
<ele>207.300003</ele>
<time>2022-10-12T11:57:26.378Z</time>
</trkpt>
<trkpt lat="32.6101900" lon="35.1107900">
<ele>207.890015</ele>
<time>2022-10-12T11:57:26.378Z</time>
</trkpt>
<trkpt lat="32.6100200" lon="35.1108500">
<ele>209.369995</ele>
<time>2022-10-12T11:57:26.378Z</time>
</trkpt>
<trkpt lat="32.6098900" lon="35.1108400">
<ele>211.850006</ele>
<time>2022-10-12T11:57:26.378Z</time>
</trkpt>
<trkpt lat="32.6098000" lon="35.1108300">
<ele>213.649994</ele>
<time>2022-10-12T11:57:26.378Z</time>
</trkpt>
<trkpt lat="32.6096500" lon="35.1108500">
<ele>216.280014</ele>
<time>2022-10-12T11:57:26.378Z</time>
</trkpt>
<trkpt lat="32.6095500" lon="35.1108500">
<ele>218.460007</ele>
<time>2022-10-12T11:57:26.378Z</time>
</trkpt>
<trkpt lat="32.6094700" lon="35.1108300">
<ele>220.580002</ele>
<time>2022-10-12T11:57:26.378Z</time>
</trkpt>
<trkpt lat="32.6094600" lon="35.1107700">
<ele>223.300003</ele>
<time>2022-10-12T11:57:26.378Z</time>
</trkpt>
<trkpt lat="32.6095800" lon="35.1107700">
<ele>219.920013</ele>
<time>2022-10-12T11:57:26.378Z</time>
</trkpt>
<trkpt lat="32.6097300" lon="35.1107400">
<ele>216.199997</ele>
<time>2022-10-12T11:57:26.378Z</time>
</trkpt>
<trkpt lat="32.6098400" lon="35.1106500">
<ele>215.520004</ele>
<time>2022-10-12T11:57:26.378Z</time>
</trkpt>
<trkpt lat="32.6099000" lon="35.1106100">
<ele>215.019989</ele>
<time>2022-10-12T11:57:26.378Z</time>
</trkpt>
<trkpt lat="32.6100000" lon="35.1105400">
<ele>214.059998</ele>
<time>2022-10-12T11:57:26.378Z</time>
</trkpt>
<trkpt lat="32.6101900" lon="35.1104500">
<ele>211.380005</ele>
<time>2022-10-12T11:57:26.378Z</time>
</trkpt>
<trkpt lat="32.6102600" lon="35.1103900">
<ele>210.289993</ele>
<time>2022-10-12T11:57:26.378Z</time>
</trkpt>
<trkpt lat="32.6103800" lon="35.1102400">
<ele>209.190002</ele>
<time>2022-10-12T11:57:26.378Z</time>
</trkpt>
<trkpt lat="32.6104300" lon="35.1102100">
<ele>208.660004</ele>
<time>2022-10-12T11:57:26.378Z</time>
</trkpt>
<trkpt lat="32.6104800" lon="35.1101600">
<ele>207.970001</ele>
<time>2022-10-12T11:57:26.378Z</time>
</trkpt>
<trkpt lat="32.6105900" lon="35.1099800">
<ele>205.850006</ele>
<time>2022-10-12T11:57:26.378Z</time>
</trkpt>
<trkpt lat="32.6106700" lon="35.1098100">
<ele>206.309998</ele>
<time>2022-10-12T11:57:26.379Z</time>
</trkpt>
<trkpt lat="32.6106800" lon="35.1097500">
<ele>206.670013</ele>
<time>2022-10-12T11:57:26.379Z</time>
</trkpt>
<trkpt lat="32.6106300" lon="35.1097100">
<ele>206.269989</ele>
<time>2022-10-12T11:57:26.379Z</time>
</trkpt>
<trkpt lat="32.6106300" lon="35.1097700">
<ele>206.009995</ele>
<time>2022-10-12T11:57:26.379Z</time>
</trkpt>
<trkpt lat="32.6106200" lon="35.1097900">
<ele>205.889999</ele>
<time>2022-10-12T11:57:26.379Z</time>
</trkpt>
<trkpt lat="32.6105300" lon="35.1099000">
<ele>206.080002</ele>
<time>2022-10-12T11:57:26.379Z</time>
</trkpt>
<trkpt lat="32.6104500" lon="35.1100100">
<ele>209.009995</ele>
<time>2022-10-12T11:57:26.379Z</time>
</trkpt>
<trkpt lat="32.6103600" lon="35.1100900">
<ele>210.820007</ele>
<time>2022-10-12T11:57:26.379Z</time>
</trkpt>
<trkpt lat="32.6102800" lon="35.1101500">
<ele>211.800003</ele>
<time>2022-10-12T11:57:26.379Z</time>
</trkpt>
<trkpt lat="32.6101200" lon="35.1102400">
<ele>212.610001</ele>
<time>2022-10-12T11:57:26.379Z</time>
</trkpt>
<trkpt lat="32.6098400" lon="35.1103100">
<ele>217.759995</ele>
<time>2022-10-12T11:57:26.379Z</time>
</trkpt>
<trkpt lat="32.6097200" lon="35.1102800">
<ele>220.059998</ele>
<time>2022-10-12T11:57:26.379Z</time>
</trkpt>
<trkpt lat="32.6094900" lon="35.1101600">
<ele>225.919998</ele>
<time>2022-10-12T11:57:26.379Z</time>
</trkpt>
<trkpt lat="32.6093000" lon="35.1099300">
<ele>230.510010</ele>
<time>2022-10-12T11:57:26.379Z</time>
</trkpt>
<trkpt lat="32.6091300" lon="35.1098200">
<ele>235.220001</ele>
<time>2022-10-12T11:57:26.379Z</time>
</trkpt>
<trkpt lat="32.6090000" lon="35.1097400">
<ele>236.039993</ele>
<time>2022-10-12T11:57:26.379Z</time>
</trkpt>
<trkpt lat="32.6087800" lon="35.1093600">
<ele>229.669998</ele>
<time>2022-10-12T11:57:26.379Z</time>
</trkpt>
<trkpt lat="32.6087500" lon="35.1093300">
<ele>229.089996</ele>
<time>2022-10-12T11:57:26.379Z</time>
</trkpt>
<trkpt lat="32.6087000" lon="35.1090300">
<ele>227.940002</ele>
<time>2022-10-12T11:57:26.379Z</time>
</trkpt>
<trkpt lat="32.6086700" lon="35.1089800">
<ele>227.390015</ele>
<time>2022-10-12T11:57:26.379Z</time>
</trkpt>
<trkpt lat="32.6086500" lon="35.1088100">
<ele>226.069992</ele>
<time>2022-10-12T11:57:26.379Z</time>
</trkpt>
<trkpt lat="32.6086200" lon="35.1087200">
<ele>224.410004</ele>
<time>2022-10-12T11:57:26.379Z</time>
</trkpt>
<trkpt lat="32.6086100" lon="35.1085800">
<ele>222.639984</ele>
<time>2022-10-12T11:57:26.379Z</time>
</trkpt>
<trkpt lat="32.6085900" lon="35.1082100">
<ele>219.680008</ele>
<time>2022-10-12T11:57:26.379Z</time>
</trkpt>
<trkpt lat="32.6084900" lon="35.1082500">
<ele>217.909988</ele>
<time>2022-10-12T11:57:26.379Z</time>
</trkpt>
<trkpt lat="32.6084700" lon="35.1082800">
<ele>217.339996</ele>
<time>2022-10-12T11:57:26.379Z</time>
</trkpt>
<trkpt lat="32.6084300" lon="35.1083500">
<ele>216.309998</ele>
<time>2022-10-12T11:57:26.380Z</time>
</trkpt>
<trkpt lat="32.6083700" lon="35.1084700">
<ele>216.699997</ele>
<time>2022-10-12T11:57:26.380Z</time>
</trkpt>
<trkpt lat="32.6084000" lon="35.1088000">
<ele>220.720001</ele>
<time>2022-10-12T11:57:26.380Z</time>
</trkpt>
<trkpt lat="32.6084400" lon="35.1090900">
<ele>222.580002</ele>
<time>2022-10-12T11:57:26.380Z</time>
</trkpt>
<trkpt lat="32.6084600" lon="35.1091200">
<ele>223.119995</ele>
<time>2022-10-12T11:57:26.380Z</time>
</trkpt>
<trkpt lat="32.6085600" lon="35.1094500">
<ele>225.800003</ele>
<time>2022-10-12T11:57:26.380Z</time>
</trkpt>
<trkpt lat="32.6087000" lon="35.1097000">
<ele>232.279999</ele>
<time>2022-10-12T11:57:26.380Z</time>
</trkpt>
<trkpt lat="32.6087800" lon="35.1098300">
<ele>234.750000</ele>
<time>2022-10-12T11:57:26.380Z</time>
</trkpt>
<trkpt lat="32.6088800" lon="35.1100900">
<ele>235.869995</ele>
<time>2022-10-12T11:57:26.381Z</time>
</trkpt>
<trkpt lat="32.6089500" lon="35.1102600">
<ele>230.900009</ele>
<time>2022-10-12T11:57:26.381Z</time>
</trkpt>
<trkpt lat="32.6089700" lon="35.1103200">
<ele>230.559998</ele>
<time>2022-10-12T11:57:26.381Z</time>
</trkpt>
<trkpt lat="32.6090100" lon="35.1104900">
<ele>230.300003</ele>
<time>2022-10-12T11:57:26.381Z</time>
</trkpt>
<trkpt lat="32.6089500" lon="35.1106200">
<ele>228.830002</ele>
<time>2022-10-12T11:57:26.381Z</time>
</trkpt>
<trkpt lat="32.6088800" lon="35.1107000">
<ele>226.050003</ele>
<time>2022-10-12T11:57:26.381Z</time>
</trkpt>
<trkpt lat="32.6089900" lon="35.1110900">
<ele>216.680008</ele>
<time>2022-10-12T11:57:26.381Z</time>
</trkpt>
<trkpt lat="32.6089100" lon="35.1111200">
<ele>215.250000</ele>
<time>2022-10-12T11:57:26.381Z</time>
</trkpt>
<trkpt lat="32.6088300" lon="35.1111100">
<ele>215.230011</ele>
<time>2022-10-12T11:57:26.381Z</time>
</trkpt>
<trkpt lat="32.6088300" lon="35.1111100">
<ele>215.230011</ele>
<time>2022-10-12T11:57:26.381Z</time>
</trkpt>
<trkpt lat="32.6087600" lon="35.1110800">
<ele>215.939987</ele>
<time>2022-10-12T11:57:26.381Z</time>
</trkpt>
<trkpt lat="32.6086000" lon="35.1109700">
<ele>216.410004</ele>
<time>2022-10-12T11:57:26.381Z</time>
</trkpt>
<trkpt lat="32.6083400" lon="35.1108100">
<ele>217.090012</ele>
<time>2022-10-12T11:57:26.381Z</time>
</trkpt>
<trkpt lat="32.6082700" lon="35.1107300">
<ele>216.660004</ele>
<time>2022-10-12T11:57:26.381Z</time>
</trkpt>
<trkpt lat="32.6081900" lon="35.1106200">
<ele>215.550003</ele>
<time>2022-10-12T11:57:26.381Z</time>
</trkpt>
<trkpt lat="32.6079000" lon="35.1101500">
<ele>211.729996</ele>
<time>2022-10-12T11:57:26.381Z</time>
</trkpt>
<trkpt lat="32.6078600" lon="35.1100800">
<ele>211.539993</ele>
<time>2022-10-12T11:57:26.381Z</time>
</trkpt>
<trkpt lat="32.6078100" lon="35.1099400">
<ele>211.139999</ele>
<time>2022-10-12T11:57:26.381Z</time>
</trkpt>
<trkpt lat="32.6076800" lon="35.1097000">
<ele>207.160004</ele>
<time>2022-10-12T11:57:26.381Z</time>
</trkpt>
<trkpt lat="32.6075100" lon="35.1094500">
<ele>197.440002</ele>
<time>2022-10-12T11:57:26.381Z</time>
</trkpt>
<trkpt lat="32.6074500" lon="35.1093500">
<ele>197.169998</ele>
<time>2022-10-12T11:57:26.381Z</time>
</trkpt>
<trkpt lat="32.6073500" lon="35.1090000">
<ele>194.400009</ele>
<time>2022-10-12T11:57:26.381Z</time>
</trkpt>
<trkpt lat="32.6073200" lon="35.1086500">
<ele>192.059998</ele>
<time>2022-10-12T11:57:26.381Z</time>
</trkpt>
<trkpt lat="32.6073100" lon="35.1086000">
<ele>191.369995</ele>
<time>2022-10-12T11:57:26.381Z</time>
</trkpt>
<trkpt lat="32.6071700" lon="35.1086300">
<ele>187.309998</ele>
<time>2022-10-12T11:57:26.381Z</time>
</trkpt>
<trkpt lat="32.6072400" lon="35.1089000">
<ele>189.789993</ele>
<time>2022-10-12T11:57:26.381Z</time>
</trkpt>
<trkpt lat="32.6073000" lon="35.1091600">
<ele>191.389999</ele>
<time>2022-10-12T11:57:26.381Z</time>
</trkpt>
<trkpt lat="32.6072600" lon="35.1091600">
<ele>189.659988</ele>
<time>2022-10-12T11:57:26.381Z</time>
</trkpt>
<trkpt lat="32.6070200" lon="35.1088900">
<ele>182.449997</ele>
<time>2022-10-12T11:57:26.381Z</time>
</trkpt>
<trkpt lat="32.6069400" lon="35.1088400">
<ele>179.970001</ele>
<time>2022-10-12T11:57:26.381Z</time>
</trkpt>
<trkpt lat="32.6067600" lon="35.1084400">
<ele>180.360001</ele>
<time>2022-10-12T11:57:26.381Z</time>
</trkpt>
<trkpt lat="32.6066800" lon="35.1082000">
<ele>181.459991</ele>
<time>2022-10-12T11:57:26.381Z</time>
</trkpt>
<trkpt lat="32.6065600" lon="35.1079800">
<ele>182.220001</ele>
<time>2022-10-12T11:57:26.382Z</time>
</trkpt>
<trkpt lat="32.6064000" lon="35.1078400">
<ele>182.370010</ele>
<time>2022-10-12T11:57:26.382Z</time>
</trkpt>
<trkpt lat="32.6063100" lon="35.1077700">
<ele>184.280014</ele>
<time>2022-10-12T11:57:26.382Z</time>
</trkpt>
<trkpt lat="32.6063200" lon="35.1077700">
<ele>183.989990</ele>
<time>2022-10-12T11:57:26.382Z</time>
</trkpt>
<trkpt lat="32.6063100" lon="35.1076200">
<ele>184.430008</ele>
<time>2022-10-12T11:57:26.382Z</time>
</trkpt>
<trkpt lat="32.6063200" lon="35.1076100">
<ele>184.130005</ele>
<time>2022-10-12T11:57:26.382Z</time>
</trkpt>
<trkpt lat="32.6064500" lon="35.1075100">
<ele>180.709991</ele>
<time>2022-10-12T11:57:26.382Z</time>
</trkpt>
<trkpt lat="32.6065800" lon="35.1074200">
<ele>177.979996</ele>
<time>2022-10-12T11:57:26.382Z</time>
</trkpt>
<trkpt lat="32.6066900" lon="35.1073300">
<ele>176.589996</ele>
<time>2022-10-12T11:57:26.382Z</time>
</trkpt>
<trkpt lat="32.6068000" lon="35.1071400">
<ele>178.759995</ele>
<time>2022-10-12T11:57:26.382Z</time>
</trkpt>
<trkpt lat="32.6068600" lon="35.1070000">
<ele>181.830002</ele>
<time>2022-10-12T11:57:26.382Z</time>
</trkpt>
<trkpt lat="32.6068900" lon="35.1069700">
<ele>182.180008</ele>
<time>2022-10-12T11:57:26.382Z</time>
</trkpt>
<trkpt lat="32.6069100" lon="35.1069000">
<ele>183.400009</ele>
<time>2022-10-12T11:57:26.382Z</time>
</trkpt>
<trkpt lat="32.6069600" lon="35.1067400">
<ele>185.690002</ele>
<time>2022-10-12T11:57:26.382Z</time>
</trkpt>
<trkpt lat="32.6069500" lon="35.1065500">
<ele>189.919998</ele>
<time>2022-10-12T11:57:26.382Z</time>
</trkpt>
<trkpt lat="32.6069100" lon="35.1063400">
<ele>195.219986</ele>
<time>2022-10-12T11:57:26.382Z</time>
</trkpt>
<trkpt lat="32.6068700" lon="35.1062000">
<ele>197.240005</ele>
<time>2022-10-12T11:57:26.382Z</time>
</trkpt>
<trkpt lat="32.6067900" lon="35.1060700">
<ele>200.199997</ele>
<time>2022-10-12T11:57:26.382Z</time>
</trkpt>
<trkpt lat="32.6067700" lon="35.1060000">
<ele>201.299988</ele>
<time>2022-10-12T11:57:26.382Z</time>
</trkpt>
<trkpt lat="32.6067600" lon="35.1059600">
<ele>201.910004</ele>
<time>2022-10-12T11:57:26.382Z</time>
</trkpt>
<trkpt lat="32.6066600" lon="35.1058400">
<ele>205.980011</ele>
<time>2022-10-12T11:57:26.382Z</time>
</trkpt>
<trkpt lat="32.6065500" lon="35.1056700">
<ele>209.380005</ele>
<time>2022-10-12T11:57:26.382Z</time>
</trkpt>
<trkpt lat="32.6064900" lon="35.1055100">
<ele>210.459991</ele>
<time>2022-10-12T11:57:26.382Z</time>
</trkpt>
<trkpt lat="32.6064000" lon="35.1053500">
<ele>208.630005</ele>
<time>2022-10-12T11:57:26.382Z</time>
</trkpt>
<trkpt lat="32.6063700" lon="35.1051600">
<ele>206.730011</ele>
<time>2022-10-12T11:57:26.382Z</time>
</trkpt>
<trkpt lat="32.6062900" lon="35.1051700">
<ele>206.840012</ele>
<time>2022-10-12T11:57:26.382Z</time>
</trkpt>
<trkpt lat="32.6061500" lon="35.1052900">
<ele>208.050003</ele>
<time>2022-10-12T11:57:26.382Z</time>
</trkpt>
<trkpt lat="32.6059600" lon="35.1054000">
<ele>207.590012</ele>
<time>2022-10-12T11:57:26.382Z</time>
</trkpt>
<trkpt lat="32.6057700" lon="35.1054600">
<ele>206.560013</ele>
<time>2022-10-12T11:57:26.382Z</time>
</trkpt>
<trkpt lat="32.6055300" lon="35.1054500">
<ele>204.369995</ele>
<time>2022-10-12T11:57:26.382Z</time>
</trkpt>
<trkpt lat="32.6051800" lon="35.1053300">
<ele>209.119995</ele>
<time>2022-10-12T11:57:26.383Z</time>
</trkpt>
<trkpt lat="32.6051300" lon="35.1053300">
<ele>209.699997</ele>
<time>2022-10-12T11:57:26.383Z</time>
</trkpt>
<trkpt lat="32.6049200" lon="35.1052100">
<ele>211.789993</ele>
<time>2022-10-12T11:57:26.383Z</time>
</trkpt>
<trkpt lat="32.6046400" lon="35.1050300">
<ele>211.520004</ele>
<time>2022-10-12T11:57:26.383Z</time>
</trkpt>
<trkpt lat="32.6044300" lon="35.1048900">
<ele>207.429993</ele>
<time>2022-10-12T11:57:26.383Z</time>
</trkpt>
<trkpt lat="32.6040400" lon="35.1046700">
<ele>215.589996</ele>
<time>2022-10-12T11:57:26.383Z</time>
</trkpt>
<trkpt lat="32.6037600" lon="35.1045100">
<ele>216.620010</ele>
<time>2022-10-12T11:57:26.383Z</time>
</trkpt>
<trkpt lat="32.6034200" lon="35.1043800">
<ele>218.139999</ele>
<time>2022-10-12T11:57:26.383Z</time>
</trkpt>
<trkpt lat="32.6032700" lon="35.1042800">
<ele>217.589996</ele>
<time>2022-10-12T11:57:26.383Z</time>
</trkpt>
<trkpt lat="32.6029600" lon="35.1041500">
<ele>215.239990</ele>
<time>2022-10-12T11:57:26.383Z</time>
</trkpt>
<trkpt lat="32.6027400" lon="35.1042500">
<ele>212.199997</ele>
<time>2022-10-12T11:57:26.383Z</time>
</trkpt>
<trkpt lat="32.6026600" lon="35.1043600">
<ele>212.699997</ele>
<time>2022-10-12T11:57:26.383Z</time>
</trkpt>
<trkpt lat="32.6025800" lon="35.1044400">
<ele>213.159988</ele>
<time>2022-10-12T11:57:26.383Z</time>
</trkpt>
<trkpt lat="32.6025000" lon="35.1046100">
<ele>214.000000</ele>
<time>2022-10-12T11:57:26.383Z</time>
</trkpt>
<trkpt lat="32.6024200" lon="35.1047900">
<ele>214.569992</ele>
<time>2022-10-12T11:57:26.383Z</time>
</trkpt>
<trkpt lat="32.6023300" lon="35.1049600">
<ele>214.750000</ele>
<time>2022-10-12T11:57:26.383Z</time>
</trkpt>
<trkpt lat="32.6021800" lon="35.1051400">
<ele>213.720001</ele>
<time>2022-10-12T11:57:26.383Z</time>
</trkpt>
<trkpt lat="32.6021100" lon="35.1052100">
<ele>213.949997</ele>
<time>2022-10-12T11:57:26.383Z</time>
</trkpt>
<trkpt lat="32.6019900" lon="35.1053300">
<ele>214.760010</ele>
<time>2022-10-12T11:57:26.383Z</time>
</trkpt>
<trkpt lat="32.6019800" lon="35.1053300">
<ele>214.820007</ele>
<time>2022-10-12T11:57:26.383Z</time>
</trkpt>
<trkpt lat="32.6019600" lon="35.1053200">
<ele>214.910004</ele>
<time>2022-10-12T11:57:26.383Z</time>
</trkpt>
<trkpt lat="32.6019500" lon="35.1052900">
<ele>214.959991</ele>
<time>2022-10-12T11:57:26.383Z</time>
</trkpt>
<trkpt lat="32.6018300" lon="35.1052000">
<ele>218.000000</ele>
<time>2022-10-12T11:57:26.383Z</time>
</trkpt>
<trkpt lat="32.6017200" lon="35.1050900">
<ele>221.200012</ele>
<time>2022-10-12T11:57:26.383Z</time>
</trkpt>
<trkpt lat="32.6017000" lon="35.1050700">
<ele>221.820007</ele>
<time>2022-10-12T11:57:26.383Z</time>
</trkpt>
<trkpt lat="32.6015600" lon="35.1049200">
<ele>226.960007</ele>
<time>2022-10-12T11:57:26.383Z</time>
</trkpt>
<trkpt lat="32.6014700" lon="35.1048200">
<ele>229.139999</ele>
<time>2022-10-12T11:57:26.383Z</time>
</trkpt>
<trkpt lat="32.6013800" lon="35.1047300">
<ele>230.330002</ele>
<time>2022-10-12T11:57:26.383Z</time>
</trkpt>
<trkpt lat="32.6013200" lon="35.1046300">
<ele>232.979996</ele>
<time>2022-10-12T11:57:26.383Z</time>
</trkpt>
<trkpt lat="32.6012300" lon="35.1045300">
<ele>235.480011</ele>
<time>2022-10-12T11:57:26.383Z</time>
</trkpt>
<trkpt lat="32.6011200" lon="35.1043800">
<ele>237.850006</ele>
<time>2022-10-12T11:57:26.383Z</time>
</trkpt>
<trkpt lat="32.6011100" lon="35.1043600">
<ele>238.229996</ele>
<time>2022-10-12T11:57:26.384Z</time>
</trkpt>
<trkpt lat="32.6010500" lon="35.1042700">
<ele>239.699997</ele>
<time>2022-10-12T11:57:26.384Z</time>
</trkpt>
<trkpt lat="32.6009900" lon="35.1041100">
<ele>240.360001</ele>
<time>2022-10-12T11:57:26.384Z</time>
</trkpt>
<trkpt lat="32.6009500" lon="35.1039900">
<ele>239.779999</ele>
<time>2022-10-12T11:57:26.384Z</time>
</trkpt>
<trkpt lat="32.6009400" lon="35.1039400">
<ele>239.569992</ele>
<time>2022-10-12T11:57:26.384Z</time>
</trkpt>
<trkpt lat="32.6008800" lon="35.1037200">
<ele>238.860001</ele>
<time>2022-10-12T11:57:26.384Z</time>
</trkpt>
<trkpt lat="32.6008300" lon="35.1035300">
<ele>238.699997</ele>
<time>2022-10-12T11:57:26.384Z</time>
</trkpt>
<trkpt lat="32.6007800" lon="35.1033800">
<ele>238.139999</ele>
<time>2022-10-12T11:57:26.384Z</time>
</trkpt>
<trkpt lat="32.6007300" lon="35.1032200">
<ele>237.949997</ele>
<time>2022-10-12T11:57:26.384Z</time>
</trkpt>
<trkpt lat="32.6006800" lon="35.1030400">
<ele>237.500000</ele>
<time>2022-10-12T11:57:26.384Z</time>
</trkpt>
<trkpt lat="32.6006100" lon="35.1028100">
<ele>240.139999</ele>
<time>2022-10-12T11:57:26.384Z</time>
</trkpt>
<trkpt lat="32.6005200" lon="35.1025500">
<ele>242.119995</ele>
<time>2022-10-12T11:57:26.384Z</time>
</trkpt>
<trkpt lat="32.6004300" lon="35.1023100">
<ele>243.520004</ele>
<time>2022-10-12T11:57:26.384Z</time>
</trkpt>
<trkpt lat="32.6003700" lon="35.1021300">
<ele>245.449997</ele>
<time>2022-10-12T11:57:26.384Z</time>
</trkpt>
<trkpt lat="32.6003000" lon="35.1019000">
<ele>248.970001</ele>
<time>2022-10-12T11:57:26.384Z</time>
</trkpt>
<trkpt lat="32.6002300" lon="35.1016800">
<ele>252.550003</ele>
<time>2022-10-12T11:57:26.384Z</time>
</trkpt>
<trkpt lat="32.6001700" lon="35.1014800">
<ele>249.929993</ele>
<time>2022-10-12T11:57:26.384Z</time>
</trkpt>
<trkpt lat="32.6001200" lon="35.1013300">
<ele>248.639999</ele>
<time>2022-10-12T11:57:26.384Z</time>
</trkpt>
<trkpt lat="32.6000900" lon="35.1012500">
<ele>249.039993</ele>
<time>2022-10-12T11:57:26.384Z</time>
</trkpt>
<trkpt lat="32.6000100" lon="35.1010800">
<ele>250.559998</ele>
<time>2022-10-12T11:57:26.384Z</time>
</trkpt>
<trkpt lat="32.5999500" lon="35.1009500">
<ele>250.460007</ele>
<time>2022-10-12T11:57:26.384Z</time>
</trkpt>
<trkpt lat="32.5999300" lon="35.1009200">
<ele>250.460007</ele>
<time>2022-10-12T11:57:26.384Z</time>
</trkpt>
<trkpt lat="32.5999000" lon="35.1008800">
<ele>250.480011</ele>
<time>2022-10-12T11:57:26.384Z</time>
</trkpt>
<trkpt lat="32.5998800" lon="35.1008700">
<ele>250.619995</ele>
<time>2022-10-12T11:57:26.384Z</time>
</trkpt>
<trkpt lat="32.5998900" lon="35.1009200">
<ele>250.939987</ele>
<time>2022-10-12T11:57:26.384Z</time>
</trkpt>
<trkpt lat="32.5999000" lon="35.1009500">
<ele>251.069992</ele>
<time>2022-10-12T11:57:26.384Z</time>
</trkpt>
<trkpt lat="32.5999000" lon="35.1009500">
<ele>251.069992</ele>
<time>2022-10-12T11:57:26.384Z</time>
</trkpt>
<trkpt lat="32.5998900" lon="35.1010300">
<ele>251.879990</ele>
<time>2022-10-12T11:57:26.384Z</time>
</trkpt>
<trkpt lat="32.5998400" lon="35.1011400">
<ele>253.319992</ele>
<time>2022-10-12T11:57:26.384Z</time>
</trkpt>
<trkpt lat="32.5997500" lon="35.1013900">
<ele>255.419998</ele>
<time>2022-10-12T11:57:26.384Z</time>
</trkpt>
<trkpt lat="32.5998800" lon="35.1015000">
<ele>254.649994</ele>
<time>2022-10-12T11:57:26.384Z</time>
</trkpt>
<trkpt lat="32.5999700" lon="35.1017800">
<ele>255.660004</ele>
<time>2022-10-12T11:57:26.385Z</time>
</trkpt>
<trkpt lat="32.6000200" lon="35.1019100">
<ele>253.899994</ele>
<time>2022-10-12T11:57:26.385Z</time>
</trkpt>
<trkpt lat="32.6001700" lon="35.1025200">
<ele>245.179993</ele>
<time>2022-10-12T11:57:26.385Z</time>
</trkpt>
<trkpt lat="32.6002100" lon="35.1029500">
<ele>243.690002</ele>
<time>2022-10-12T11:57:26.385Z</time>
</trkpt>
<trkpt lat="32.6003700" lon="35.1032500">
<ele>241.410004</ele>
<time>2022-10-12T11:57:26.385Z</time>
</trkpt>
<trkpt lat="32.6004900" lon="35.1035000">
<ele>239.270004</ele>
<time>2022-10-12T11:57:26.385Z</time>
</trkpt>
<trkpt lat="32.6005400" lon="35.1036900">
<ele>238.279999</ele>
<time>2022-10-12T11:57:26.385Z</time>
</trkpt>
<trkpt lat="32.6006000" lon="35.1039000">
<ele>238.229996</ele>
<time>2022-10-12T11:57:26.385Z</time>
</trkpt>
<trkpt lat="32.6006500" lon="35.1040800">
<ele>239.480011</ele>
<time>2022-10-12T11:57:26.385Z</time>
</trkpt>
<trkpt lat="32.6007300" lon="35.1043400">
<ele>239.930008</ele>
<time>2022-10-12T11:57:26.385Z</time>
</trkpt>
<trkpt lat="32.6008500" lon="35.1046000">
<ele>239.180008</ele>
<time>2022-10-12T11:57:26.385Z</time>
</trkpt>
<trkpt lat="32.6010200" lon="35.1047200">
<ele>237.340012</ele>
<time>2022-10-12T11:57:26.385Z</time>
</trkpt>
<trkpt lat="32.6012800" lon="35.1049700">
<ele>234.560013</ele>
<time>2022-10-12T11:57:26.385Z</time>
</trkpt>
<trkpt lat="32.6015300" lon="35.1050900">
<ele>227.610001</ele>
<time>2022-10-12T11:57:26.385Z</time>
</trkpt>
<trkpt lat="32.6015900" lon="35.1051100">
<ele>225.310013</ele>
<time>2022-10-12T11:57:26.385Z</time>
</trkpt>
<trkpt lat="32.6016700" lon="35.1051400">
<ele>222.410004</ele>
<time>2022-10-12T11:57:26.385Z</time>
</trkpt>
<trkpt lat="32.6017800" lon="35.1052100">
<ele>219.289993</ele>
<time>2022-10-12T11:57:26.385Z</time>
</trkpt>
<trkpt lat="32.6018400" lon="35.1052400">
<ele>217.679993</ele>
<time>2022-10-12T11:57:26.385Z</time>
</trkpt>
<trkpt lat="32.6019200" lon="35.1052900">
<ele>215.599991</ele>
<time>2022-10-12T11:57:26.385Z</time>
</trkpt>
<trkpt lat="32.6020600" lon="35.1054700">
<ele>215.029999</ele>
<time>2022-10-12T11:57:26.385Z</time>
</trkpt>
<trkpt lat="32.6023300" lon="35.1062800">
<ele>210.229996</ele>
<time>2022-10-12T11:57:26.385Z</time>
</trkpt>
<trkpt lat="32.6023800" lon="35.1066200">
<ele>209.410004</ele>
<time>2022-10-12T11:57:26.385Z</time>
</trkpt>
<trkpt lat="32.6023900" lon="35.1068600">
<ele>207.999985</ele>
<time>2022-10-12T11:57:26.385Z</time>
</trkpt>
<trkpt lat="32.6024600" lon="35.1070900">
<ele>206.470001</ele>
<time>2022-10-12T11:57:26.385Z</time>
</trkpt>
<trkpt lat="32.6024600" lon="35.1071000">
<ele>206.419998</ele>
<time>2022-10-12T11:57:26.385Z</time>
</trkpt>
<trkpt lat="32.6025300" lon="35.1070900">
<ele>206.370010</ele>
<time>2022-10-12T11:57:26.385Z</time>
</trkpt>
<trkpt lat="32.6028200" lon="35.1070200">
<ele>205.160004</ele>
<time>2022-10-12T11:57:26.385Z</time>
</trkpt>
<trkpt lat="32.6030500" lon="35.1069400">
<ele>204.039993</ele>
<time>2022-10-12T11:57:26.385Z</time>
</trkpt>
<trkpt lat="32.6033500" lon="35.1069000">
<ele>201.970001</ele>
<time>2022-10-12T11:57:26.385Z</time>
</trkpt>
<trkpt lat="32.6035500" lon="35.1068500">
<ele>201.199997</ele>
<time>2022-10-12T11:57:26.385Z</time>
</trkpt>
<trkpt lat="32.6036900" lon="35.1069200">
<ele>202.199997</ele>
<time>2022-10-12T11:57:26.386Z</time>
</trkpt>
<trkpt lat="32.6039200" lon="35.1070400">
<ele>207.070007</ele>
<time>2022-10-12T11:57:26.386Z</time>
</trkpt>
<trkpt lat="32.6040400" lon="35.1071100">
<ele>206.110001</ele>
<time>2022-10-12T11:57:26.386Z</time>
</trkpt>
<trkpt lat="32.6041300" lon="35.1071600">
<ele>204.350006</ele>
<time>2022-10-12T11:57:26.386Z</time>
</trkpt>
<trkpt lat="32.6042400" lon="35.1071600">
<ele>202.689987</ele>
<time>2022-10-12T11:57:26.386Z</time>
</trkpt>
<trkpt lat="32.6042900" lon="35.1072000">
<ele>202.860016</ele>
<time>2022-10-12T11:57:26.386Z</time>
</trkpt>
<trkpt lat="32.6044000" lon="35.1072200">
<ele>202.300003</ele>
<time>2022-10-12T11:57:26.386Z</time>
</trkpt>
<trkpt lat="32.6044200" lon="35.1073500">
<ele>202.620010</ele>
<time>2022-10-12T11:57:26.386Z</time>
</trkpt>
<trkpt lat="32.6047400" lon="35.1072900">
<ele>201.179993</ele>
<time>2022-10-12T11:57:26.386Z</time>
</trkpt>
<trkpt lat="32.6051700" lon="35.1074500">
<ele>207.010010</ele>
<time>2022-10-12T11:57:26.386Z</time>
</trkpt>
<trkpt lat="32.6055900" lon="35.1076800">
<ele>201.239990</ele>
<time>2022-10-12T11:57:26.386Z</time>
</trkpt>
<trkpt lat="32.6059500" lon="35.1079300">
<ele>196.710007</ele>
<time>2022-10-12T11:57:26.386Z</time>
</trkpt>
<trkpt lat="32.6063400" lon="35.1082200">
<ele>184.219986</ele>
<time>2022-10-12T11:57:26.386Z</time>
</trkpt>
<trkpt lat="32.6066300" lon="35.1088500">
<ele>178.650009</ele>
<time>2022-10-12T11:57:26.386Z</time>
</trkpt>
<trkpt lat="32.6067200" lon="35.1094800">
<ele>178.940002</ele>
<time>2022-10-12T11:57:26.386Z</time>
</trkpt>
<trkpt lat="32.6066500" lon="35.1098200">
<ele>174.919998</ele>
<time>2022-10-12T11:57:26.386Z</time>
</trkpt>
<trkpt lat="32.6065700" lon="35.1100800">
<ele>173.440002</ele>
<time>2022-10-12T11:57:26.386Z</time>
</trkpt>
<trkpt lat="32.6064800" lon="35.1104400">
<ele>168.529999</ele>
<time>2022-10-12T11:57:26.386Z</time>
</trkpt>
<trkpt lat="32.6063100" lon="35.1107300">
<ele>168.250015</ele>
<time>2022-10-12T11:57:26.386Z</time>
</trkpt>
<trkpt lat="32.6061400" lon="35.1110100">
<ele>165.460007</ele>
<time>2022-10-12T11:57:26.386Z</time>
</trkpt>
<trkpt lat="32.6060300" lon="35.1110900">
<ele>164.449997</ele>
<time>2022-10-12T11:57:26.386Z</time>
</trkpt>
<trkpt lat="32.6059000" lon="35.1112400">
<ele>164.460007</ele>
<time>2022-10-12T11:57:26.386Z</time>
</trkpt>
<trkpt lat="32.6056200" lon="35.1113300">
<ele>173.409988</ele>
<time>2022-10-12T11:57:26.386Z</time>
</trkpt>
<trkpt lat="32.6053600" lon="35.1114500">
<ele>182.209991</ele>
<time>2022-10-12T11:57:26.386Z</time>
</trkpt>
<trkpt lat="32.6051200" lon="35.1116300">
<ele>192.119995</ele>
<time>2022-10-12T11:57:26.386Z</time>
</trkpt>
<trkpt lat="32.6049800" lon="35.1123700">
<ele>183.129990</ele>
<time>2022-10-12T11:57:26.386Z</time>
</trkpt>
<trkpt lat="32.6049200" lon="35.1127000">
<ele>180.309998</ele>
<time>2022-10-12T11:57:26.386Z</time>
</trkpt>
<trkpt lat="32.6049700" lon="35.1131700">
<ele>174.629990</ele>
<time>2022-10-12T11:57:26.386Z</time>
</trkpt>
<trkpt lat="32.6049700" lon="35.1136500">
<ele>166.300003</ele>
<time>2022-10-12T11:57:26.386Z</time>
</trkpt>
<trkpt lat="32.6049200" lon="35.1140200">
<ele>162.620010</ele>
<time>2022-10-12T11:57:26.386Z</time>
</trkpt>
<trkpt lat="32.6048500" lon="35.1144000">
<ele>160.430008</ele>
<time>2022-10-12T11:57:26.387Z</time>
</trkpt>
<trkpt lat="32.6046800" lon="35.1147100">
<ele>158.930008</ele>
<time>2022-10-12T11:57:26.387Z</time>
</trkpt>
<trkpt lat="32.6044300" lon="35.1149700">
<ele>153.000000</ele>
<time>2022-10-12T11:57:26.387Z</time>
</trkpt>
<trkpt lat="32.6041000" lon="35.1150700">
<ele>163.850006</ele>
<time>2022-10-12T11:57:26.387Z</time>
</trkpt>
<trkpt lat="32.6038100" lon="35.1150700">
<ele>170.199997</ele>
<time>2022-10-12T11:57:26.387Z</time>
</trkpt>
<trkpt lat="32.6035700" lon="35.1151100">
<ele>173.369995</ele>
<time>2022-10-12T11:57:26.387Z</time>
</trkpt>
<trkpt lat="32.6032500" lon="35.1152600">
<ele>171.300003</ele>
<time>2022-10-12T11:57:26.387Z</time>
</trkpt>
<trkpt lat="32.6031500" lon="35.1155500">
<ele>168.979996</ele>
<time>2022-10-12T11:57:26.387Z</time>
</trkpt>
<trkpt lat="32.6032000" lon="35.1156900">
<ele>168.890015</ele>
<time>2022-10-12T11:57:26.387Z</time>
</trkpt>
<trkpt lat="32.6032400" lon="35.1157300">
<ele>168.679993</ele>
<time>2022-10-12T11:57:26.387Z</time>
</trkpt>
<trkpt lat="32.6034500" lon="35.1157300">
<ele>167.919998</ele>
<time>2022-10-12T11:57:26.387Z</time>
</trkpt>
<trkpt lat="32.6037300" lon="35.1157000">
<ele>166.199997</ele>
<time>2022-10-12T11:57:26.387Z</time>
</trkpt>
<trkpt lat="32.6042100" lon="35.1156700">
<ele>160.419998</ele>
<time>2022-10-12T11:57:26.387Z</time>
</trkpt>
<trkpt lat="32.6044700" lon="35.1156400">
<ele>160.919998</ele>
<time>2022-10-12T11:57:26.387Z</time>
</trkpt>
<trkpt lat="32.6047500" lon="35.1157500">
<ele>170.540009</ele>
<time>2022-10-12T11:57:26.387Z</time>
</trkpt>
<trkpt lat="32.6049200" lon="35.1158800">
<ele>173.239990</ele>
<time>2022-10-12T11:57:26.387Z</time>
</trkpt>
<trkpt lat="32.6050100" lon="35.1159300">
<ele>174.159988</ele>
<time>2022-10-12T11:57:26.387Z</time>
</trkpt>
<trkpt lat="32.6051800" lon="35.1160100">
<ele>170.660004</ele>
<time>2022-10-12T11:57:26.387Z</time>
</trkpt>
<trkpt lat="32.6053700" lon="35.1161100">
<ele>167.009995</ele>
<time>2022-10-12T11:57:26.387Z</time>
</trkpt>
<trkpt lat="32.6055900" lon="35.1162300">
<ele>171.849991</ele>
<time>2022-10-12T11:57:26.387Z</time>
</trkpt>
<trkpt lat="32.6058800" lon="35.1163700">
<ele>179.139999</ele>
<time>2022-10-12T11:57:26.387Z</time>
</trkpt>
<trkpt lat="32.6061300" lon="35.1165100">
<ele>179.139999</ele>
<time>2022-10-12T11:57:26.387Z</time>
</trkpt>
<trkpt lat="32.6063800" lon="35.1166600">
<ele>178.050003</ele>
<time>2022-10-12T11:57:26.387Z</time>
</trkpt>
<trkpt lat="32.6066400" lon="35.1168200">
<ele>184.369995</ele>
<time>2022-10-12T11:57:26.387Z</time>
</trkpt>
<trkpt lat="32.6068800" lon="35.1170300">
<ele>188.840012</ele>
<time>2022-10-12T11:57:26.387Z</time>
</trkpt>
<trkpt lat="32.6070500" lon="35.1172400">
<ele>189.350006</ele>
<time>2022-10-12T11:57:26.387Z</time>
</trkpt>
<trkpt lat="32.6071100" lon="35.1173600">
<ele>188.049988</ele>
<time>2022-10-12T11:57:26.387Z</time>
</trkpt>
<trkpt lat="32.6072200" lon="35.1175100">
<ele>183.750000</ele>
<time>2022-10-12T11:57:26.387Z</time>
</trkpt>
<trkpt lat="32.6073400" lon="35.1176000">
<ele>184.859985</ele>
<time>2022-10-12T11:57:26.387Z</time>
</trkpt>
<trkpt lat="32.6075200" lon="35.1176500">
<ele>178.869995</ele>
<time>2022-10-12T11:57:26.387Z</time>
</trkpt>
<trkpt lat="32.6077300" lon="35.1176800">
<ele>171.370010</ele>
<time>2022-10-12T11:57:26.388Z</time>
</trkpt>
<trkpt lat="32.6078700" lon="35.1177000">
<ele>168.379990</ele>
<time>2022-10-12T11:57:26.388Z</time>
</trkpt>
<trkpt lat="32.6079700" lon="35.1177000">
<ele>166.750015</ele>
<time>2022-10-12T11:57:26.388Z</time>
</trkpt>
<trkpt lat="32.6084900" lon="35.1176700">
<ele>151.730011</ele>
<time>2022-10-12T11:57:26.388Z</time>
</trkpt>
<trkpt lat="32.6087800" lon="35.1176700">
<ele>147.820007</ele>
<time>2022-10-12T11:57:26.388Z</time>
</trkpt>
<trkpt lat="32.6090300" lon="35.1177300">
<ele>146.190002</ele>
<time>2022-10-12T11:57:26.388Z</time>
</trkpt>
<trkpt lat="32.6091600" lon="35.1177600">
<ele>143.220001</ele>
<time>2022-10-12T11:57:26.388Z</time>
</trkpt>
<trkpt lat="32.6094000" lon="35.1177700">
<ele>158.449997</ele>
<time>2022-10-12T11:57:26.388Z</time>
</trkpt>
<trkpt lat="32.6095800" lon="35.1177600">
<ele>161.139999</ele>
<time>2022-10-12T11:57:26.388Z</time>
</trkpt>
<trkpt lat="32.6096800" lon="35.1177400">
<ele>160.090012</ele>
<time>2022-10-12T11:57:26.388Z</time>
</trkpt>
<trkpt lat="32.6099600" lon="35.1177500">
<ele>164.770004</ele>
<time>2022-10-12T11:57:26.388Z</time>
</trkpt>
<trkpt lat="32.6103300" lon="35.1178400">
<ele>155.260010</ele>
<time>2022-10-12T11:57:26.388Z</time>
</trkpt>
<trkpt lat="32.6106000" lon="35.1180200">
<ele>159.709991</ele>
<time>2022-10-12T11:57:26.388Z</time>
</trkpt>
<trkpt lat="32.6109700" lon="35.1183800">
<ele>173.210007</ele>
<time>2022-10-12T11:57:26.388Z</time>
</trkpt>
<trkpt lat="32.6111700" lon="35.1186200">
<ele>174.389999</ele>
<time>2022-10-12T11:57:26.388Z</time>
</trkpt>
<trkpt lat="32.6112300" lon="35.1187300">
<ele>176.160004</ele>
<time>2022-10-12T11:57:26.388Z</time>
</trkpt>
<trkpt lat="32.6112800" lon="35.1188300">
<ele>177.430008</ele>
<time>2022-10-12T11:57:26.388Z</time>
</trkpt>
<trkpt lat="32.6113900" lon="35.1191100">
<ele>178.339996</ele>
<time>2022-10-12T11:57:26.388Z</time>
</trkpt>
<trkpt lat="32.6114600" lon="35.1193400">
<ele>178.360001</ele>
<time>2022-10-12T11:57:26.388Z</time>
</trkpt>
<trkpt lat="32.6114500" lon="35.1195100">
<ele>179.169998</ele>
<time>2022-10-12T11:57:26.388Z</time>
</trkpt>
<trkpt lat="32.6113900" lon="35.1196600">
<ele>179.080002</ele>
<time>2022-10-12T11:57:26.388Z</time>
</trkpt>
<trkpt lat="32.6113400" lon="35.1197700">
<ele>178.540009</ele>
<time>2022-10-12T11:57:26.388Z</time>
</trkpt>
<trkpt lat="32.6112800" lon="35.1198800">
<ele>179.429993</ele>
<time>2022-10-12T11:57:26.388Z</time>
</trkpt>
<trkpt lat="32.6111900" lon="35.1199700">
<ele>184.330002</ele>
<time>2022-10-12T11:57:26.388Z</time>
</trkpt>
<trkpt lat="32.6111400" lon="35.1200200">
<ele>187.279999</ele>
<time>2022-10-12T11:57:26.388Z</time>
</trkpt>
<trkpt lat="32.6110700" lon="35.1200800">
<ele>189.379990</ele>
<time>2022-10-12T11:57:26.388Z</time>
</trkpt>
<trkpt lat="32.6109800" lon="35.1201200">
<ele>192.940002</ele>
<time>2022-10-12T11:57:26.388Z</time>
</trkpt>
<trkpt lat="32.6109100" lon="35.1201700">
<ele>196.000000</ele>
<time>2022-10-12T11:57:26.388Z</time>
</trkpt>
<trkpt lat="32.6108700" lon="35.1202100">
<ele>197.990005</ele>
<time>2022-10-12T11:57:26.388Z</time>
</trkpt>
<trkpt lat="32.6108400" lon="35.1202400">
<ele>199.710007</ele>
<time>2022-10-12T11:57:26.389Z</time>
</trkpt>
<trkpt lat="32.6107900" lon="35.1203800">
<ele>196.719986</ele>
<time>2022-10-12T11:57:26.389Z</time>
</trkpt>
<trkpt lat="32.6107600" lon="35.1204500">
<ele>195.090012</ele>
<time>2022-10-12T11:57:26.389Z</time>
</trkpt>
<trkpt lat="32.6107200" lon="35.1205700">
<ele>193.470001</ele>
<time>2022-10-12T11:57:26.389Z</time>
</trkpt>
<trkpt lat="32.6107000" lon="35.1206300">
<ele>195.049988</ele>
<time>2022-10-12T11:57:26.389Z</time>
</trkpt>
<trkpt lat="32.6107000" lon="35.1207400">
<ele>196.259995</ele>
<time>2022-10-12T11:57:26.389Z</time>
</trkpt>
<trkpt lat="32.6107700" lon="35.1209100">
<ele>196.229996</ele>
<time>2022-10-12T11:57:26.389Z</time>
</trkpt>
<trkpt lat="32.6108300" lon="35.1209600">
<ele>194.870010</ele>
<time>2022-10-12T11:57:26.389Z</time>
</trkpt>
<trkpt lat="32.6109800" lon="35.1210000">
<ele>187.360001</ele>
<time>2022-10-12T11:57:26.389Z</time>
</trkpt>
<trkpt lat="32.6111300" lon="35.1210700">
<ele>180.300003</ele>
<time>2022-10-12T11:57:26.389Z</time>
</trkpt>
<trkpt lat="32.6111500" lon="35.1210800">
<ele>179.460007</ele>
<time>2022-10-12T11:57:26.389Z</time>
</trkpt>
<trkpt lat="32.6113200" lon="35.1212600">
<ele>176.169998</ele>
<time>2022-10-12T11:57:26.389Z</time>
</trkpt>
<trkpt lat="32.6113600" lon="35.1213000">
<ele>175.899994</ele>
<time>2022-10-12T11:57:26.389Z</time>
</trkpt>
<trkpt lat="32.6113500" lon="35.1213200">
<ele>176.949997</ele>
<time>2022-10-12T11:57:26.389Z</time>
</trkpt>
<trkpt lat="32.6114200" lon="35.1214500">
<ele>180.059998</ele>
<time>2022-10-12T11:57:26.389Z</time>
</trkpt>
<trkpt lat="32.6114500" lon="35.1215700">
<ele>184.649994</ele>
<time>2022-10-12T11:57:26.389Z</time>
</trkpt>
<trkpt lat="32.6114300" lon="35.1215200">
<ele>183.069992</ele>
<time>2022-10-12T11:57:26.389Z</time>
</trkpt>
<trkpt lat="32.6113700" lon="35.1214400">
<ele>181.110001</ele>
<time>2022-10-12T11:57:26.389Z</time>
</trkpt>
<trkpt lat="32.6113600" lon="35.1213900">
<ele>178.990005</ele>
<time>2022-10-12T11:57:26.389Z</time>
</trkpt>
<trkpt lat="32.6113000" lon="35.1213400">
<ele>179.400009</ele>
<time>2022-10-12T11:57:26.389Z</time>
</trkpt>
<trkpt lat="32.6112300" lon="35.1213200">
<ele>181.380005</ele>
<time>2022-10-12T11:57:26.389Z</time>
</trkpt>
<trkpt lat="32.6111600" lon="35.1213200">
<ele>183.960007</ele>
<time>2022-10-12T11:57:26.389Z</time>
</trkpt>
<trkpt lat="32.6110700" lon="35.1213100">
<ele>187.100006</ele>
<time>2022-10-12T11:57:26.389Z</time>
</trkpt>
<trkpt lat="32.6109400" lon="35.1212500">
<ele>191.889999</ele>
<time>2022-10-12T11:57:26.389Z</time>
</trkpt>
<trkpt lat="32.6109100" lon="35.1212600">
<ele>193.160004</ele>
<time>2022-10-12T11:57:26.389Z</time>
</trkpt>
<trkpt lat="32.6108000" lon="35.1212500">
<ele>197.700012</ele>
<time>2022-10-12T11:57:26.389Z</time>
</trkpt>
<trkpt lat="32.6107100" lon="35.1212400">
<ele>201.110001</ele>
<time>2022-10-12T11:57:26.389Z</time>
</trkpt>
<trkpt lat="32.6106500" lon="35.1212200">
<ele>203.710007</ele>
<time>2022-10-12T11:57:26.389Z</time>
</trkpt>
<trkpt lat="32.6106200" lon="35.1213300">
<ele>202.430008</ele>
<time>2022-10-12T11:57:26.389Z</time>
</trkpt>
<trkpt lat="32.6106300" lon="35.1213800">
<ele>201.050003</ele>
<time>2022-10-12T11:57:26.389Z</time>
</trkpt>
<trkpt lat="32.6107300" lon="35.1214600">
<ele>197.690002</ele>
<time>2022-10-12T11:57:26.389Z</time>
</trkpt>
<trkpt lat="32.6108100" lon="35.1215100">
<ele>195.560013</ele>
<time>2022-10-12T11:57:26.389Z</time>
</trkpt>
<trkpt lat="32.6108900" lon="35.1215600">
<ele>194.369995</ele>
<time>2022-10-12T11:57:26.390Z</time>
</trkpt>
<trkpt lat="32.6110100" lon="35.1216200">
<ele>194.149994</ele>
<time>2022-10-12T11:57:26.390Z</time>
</trkpt>
<trkpt lat="32.6112400" lon="35.1218600">
<ele>199.500015</ele>
<time>2022-10-12T11:57:26.390Z</time>
</trkpt>
<trkpt lat="32.6114000" lon="35.1221600">
<ele>203.780014</ele>
<time>2022-10-12T11:57:26.390Z</time>
</trkpt>
<trkpt lat="32.6115600" lon="35.1223800">
<ele>202.440002</ele>
<time>2022-10-12T11:57:26.390Z</time>
</trkpt>
<trkpt lat="32.6116800" lon="35.1225300">
<ele>202.320007</ele>
<time>2022-10-12T11:57:26.390Z</time>
</trkpt>
<trkpt lat="32.6117000" lon="35.1225400">
<ele>201.709991</ele>
<time>2022-10-12T11:57:26.390Z</time>
</trkpt>
<trkpt lat="32.6118800" lon="35.1225800">
<ele>197.319992</ele>
<time>2022-10-12T11:57:26.390Z</time>
</trkpt>
<trkpt lat="32.6121500" lon="35.1225900">
<ele>194.929993</ele>
<time>2022-10-12T11:57:26.390Z</time>
</trkpt>
<trkpt lat="32.6123300" lon="35.1225800">
<ele>194.610001</ele>
<time>2022-10-12T11:57:26.390Z</time>
</trkpt>
<trkpt lat="32.6125300" lon="35.1226300">
<ele>197.469986</ele>
<time>2022-10-12T11:57:26.390Z</time>
</trkpt>
<trkpt lat="32.6127200" lon="35.1227300">
<ele>202.949997</ele>
<time>2022-10-12T11:57:26.390Z</time>
</trkpt>
<trkpt lat="32.6127900" lon="35.1227700">
<ele>203.889999</ele>
<time>2022-10-12T11:57:26.390Z</time>
</trkpt>
<trkpt lat="32.6130100" lon="35.1227700">
<ele>202.320007</ele>
<time>2022-10-12T11:57:26.390Z</time>
</trkpt>
<trkpt lat="32.6131400" lon="35.1226900">
<ele>202.500000</ele>
<time>2022-10-12T11:57:26.390Z</time>
</trkpt>
<trkpt lat="32.6134700" lon="35.1225000">
<ele>207.950012</ele>
<time>2022-10-12T11:57:26.390Z</time>
</trkpt>
<trkpt lat="32.6136900" lon="35.1225200">
<ele>209.850006</ele>
<time>2022-10-12T11:57:26.390Z</time>
</trkpt>
<trkpt lat="32.6139700" lon="35.1226700">
<ele>205.660004</ele>
<time>2022-10-12T11:57:26.390Z</time>
</trkpt>
<trkpt lat="32.6141900" lon="35.1228200">
<ele>200.270004</ele>
<time>2022-10-12T11:57:26.390Z</time>
</trkpt>
<trkpt lat="32.6143100" lon="35.1231300">
<ele>199.410004</ele>
<time>2022-10-12T11:57:26.390Z</time>
</trkpt>
<trkpt lat="32.6145300" lon="35.1235000">
<ele>201.980011</ele>
<time>2022-10-12T11:57:26.390Z</time>
</trkpt>
<trkpt lat="32.6147000" lon="35.1236900">
<ele>201.139999</ele>
<time>2022-10-12T11:57:26.390Z</time>
</trkpt>
<trkpt lat="32.6148800" lon="35.1238600">
<ele>200.249985</ele>
<time>2022-10-12T11:57:26.390Z</time>
</trkpt>
<trkpt lat="32.6148900" lon="35.1238800">
<ele>200.339996</ele>
<time>2022-10-12T11:57:26.390Z</time>
</trkpt>
<trkpt lat="32.6149400" lon="35.1239100">
<ele>199.970001</ele>
<time>2022-10-12T11:57:26.390Z</time>
</trkpt>
<trkpt lat="32.6149500" lon="35.1239200">
<ele>199.820007</ele>
<time>2022-10-12T11:57:26.390Z</time>
</trkpt>
<trkpt lat="32.6150100" lon="35.1238800">
<ele>199.860001</ele>
<time>2022-10-12T11:57:26.390Z</time>
</trkpt>
<trkpt lat="32.6152800" lon="35.1237600">
<ele>195.750000</ele>
<time>2022-10-12T11:57:26.390Z</time>
</trkpt>
<trkpt lat="32.6154600" lon="35.1236200">
<ele>192.840012</ele>
<time>2022-10-12T11:57:26.391Z</time>
</trkpt>
<trkpt lat="32.6154800" lon="35.1237500">
<ele>195.500000</ele>
<time>2022-10-12T11:57:26.391Z</time>
</trkpt>
<trkpt lat="32.6154700" lon="35.1238000">
<ele>196.509995</ele>
<time>2022-10-12T11:57:26.391Z</time>
</trkpt>
<trkpt lat="32.6154300" lon="35.1239200">
<ele>198.289993</ele>
<time>2022-10-12T11:57:26.391Z</time>
</trkpt>
<trkpt lat="32.6152100" lon="35.1241900">
<ele>196.559998</ele>
<time>2022-10-12T11:57:26.391Z</time>
</trkpt>
<trkpt lat="32.6152800" lon="35.1243200">
<ele>193.669998</ele>
<time>2022-10-12T11:57:26.391Z</time>
</trkpt>
<trkpt lat="32.6153100" lon="35.1243000">
<ele>193.949997</ele>
<time>2022-10-12T11:57:26.391Z</time>
</trkpt>
<trkpt lat="32.6155700" lon="35.1241700">
<ele>196.319992</ele>
<time>2022-10-12T11:57:26.391Z</time>
</trkpt>
<trkpt lat="32.6157100" lon="35.1240800">
<ele>192.580002</ele>
<time>2022-10-12T11:57:26.391Z</time>
</trkpt>
<trkpt lat="32.6157200" lon="35.1239800">
<ele>194.340012</ele>
<time>2022-10-12T11:57:26.391Z</time>
</trkpt>
<trkpt lat="32.6157600" lon="35.1238900">
<ele>195.759995</ele>
<time>2022-10-12T11:57:26.391Z</time>
</trkpt>
<trkpt lat="32.6158100" lon="35.1238800">
<ele>195.300003</ele>
<time>2022-10-12T11:57:26.391Z</time>
</trkpt>
<trkpt lat="32.6159100" lon="35.1238700">
<ele>194.349991</ele>
<time>2022-10-12T11:57:26.391Z</time>
</trkpt>
<trkpt lat="32.6159400" lon="35.1238700">
<ele>194.040009</ele>
<time>2022-10-12T11:57:26.391Z</time>
</trkpt>
<trkpt lat="32.6159600" lon="35.1238800">
<ele>193.729996</ele>
<time>2022-10-12T11:57:26.391Z</time>
</trkpt>
<trkpt lat="32.6160300" lon="35.1238900">
<ele>192.830002</ele>
<time>2022-10-12T11:57:26.391Z</time>
</trkpt>
<trkpt lat="32.6161300" lon="35.1238900">
<ele>191.819992</ele>
<time>2022-10-12T11:57:26.391Z</time>
</trkpt>
<trkpt lat="32.6161500" lon="35.1238900">
<ele>191.680008</ele>
<time>2022-10-12T11:57:26.391Z</time>
</trkpt>
<trkpt lat="32.6162900" lon="35.1239100">
<ele>190.189987</ele>
<time>2022-10-12T11:57:26.391Z</time>
</trkpt>
<trkpt lat="32.6163800" lon="35.1239600">
<ele>188.969986</ele>
<time>2022-10-12T11:57:26.391Z</time>
</trkpt>
<trkpt lat="32.6164200" lon="35.1239500">
<ele>189.520004</ele>
<time>2022-10-12T11:57:26.391Z</time>
</trkpt>
<trkpt lat="32.6165700" lon="35.1240000">
<ele>190.489990</ele>
<time>2022-10-12T11:57:26.391Z</time>
</trkpt>
<trkpt lat="32.6166500" lon="35.1240700">
<ele>189.930008</ele>
<time>2022-10-12T11:57:26.391Z</time>
</trkpt>
<trkpt lat="32.6167100" lon="35.1242000">
<ele>189.639999</ele>
<time>2022-10-12T11:57:26.391Z</time>
</trkpt>
<trkpt lat="32.6167300" lon="35.1242400">
<ele>190.419998</ele>
<time>2022-10-12T11:57:26.391Z</time>
</trkpt>
<trkpt lat="32.6168300" lon="35.1242600">
<ele>193.820007</ele>
<time>2022-10-12T11:57:26.391Z</time>
</trkpt>
<trkpt lat="32.6169200" lon="35.1242200">
<ele>196.959991</ele>
<time>2022-10-12T11:57:26.391Z</time>
</trkpt>
<trkpt lat="32.6170000" lon="35.1241100">
<ele>201.120010</ele>
<time>2022-10-12T11:57:26.391Z</time>
</trkpt>
<trkpt lat="32.6170100" lon="35.1240600">
<ele>201.660004</ele>
<time>2022-10-12T11:57:26.391Z</time>
</trkpt>
<trkpt lat="32.6170200" lon="35.1240300">
<ele>202.260010</ele>
<time>2022-10-12T11:57:26.391Z</time>
</trkpt>
<trkpt lat="32.6170700" lon="35.1239700">
<ele>205.479996</ele>
<time>2022-10-12T11:57:26.392Z</time>
</trkpt>
<trkpt lat="32.6170900" lon="35.1239600">
<ele>206.809998</ele>
<time>2022-10-12T11:57:26.392Z</time>
</trkpt>
<trkpt lat="32.6172000" lon="35.1238700">
<ele>214.460007</ele>
<time>2022-10-12T11:57:26.392Z</time>
</trkpt>
<trkpt lat="32.6172500" lon="35.1238000">
<ele>215.879990</ele>
<time>2022-10-12T11:57:26.392Z</time>
</trkpt>
<trkpt lat="32.6172600" lon="35.1237900">
<ele>215.919998</ele>
<time>2022-10-12T11:57:26.392Z</time>
</trkpt>
<trkpt lat="32.6173400" lon="35.1237100">
<ele>216.199997</ele>
<time>2022-10-12T11:57:26.392Z</time>
</trkpt>
<trkpt lat="32.6174100" lon="35.1235600">
<ele>215.690002</ele>
<time>2022-10-12T11:57:26.392Z</time>
</trkpt>
<trkpt lat="32.6175100" lon="35.1234700">
<ele>216.069992</ele>
<time>2022-10-12T11:57:26.392Z</time>
</trkpt>
<trkpt lat="32.6176700" lon="35.1233300">
<ele>216.809998</ele>
<time>2022-10-12T11:57:26.392Z</time>
</trkpt>
<trkpt lat="32.6177100" lon="35.1233100">
<ele>217.139999</ele>
<time>2022-10-12T11:57:26.392Z</time>
</trkpt>
<trkpt lat="32.6178000" lon="35.1233400">
<ele>218.019989</ele>
<time>2022-10-12T11:57:26.392Z</time>
</trkpt>
<trkpt lat="32.6177700" lon="35.1234500">
<ele>218.350006</ele>
<time>2022-10-12T11:57:26.392Z</time>
</trkpt>
<trkpt lat="32.6177600" lon="35.1234900">
<ele>218.410004</ele>
<time>2022-10-12T11:57:26.392Z</time>
</trkpt>
<trkpt lat="32.6177400" lon="35.1235700">
<ele>218.559998</ele>
<time>2022-10-12T11:57:26.392Z</time>
</trkpt>
<trkpt lat="32.6176400" lon="35.1237400">
<ele>217.770004</ele>
<time>2022-10-12T11:57:26.392Z</time>
</trkpt>
<trkpt lat="32.6175600" lon="35.1238500">
<ele>217.729996</ele>
<time>2022-10-12T11:57:26.392Z</time>
</trkpt>
<trkpt lat="32.6175200" lon="35.1240500">
<ele>219.630005</ele>
<time>2022-10-12T11:57:26.392Z</time>
</trkpt>
<trkpt lat="32.6175300" lon="35.1240900">
<ele>219.989990</ele>
<time>2022-10-12T11:57:26.392Z</time>
</trkpt>
<trkpt lat="32.6175500" lon="35.1243100">
<ele>217.070007</ele>
<time>2022-10-12T11:57:26.392Z</time>
</trkpt>
<trkpt lat="32.6175800" lon="35.1243600">
<ele>216.059998</ele>
<time>2022-10-12T11:57:26.392Z</time>
</trkpt>
<trkpt lat="32.6176600" lon="35.1245500">
<ele>214.600006</ele>
<time>2022-10-12T11:57:26.392Z</time>
</trkpt>
<trkpt lat="32.6176700" lon="35.1245900">
<ele>214.520004</ele>
<time>2022-10-12T11:57:26.392Z</time>
</trkpt>
<trkpt lat="32.6176100" lon="35.1247400">
<ele>212.270004</ele>
<time>2022-10-12T11:57:26.392Z</time>
</trkpt>
<trkpt lat="32.6176000" lon="35.1248400">
<ele>211.550003</ele>
<time>2022-10-12T11:57:26.392Z</time>
</trkpt>
<trkpt lat="32.6175700" lon="35.1251700">
<ele>209.440002</ele>
<time>2022-10-12T11:57:26.392Z</time>
</trkpt>
<trkpt lat="32.6175600" lon="35.1252100">
<ele>208.980011</ele>
<time>2022-10-12T11:57:26.392Z</time>
</trkpt>
<trkpt lat="32.6174800" lon="35.1254900">
<ele>208.440002</ele>
<time>2022-10-12T11:57:26.392Z</time>
</trkpt>
<trkpt lat="32.6173700" lon="35.1255700">
<ele>208.640015</ele>
<time>2022-10-12T11:57:26.392Z</time>
</trkpt>
<trkpt lat="32.6174300" lon="35.1258700">
<ele>210.720001</ele>
<time>2022-10-12T11:57:26.392Z</time>
</trkpt>
<trkpt lat="32.6174600" lon="35.1260600">
<ele>210.389999</ele>
<time>2022-10-12T11:57:26.392Z</time>
</trkpt>
<trkpt lat="32.6175700" lon="35.1261900">
<ele>209.720001</ele>
<time>2022-10-12T11:57:26.392Z</time>
</trkpt>
<trkpt lat="32.6175900" lon="35.1262100">
<ele>209.589996</ele>
<time>2022-10-12T11:57:26.392Z</time>
</trkpt>
<trkpt lat="32.6176300" lon="35.1263300">
<ele>208.250000</ele>
<time>2022-10-12T11:57:26.393Z</time>
</trkpt>
<trkpt lat="32.6176800" lon="35.1264700">
<ele>206.779999</ele>
<time>2022-10-12T11:57:26.393Z</time>
</trkpt>
<trkpt lat="32.6178400" lon="35.1264900">
<ele>205.440002</ele>
<time>2022-10-12T11:57:26.393Z</time>
</trkpt>
<trkpt lat="32.6178900" lon="35.1263300">
<ele>207.570007</ele>
<time>2022-10-12T11:57:26.393Z</time>
</trkpt>
<trkpt lat="32.6179200" lon="35.1262600">
<ele>208.570007</ele>
<time>2022-10-12T11:57:26.393Z</time>
</trkpt>
<trkpt lat="32.6180200" lon="35.1260700">
<ele>210.389999</ele>
<time>2022-10-12T11:57:26.393Z</time>
</trkpt>
<trkpt lat="32.6180800" lon="35.1259300">
<ele>210.300003</ele>
<time>2022-10-12T11:57:26.393Z</time>
</trkpt>
<trkpt lat="32.6182200" lon="35.1258500">
<ele>209.059998</ele>
<time>2022-10-12T11:57:26.393Z</time>
</trkpt>
<trkpt lat="32.6184200" lon="35.1257900">
<ele>209.029999</ele>
<time>2022-10-12T11:57:26.393Z</time>
</trkpt>
<trkpt lat="32.6186400" lon="35.1257500">
<ele>210.959991</ele>
<time>2022-10-12T11:57:26.393Z</time>
</trkpt>
<trkpt lat="32.6186800" lon="35.1256300">
<ele>212.250000</ele>
<time>2022-10-12T11:57:26.393Z</time>
</trkpt>
<trkpt lat="32.6186400" lon="35.1255900">
<ele>213.199997</ele>
<time>2022-10-12T11:57:26.393Z</time>
</trkpt>
<trkpt lat="32.6186000" lon="35.1255800">
<ele>213.499985</ele>
<time>2022-10-12T11:57:26.393Z</time>
</trkpt>
<trkpt lat="32.6184600" lon="35.1255400">
<ele>212.029999</ele>
<time>2022-10-12T11:57:26.393Z</time>
</trkpt>
<trkpt lat="32.6184000" lon="35.1255100">
<ele>211.659988</ele>
<time>2022-10-12T11:57:26.393Z</time>
</trkpt>
<trkpt lat="32.6182800" lon="35.1255500">
<ele>210.110001</ele>
<time>2022-10-12T11:57:26.393Z</time>
</trkpt>
<trkpt lat="32.6182400" lon="35.1255600">
<ele>209.979996</ele>
<time>2022-10-12T11:57:26.393Z</time>
</trkpt>
<trkpt lat="32.6181700" lon="35.1255000">
<ele>211.350006</ele>
<time>2022-10-12T11:57:26.393Z</time>
</trkpt>
<trkpt lat="32.6181700" lon="35.1253800">
<ele>214.269989</ele>
<time>2022-10-12T11:57:26.393Z</time>
</trkpt>
<trkpt lat="32.6181700" lon="35.1253400">
<ele>215.250000</ele>
<time>2022-10-12T11:57:26.393Z</time>
</trkpt>
<trkpt lat="32.6181600" lon="35.1252400">
<ele>217.279999</ele>
<time>2022-10-12T11:57:26.393Z</time>
</trkpt>
<trkpt lat="32.6182300" lon="35.1250800">
<ele>218.250015</ele>
<time>2022-10-12T11:57:26.393Z</time>
</trkpt>
<trkpt lat="32.6183100" lon="35.1250400">
<ele>217.820007</ele>
<time>2022-10-12T11:57:26.393Z</time>
</trkpt>
<trkpt lat="32.6184400" lon="35.1248800">
<ele>218.149994</ele>
<time>2022-10-12T11:57:26.393Z</time>
</trkpt>
<trkpt lat="32.6185900" lon="35.1248200">
<ele>217.169998</ele>
<time>2022-10-12T11:57:26.393Z</time>
</trkpt>
<trkpt lat="32.6187300" lon="35.1248600">
<ele>217.220001</ele>
<time>2022-10-12T11:57:26.393Z</time>
</trkpt>
<trkpt lat="32.6189400" lon="35.1249400">
<ele>217.260010</ele>
<time>2022-10-12T11:57:26.393Z</time>
</trkpt>
<trkpt lat="32.6189800" lon="35.1249900">
<ele>217.050003</ele>
<time>2022-10-12T11:57:26.393Z</time>
</trkpt>
<trkpt lat="32.6190700" lon="35.1251400">
<ele>215.839996</ele>
<time>2022-10-12T11:57:26.393Z</time>
</trkpt>
<trkpt lat="32.6191700" lon="35.1253300">
<ele>213.009995</ele>
<time>2022-10-12T11:57:26.393Z</time>
</trkpt>
<trkpt lat="32.6192100" lon="35.1255000">
<ele>209.380005</ele>
<time>2022-10-12T11:57:26.393Z</time>
</trkpt>
<trkpt lat="32.6192800" lon="35.1257800">
<ele>200.389999</ele>
<time>2022-10-12T11:57:26.394Z</time>
</trkpt>
<trkpt lat="32.6193000" lon="35.1258200">
<ele>198.589996</ele>
<time>2022-10-12T11:57:26.394Z</time>
</trkpt>
<trkpt lat="32.6193800" lon="35.1259000">
<ele>194.839996</ele>
<time>2022-10-12T11:57:26.394Z</time>
</trkpt>
<trkpt lat="32.6194400" lon="35.1259300">
<ele>192.730011</ele>
<time>2022-10-12T11:57:26.394Z</time>
</trkpt>
<trkpt lat="32.6195100" lon="35.1260600">
<ele>191.380005</ele>
<time>2022-10-12T11:57:26.394Z</time>
</trkpt>
<trkpt lat="32.6195300" lon="35.1260800">
<ele>191.440002</ele>
<time>2022-10-12T11:57:26.394Z</time>
</trkpt>
<trkpt lat="32.6197800" lon="35.1262600">
<ele>190.069992</ele>
<time>2022-10-12T11:57:26.394Z</time>
</trkpt>
<trkpt lat="32.6198900" lon="35.1263500">
<ele>186.079987</ele>
<time>2022-10-12T11:57:26.394Z</time>
</trkpt>
<trkpt lat="32.6200700" lon="35.1267200">
<ele>188.009995</ele>
<time>2022-10-12T11:57:26.394Z</time>
</trkpt>
<trkpt lat="32.6202200" lon="35.1269200">
<ele>187.289993</ele>
<time>2022-10-12T11:57:26.394Z</time>
</trkpt>
<trkpt lat="32.6204200" lon="35.1272700">
<ele>181.909988</ele>
<time>2022-10-12T11:57:26.394Z</time>
</trkpt>
<trkpt lat="32.6205100" lon="35.1273600">
<ele>179.330002</ele>
<time>2022-10-12T11:57:26.394Z</time>
</trkpt>
<trkpt lat="32.6207900" lon="35.1275900">
<ele>172.189987</ele>
<time>2022-10-12T11:57:26.394Z</time>
</trkpt>
<trkpt lat="32.6210000" lon="35.1278300">
<ele>168.420013</ele>
<time>2022-10-12T11:57:26.394Z</time>
</trkpt>
<trkpt lat="32.6210300" lon="35.1279600">
<ele>166.920013</ele>
<time>2022-10-12T11:57:26.394Z</time>
</trkpt>
<trkpt lat="32.6210800" lon="35.1281800">
<ele>165.729996</ele>
<time>2022-10-12T11:57:26.394Z</time>
</trkpt>
<trkpt lat="32.6211500" lon="35.1283700">
<ele>165.919998</ele>
<time>2022-10-12T11:57:26.394Z</time>
</trkpt>
<trkpt lat="32.6212700" lon="35.1285700">
<ele>163.119995</ele>
<time>2022-10-12T11:57:26.394Z</time>
</trkpt>
<trkpt lat="32.6212800" lon="35.1286300">
<ele>162.770004</ele>
<time>2022-10-12T11:57:26.394Z</time>
</trkpt>
<trkpt lat="32.6212800" lon="35.1287500">
<ele>161.570007</ele>
<time>2022-10-12T11:57:26.394Z</time>
</trkpt>
<trkpt lat="32.6214600" lon="35.1291600">
<ele>155.800003</ele>
<time>2022-10-12T11:57:26.394Z</time>
</trkpt>
<trkpt lat="32.6215200" lon="35.1292200">
<ele>154.660004</ele>
<time>2022-10-12T11:57:26.394Z</time>
</trkpt>
<trkpt lat="32.6217900" lon="35.1295100">
<ele>149.720001</ele>
<time>2022-10-12T11:57:26.394Z</time>
</trkpt>
<trkpt lat="32.6218100" lon="35.1295300">
<ele>149.520004</ele>
<time>2022-10-12T11:57:26.394Z</time>
</trkpt>
<trkpt lat="32.6218100" lon="35.1295300">
<ele>149.520004</ele>
<time>2022-10-12T11:57:26.395Z</time>
</trkpt>
<trkpt lat="32.6218200" lon="35.1295300">
<ele>149.479996</ele>
<time>2022-10-12T11:57:26.395Z</time>
</trkpt>
<trkpt lat="32.6218000" lon="35.1295400">
<ele>149.500000</ele>
<time>2022-10-12T11:57:26.395Z</time>
</trkpt>
<trkpt lat="32.6218000" lon="35.1295400">
<ele>149.500000</ele>
<time>2022-10-12T11:57:26.395Z</time>
</trkpt>
<trkpt lat="32.6218500" lon="35.1297000">
<ele>148.740005</ele>
<time>2022-10-12T11:57:26.395Z</time>
</trkpt>
<trkpt lat="32.6219200" lon="35.1298000">
<ele>147.229996</ele>
<time>2022-10-12T11:57:26.395Z</time>
</trkpt>
<trkpt lat="32.6219900" lon="35.1300800">
<ele>140.900009</ele>
<time>2022-10-12T11:57:26.395Z</time>
</trkpt>
<trkpt lat="32.6221400" lon="35.1302400">
<ele>138.650009</ele>
<time>2022-10-12T11:57:26.395Z</time>
</trkpt>
<trkpt lat="32.6221700" lon="35.1303700">
<ele>136.569992</ele>
<time>2022-10-12T11:57:26.395Z</time>
</trkpt>
<trkpt lat="32.6221700" lon="35.1303700">
<ele>136.569992</ele>
<time>2022-10-12T11:57:26.395Z</time>
</trkpt>
<trkpt lat="32.6221800" lon="35.1303800">
<ele>136.429993</ele>
<time>2022-10-12T11:57:26.395Z</time>
</trkpt>
<trkpt lat="32.6220600" lon="35.1305100">
<ele>132.330002</ele>
<time>2022-10-12T11:57:26.395Z</time>
</trkpt>
<trkpt lat="32.6219600" lon="35.1306700">
<ele>128.059998</ele>
<time>2022-10-12T11:57:26.395Z</time>
</trkpt>
<trkpt lat="32.6219700" lon="35.1310500">
<ele>123.390007</ele>
<time>2022-10-12T11:57:26.395Z</time>
</trkpt>
<trkpt lat="32.6221900" lon="35.1311700">
<ele>121.079994</ele>
<time>2022-10-12T11:57:26.395Z</time>
</trkpt>
<trkpt lat="32.6222300" lon="35.1312400">
<ele>119.650002</ele>
<time>2022-10-12T11:57:26.395Z</time>
</trkpt>
<trkpt lat="32.6223700" lon="35.1314400">
<ele>115.739998</ele>
<time>2022-10-12T11:57:26.395Z</time>
</trkpt>
<trkpt lat="32.6223600" lon="35.1317500">
<ele>111.739998</ele>
<time>2022-10-12T11:57:26.395Z</time>
</trkpt>
<trkpt lat="32.6222400" lon="35.1319900">
<ele>107.459999</ele>
<time>2022-10-12T11:57:26.395Z</time>
</trkpt>
<trkpt lat="32.6221600" lon="35.1321200">
<ele>104.309998</ele>
<time>2022-10-12T11:57:26.395Z</time>
</trkpt>
<trkpt lat="32.6219000" lon="35.1322300">
<ele>101.120003</ele>
<time>2022-10-12T11:57:26.395Z</time>
</trkpt>
<trkpt lat="32.6214100" lon="35.1321200">
<ele>103.440002</ele>
<time>2022-10-12T11:57:26.396Z</time>
</trkpt>
<trkpt lat="32.6211600" lon="35.1321400">
<ele>102.120003</ele>
<time>2022-10-12T11:57:26.396Z</time>
</trkpt>
<trkpt lat="32.6209600" lon="35.1320800">
<ele>103.880005</ele>
<time>2022-10-12T11:57:26.396Z</time>
</trkpt>
<trkpt lat="32.6207700" lon="35.1321800">
<ele>105.679993</ele>
<time>2022-10-12T11:57:26.396Z</time>
</trkpt>
<trkpt lat="32.6210000" lon="35.1323500">
<ele>103.610001</ele>
<time>2022-10-12T11:57:26.396Z</time>
</trkpt>
<trkpt lat="32.6210700" lon="35.1323600">
<ele>102.929993</ele>
<time>2022-10-12T11:57:26.396Z</time>
</trkpt>
<trkpt lat="32.6213300" lon="35.1324600">
<ele>102.329994</ele>
<time>2022-10-12T11:57:26.396Z</time>
</trkpt>
<trkpt lat="32.6217200" lon="35.1328100">
<ele>100.580002</ele>
<time>2022-10-12T11:57:26.396Z</time>
</trkpt>
<trkpt lat="32.6221100" lon="35.1333100">
<ele>99.310005</ele>
<time>2022-10-12T11:57:26.396Z</time>
</trkpt>
<trkpt lat="32.6224600" lon="35.1339500">
<ele>97.099998</ele>
<time>2022-10-12T11:57:26.396Z</time>
</trkpt>
<trkpt lat="32.6225000" lon="35.1340400">
<ele>96.459999</ele>
<time>2022-10-12T11:57:26.396Z</time>
</trkpt>
<trkpt lat="32.6230000" lon="35.1346200">
<ele>89.080002</ele>
<time>2022-10-12T11:57:26.396Z</time>
</trkpt>
<trkpt lat="32.6233000" lon="35.1349400">
<ele>84.360001</ele>
<time>2022-10-12T11:57:26.396Z</time>
</trkpt>
<trkpt lat="32.6235800" lon="35.1350800">
<ele>80.620003</ele>
<time>2022-10-12T11:57:26.396Z</time>
</trkpt>
<trkpt lat="32.6239500" lon="35.1349600">
<ele>83.820000</ele>
<time>2022-10-12T11:57:26.396Z</time>
</trkpt>
<trkpt lat="32.6241800" lon="35.1347800">
<ele>82.649994</ele>
<time>2022-10-12T11:57:26.397Z</time>
</trkpt>
<trkpt lat="32.6242700" lon="35.1347200">
<ele>82.619995</ele>
<time>2022-10-12T11:57:26.397Z</time>
</trkpt>
<trkpt lat="32.6243300" lon="35.1345800">
<ele>81.810005</ele>
<time>2022-10-12T11:57:26.397Z</time>
</trkpt>
<trkpt lat="32.6244800" lon="35.1344700">
<ele>79.299995</ele>
<time>2022-10-12T11:57:26.397Z</time>
</trkpt>
<trkpt lat="32.6246400" lon="35.1343600">
<ele>74.190002</ele>
<time>2022-10-12T11:57:26.397Z</time>
</trkpt>
<trkpt lat="32.6247100" lon="35.1342900">
<ele>72.119995</ele>
<time>2022-10-12T11:57:26.397Z</time>
</trkpt>
<trkpt lat="32.6248300" lon="35.1341500">
<ele>69.410004</ele>
<time>2022-10-12T11:57:26.397Z</time>
</trkpt>
<trkpt lat="32.6249500" lon="35.1340500">
<ele>67.639999</ele>
<time>2022-10-12T11:57:26.397Z</time>
</trkpt>
<trkpt lat="32.6255000" lon="35.1336000">
<ele>72.000000</ele>
<time>2022-10-12T11:57:26.397Z</time>
</trkpt>
<trkpt lat="32.6257100" lon="35.1334500">
<ele>71.940002</ele>
<time>2022-10-12T11:57:26.397Z</time>
</trkpt>
<trkpt lat="32.6260200" lon="35.1332400">
<ele>69.199997</ele>
<time>2022-10-12T11:57:26.397Z</time>
</trkpt>
<trkpt lat="32.6262600" lon="35.1331100">
<ele>63.310001</ele>
<time>2022-10-12T11:57:26.397Z</time>
</trkpt>
<trkpt lat="32.6266200" lon="35.1328300">
<ele>56.840000</ele>
<time>2022-10-12T11:57:26.397Z</time>
</trkpt>
<trkpt lat="32.6268400" lon="35.1326900">
<ele>54.300003</ele>
<time>2022-10-12T11:57:26.397Z</time>
</trkpt>
<trkpt lat="32.6269800" lon="35.1326600">
<ele>52.070000</ele>
<time>2022-10-12T11:57:26.397Z</time>
</trkpt>
<trkpt lat="32.6270100" lon="35.1326300">
<ele>52.079998</ele>
<time>2022-10-12T11:57:26.397Z</time>
</trkpt>
<trkpt lat="32.6270200" lon="35.1326300">
<ele>51.999996</ele>
<time>2022-10-12T11:57:26.397Z</time>
</trkpt>
<trkpt lat="32.6270200" lon="35.1326300">
<ele>51.999996</ele>
<time>2022-10-12T11:57:26.397Z</time>
</trkpt>
<trkpt lat="32.6270200" lon="35.1326300">
<ele>51.999996</ele>
<time>2022-10-12T11:57:26.397Z</time>
</trkpt>
<trkpt lat="32.6270200" lon="35.1326400">
<ele>51.950001</ele>
<time>2022-10-12T11:57:26.397Z</time>
</trkpt>
<trkpt lat="32.6271300" lon="35.1325700">
<ele>50.910000</ele>
<time>2022-10-12T11:57:26.397Z</time>
</trkpt>
<trkpt lat="32.6274200" lon="35.1323100">
<ele>55.110001</ele>
<time>2022-10-12T11:57:26.397Z</time>
</trkpt>
<trkpt lat="32.6276100" lon="35.1319800">
<ele>59.820000</ele>
<time>2022-10-12T11:57:26.397Z</time>
</trkpt>
<trkpt lat="32.6276700" lon="35.1317700">
<ele>62.389999</ele>
<time>2022-10-12T11:57:26.397Z</time>
</trkpt>
<trkpt lat="32.6276700" lon="35.1317600">
<ele>62.540001</ele>
<time>2022-10-12T11:57:26.397Z</time>
</trkpt>
<trkpt lat="32.6276100" lon="35.1316700">
<ele>64.959999</ele>
<time>2022-10-12T11:57:26.398Z</time>
</trkpt>
<trkpt lat="32.6276000" lon="35.1315800">
<ele>67.779999</ele>
<time>2022-10-12T11:57:26.398Z</time>
</trkpt>
<trkpt lat="32.6277000" lon="35.1314800">
<ele>68.480003</ele>
<time>2022-10-12T11:57:26.398Z</time>
</trkpt>
<trkpt lat="32.6277000" lon="35.1313700">
<ele>71.339996</ele>
<time>2022-10-12T11:57:26.398Z</time>
</trkpt>
<trkpt lat="32.6276400" lon="35.1313300">
<ele>73.430000</ele>
<time>2022-10-12T11:57:26.398Z</time>
</trkpt>
<trkpt lat="32.6275800" lon="35.1312700">
<ele>75.459999</ele>
<time>2022-10-12T11:57:26.398Z</time>
</trkpt>
<trkpt lat="32.6275200" lon="35.1312300">
<ele>76.849998</ele>
<time>2022-10-12T11:57:26.398Z</time>
</trkpt>
<trkpt lat="32.6274800" lon="35.1311900">
<ele>77.389999</ele>
<time>2022-10-12T11:57:26.398Z</time>
</trkpt>
<trkpt lat="32.6274800" lon="35.1311900">
<ele>77.389999</ele>
<time>2022-10-12T11:57:26.398Z</time>
</trkpt>
<trkpt lat="32.6274000" lon="35.1311100">
<ele>78.020004</ele>
<time>2022-10-12T11:57:26.398Z</time>
</trkpt>
<trkpt lat="32.6273000" lon="35.1309800">
<ele>79.889999</ele>
<time>2022-10-12T11:57:26.398Z</time>
</trkpt>
<trkpt lat="32.6272100" lon="35.1307900">
<ele>82.279999</ele>
<time>2022-10-12T11:57:26.398Z</time>
</trkpt>
<trkpt lat="32.6271200" lon="35.1305800">
<ele>84.129997</ele>
<time>2022-10-12T11:57:26.398Z</time>
</trkpt>
<trkpt lat="32.6270300" lon="35.1304400">
<ele>87.029999</ele>
<time>2022-10-12T11:57:26.398Z</time>
</trkpt>
<trkpt lat="32.6269600" lon="35.1303200">
<ele>89.279999</ele>
<time>2022-10-12T11:57:26.398Z</time>
</trkpt>
<trkpt lat="32.6268500" lon="35.1301400">
<ele>93.120003</ele>
<time>2022-10-12T11:57:26.398Z</time>
</trkpt>
<trkpt lat="32.6267500" lon="35.1300300">
<ele>95.110001</ele>
<time>2022-10-12T11:57:26.398Z</time>
</trkpt>
<trkpt lat="32.6266400" lon="35.1299400">
<ele>96.900002</ele>
<time>2022-10-12T11:57:26.398Z</time>
</trkpt>
<trkpt lat="32.6266300" lon="35.1299400">
<ele>96.889999</ele>
<time>2022-10-12T11:57:26.398Z</time>
</trkpt>
<trkpt lat="32.6265700" lon="35.1299100">
<ele>97.690002</ele>
<time>2022-10-12T11:57:26.398Z</time>
</trkpt>
<trkpt lat="32.6264100" lon="35.1298000">
<ele>100.150002</ele>
<time>2022-10-12T11:57:26.398Z</time>
</trkpt>
<trkpt lat="32.6262900" lon="35.1296300">
<ele>100.530006</ele>
<time>2022-10-12T11:57:26.398Z</time>
</trkpt>
<trkpt lat="32.6262100" lon="35.1294500">
<ele>101.349998</ele>
<time>2022-10-12T11:57:26.398Z</time>
</trkpt>
<trkpt lat="32.6261600" lon="35.1293300">
<ele>103.180000</ele>
<time>2022-10-12T11:57:26.398Z</time>
</trkpt>
<trkpt lat="32.6261000" lon="35.1291300">
<ele>106.510002</ele>
<time>2022-10-12T11:57:26.398Z</time>
</trkpt>
<trkpt lat="32.6260600" lon="35.1289300">
<ele>109.670006</ele>
<time>2022-10-12T11:57:26.398Z</time>
</trkpt>
<trkpt lat="32.6260300" lon="35.1287100">
<ele>107.010002</ele>
<time>2022-10-12T11:57:26.398Z</time>
</trkpt>
<trkpt lat="32.6260100" lon="35.1285500">
<ele>105.180000</ele>
<time>2022-10-12T11:57:26.399Z</time>
</trkpt>
<trkpt lat="32.6260200" lon="35.1283800">
<ele>105.360001</ele>
<time>2022-10-12T11:57:26.399Z</time>
</trkpt>
<trkpt lat="32.6260000" lon="35.1281400">
<ele>107.779999</ele>
<time>2022-10-12T11:57:26.399Z</time>
</trkpt>
<trkpt lat="32.6260000" lon="35.1279100">
<ele>110.989998</ele>
<time>2022-10-12T11:57:26.399Z</time>
</trkpt>
<trkpt lat="32.6260200" lon="35.1277100">
<ele>113.579994</ele>
<time>2022-10-12T11:57:26.399Z</time>
</trkpt>
<trkpt lat="32.6260300" lon="35.1276600">
<ele>114.100006</ele>
<time>2022-10-12T11:57:26.399Z</time>
</trkpt>
<trkpt lat="32.6260400" lon="35.1274500">
<ele>116.339996</ele>
<time>2022-10-12T11:57:26.399Z</time>
</trkpt>
<trkpt lat="32.6260400" lon="35.1272700">
<ele>119.420006</ele>
<time>2022-10-12T11:57:26.399Z</time>
</trkpt>
<trkpt lat="32.6260300" lon="35.1272000">
<ele>120.389999</ele>
<time>2022-10-12T11:57:26.399Z</time>
</trkpt>
<trkpt lat="32.6260300" lon="35.1270800">
<ele>121.809998</ele>
<time>2022-10-12T11:57:26.399Z</time>
</trkpt>
<trkpt lat="32.6260500" lon="35.1270300">
<ele>122.570000</ele>
<time>2022-10-12T11:57:26.399Z</time>
</trkpt>
<trkpt lat="32.6260700" lon="35.1269600">
<ele>123.530006</ele>
<time>2022-10-12T11:57:26.399Z</time>
</trkpt>
<trkpt lat="32.6260800" lon="35.1268600">
<ele>124.150002</ele>
<time>2022-10-12T11:57:26.399Z</time>
</trkpt>
<trkpt lat="32.6260900" lon="35.1267700">
<ele>124.570000</ele>
<time>2022-10-12T11:57:26.399Z</time>
</trkpt>
<trkpt lat="32.6261100" lon="35.1266800">
<ele>124.950005</ele>
<time>2022-10-12T11:57:26.399Z</time>
</trkpt>
<trkpt lat="32.6261000" lon="35.1265900">
<ele>125.810005</ele>
<time>2022-10-12T11:57:26.399Z</time>
</trkpt>
<trkpt lat="32.6261000" lon="35.1264900">
<ele>126.859993</ele>
<time>2022-10-12T11:57:26.399Z</time>
</trkpt>
<trkpt lat="32.6260700" lon="35.1264100">
<ele>127.500000</ele>
<time>2022-10-12T11:57:26.399Z</time>
</trkpt>
<trkpt lat="32.6260600" lon="35.1263400">
<ele>127.870003</ele>
<time>2022-10-12T11:57:26.399Z</time>
</trkpt>
<trkpt lat="32.6260500" lon="35.1262600">
<ele>128.229996</ele>
<time>2022-10-12T11:57:26.399Z</time>
</trkpt>
<trkpt lat="32.6260300" lon="35.1262200">
<ele>128.379990</ele>
<time>2022-10-12T11:57:26.399Z</time>
</trkpt>
<trkpt lat="32.6260400" lon="35.1261100">
<ele>129.020004</ele>
<time>2022-10-12T11:57:26.399Z</time>
</trkpt>
<trkpt lat="32.6260900" lon="35.1260100">
<ele>130.479996</ele>
<time>2022-10-12T11:57:26.399Z</time>
</trkpt>
<trkpt lat="32.6261300" lon="35.1259300">
<ele>131.389999</ele>
<time>2022-10-12T11:57:26.399Z</time>
</trkpt>
<trkpt lat="32.6260900" lon="35.1258600">
<ele>132.680008</ele>
<time>2022-10-12T11:57:26.399Z</time>
</trkpt>
<trkpt lat="32.6260600" lon="35.1258400">
<ele>133.080002</ele>
<time>2022-10-12T11:57:26.399Z</time>
</trkpt>
<trkpt lat="32.6260200" lon="35.1258400">
<ele>133.220001</ele>
<time>2022-10-12T11:57:26.399Z</time>
</trkpt>
<trkpt lat="32.6260100" lon="35.1258400">
<ele>133.259995</ele>
<time>2022-10-12T11:57:26.399Z</time>
</trkpt>
<trkpt lat="32.6258400" lon="35.1258300">
<ele>134.040009</ele>
<time>2022-10-12T11:57:26.400Z</time>
</trkpt>
<trkpt lat="32.6257800" lon="35.1258300">
<ele>133.869995</ele>
<time>2022-10-12T11:57:26.400Z</time>
</trkpt>
<trkpt lat="32.6255200" lon="35.1258300">
<ele>133.569992</ele>
<time>2022-10-12T11:57:26.400Z</time>
</trkpt>
<trkpt lat="32.6253400" lon="35.1257500">
<ele>137.369995</ele>
<time>2022-10-12T11:57:26.400Z</time>
</trkpt>
<trkpt lat="32.6251900" lon="35.1255600">
<ele>141.559998</ele>
<time>2022-10-12T11:57:26.400Z</time>
</trkpt>
<trkpt lat="32.6250400" lon="35.1252700">
<ele>145.880005</ele>
<time>2022-10-12T11:57:26.400Z</time>
</trkpt>
<trkpt lat="32.6248200" lon="35.1249200">
<ele>143.850006</ele>
<time>2022-10-12T11:57:26.400Z</time>
</trkpt>
<trkpt lat="32.6248000" lon="35.1248800">
<ele>143.589996</ele>
<time>2022-10-12T11:57:26.400Z</time>
</trkpt>
<trkpt lat="32.6246800" lon="35.1246700">
<ele>141.980011</ele>
<time>2022-10-12T11:57:26.400Z</time>
</trkpt>
<trkpt lat="32.6246200" lon="35.1245200">
<ele>140.879990</ele>
<time>2022-10-12T11:57:26.400Z</time>
</trkpt>
<trkpt lat="32.6244900" lon="35.1240100">
<ele>139.729996</ele>
<time>2022-10-12T11:57:26.400Z</time>
</trkpt>
<trkpt lat="32.6244600" lon="35.1236600">
<ele>141.929993</ele>
<time>2022-10-12T11:57:26.400Z</time>
</trkpt>
<trkpt lat="32.6244200" lon="35.1233000">
<ele>140.059998</ele>
<time>2022-10-12T11:57:26.400Z</time>
</trkpt>
<trkpt lat="32.6244200" lon="35.1229600">
<ele>137.959991</ele>
<time>2022-10-12T11:57:26.400Z</time>
</trkpt>
<trkpt lat="32.6244100" lon="35.1228000">
<ele>138.309998</ele>
<time>2022-10-12T11:57:26.400Z</time>
</trkpt>
<trkpt lat="32.6242600" lon="35.1224400">
<ele>141.889999</ele>
<time>2022-10-12T11:57:26.400Z</time>
</trkpt>
<trkpt lat="32.6240400" lon="35.1220200">
<ele>144.000000</ele>
<time>2022-10-12T11:57:26.400Z</time>
</trkpt>
<trkpt lat="32.6239500" lon="35.1218100">
<ele>142.330002</ele>
<time>2022-10-12T11:57:26.400Z</time>
</trkpt>
<trkpt lat="32.6238900" lon="35.1215500">
<ele>138.809998</ele>
<time>2022-10-12T11:57:26.400Z</time>
</trkpt>
<trkpt lat="32.6238700" lon="35.1212200">
<ele>138.279999</ele>
<time>2022-10-12T11:57:26.400Z</time>
</trkpt>
<trkpt lat="32.6238900" lon="35.1209600">
<ele>140.590012</ele>
<time>2022-10-12T11:57:26.400Z</time>
</trkpt>
<trkpt lat="32.6239500" lon="35.1205800">
<ele>141.449997</ele>
<time>2022-10-12T11:57:26.400Z</time>
</trkpt>
<trkpt lat="32.6239600" lon="35.1205000">
<ele>140.940002</ele>
<time>2022-10-12T11:57:26.400Z</time>
</trkpt>
<trkpt lat="32.6239700" lon="35.1204000">
<ele>140.069992</ele>
<time>2022-10-12T11:57:26.400Z</time>
</trkpt>
<trkpt lat="32.6240200" lon="35.1202100">
<ele>139.110001</ele>
<time>2022-10-12T11:57:26.400Z</time>
</trkpt>
<trkpt lat="32.6241900" lon="35.1196000">
<ele>132.440002</ele>
<time>2022-10-12T11:57:26.400Z</time>
</trkpt>
<trkpt lat="32.6243700" lon="35.1192400">
<ele>129.869995</ele>
<time>2022-10-12T11:57:26.400Z</time>
</trkpt>
<trkpt lat="32.6244200" lon="35.1191600">
<ele>130.039993</ele>
<time>2022-10-12T11:57:26.401Z</time>
</trkpt>
<trkpt lat="32.6243400" lon="35.1190100">
<ele>135.139999</ele>
<time>2022-10-12T11:57:26.401Z</time>
</trkpt>
<trkpt lat="32.6242500" lon="35.1190200">
<ele>132.919998</ele>
<time>2022-10-12T11:57:26.401Z</time>
</trkpt>
<trkpt lat="32.6239900" lon="35.1191700">
<ele>125.769997</ele>
<time>2022-10-12T11:57:26.401Z</time>
</trkpt>
<trkpt lat="32.6236400" lon="35.1194400">
<ele>127.169998</ele>
<time>2022-10-12T11:57:26.401Z</time>
</trkpt>
<trkpt lat="32.6235700" lon="35.1195000">
<ele>127.380005</ele>
<time>2022-10-12T11:57:26.401Z</time>
</trkpt>
<trkpt lat="32.6231000" lon="35.1198500">
<ele>125.990005</ele>
<time>2022-10-12T11:57:26.401Z</time>
</trkpt>
<trkpt lat="32.6227500" lon="35.1199100">
<ele>128.570007</ele>
<time>2022-10-12T11:57:26.401Z</time>
</trkpt>
<trkpt lat="32.6223900" lon="35.1198500">
<ele>132.580002</ele>
<time>2022-10-12T11:57:26.401Z</time>
</trkpt>
<trkpt lat="32.6221300" lon="35.1197400">
<ele>141.869995</ele>
<time>2022-10-12T11:57:26.401Z</time>
</trkpt>
<trkpt lat="32.6219800" lon="35.1196600">
<ele>146.600006</ele>
<time>2022-10-12T11:57:26.401Z</time>
</trkpt>
<trkpt lat="32.6217800" lon="35.1195100">
<ele>154.350006</ele>
<time>2022-10-12T11:57:26.401Z</time>
</trkpt>
<trkpt lat="32.6216100" lon="35.1193700">
<ele>158.129990</ele>
<time>2022-10-12T11:57:26.401Z</time>
</trkpt>
<trkpt lat="32.6215300" lon="35.1192800">
<ele>159.660004</ele>
<time>2022-10-12T11:57:26.401Z</time>
</trkpt>
<trkpt lat="32.6215100" lon="35.1192800">
<ele>159.699997</ele>
<time>2022-10-12T11:57:26.401Z</time>
</trkpt>
<trkpt lat="32.6214700" lon="35.1192500">
<ele>160.300003</ele>
<time>2022-10-12T11:57:26.401Z</time>
</trkpt>
<trkpt lat="32.6214700" lon="35.1192400">
<ele>160.470001</ele>
<time>2022-10-12T11:57:26.401Z</time>
</trkpt>
<trkpt lat="32.6213600" lon="35.1190900">
<ele>161.809998</ele>
<time>2022-10-12T11:57:26.401Z</time>
</trkpt>
<trkpt lat="32.6212600" lon="35.1189500">
<ele>161.180008</ele>
<time>2022-10-12T11:57:26.401Z</time>
</trkpt>
<trkpt lat="32.6211400" lon="35.1187900">
<ele>160.269989</ele>
<time>2022-10-12T11:57:26.401Z</time>
</trkpt>
<trkpt lat="32.6210400" lon="35.1186500">
<ele>159.639999</ele>
<time>2022-10-12T11:57:26.401Z</time>
</trkpt>
<trkpt lat="32.6209300" lon="35.1184800">
<ele>161.420013</ele>
<time>2022-10-12T11:57:26.401Z</time>
</trkpt>
<trkpt lat="32.6208200" lon="35.1183100">
<ele>162.929993</ele>
<time>2022-10-12T11:57:26.401Z</time>
</trkpt>
<trkpt lat="32.6207300" lon="35.1181400">
<ele>162.239990</ele>
<time>2022-10-12T11:57:26.401Z</time>
</trkpt>
<trkpt lat="32.6206400" lon="35.1179300">
<ele>159.160004</ele>
<time>2022-10-12T11:57:26.401Z</time>
</trkpt>
<trkpt lat="32.6206100" lon="35.1177500">
<ele>156.699997</ele>
<time>2022-10-12T11:57:26.401Z</time>
</trkpt>
<trkpt lat="32.6206100" lon="35.1175800">
<ele>155.240005</ele>
<time>2022-10-12T11:57:26.401Z</time>
</trkpt>
<trkpt lat="32.6206400" lon="35.1174300">
<ele>155.619995</ele>
<time>2022-10-12T11:57:26.401Z</time>
</trkpt>
<trkpt lat="32.6206800" lon="35.1172400">
<ele>156.470001</ele>
<time>2022-10-12T11:57:26.402Z</time>
</trkpt>
<trkpt lat="32.6207200" lon="35.1171300">
<ele>157.639999</ele>
<time>2022-10-12T11:57:26.402Z</time>
</trkpt>
<trkpt lat="32.6207400" lon="35.1170400">
<ele>158.089996</ele>
<time>2022-10-12T11:57:26.402Z</time>
</trkpt>
<trkpt lat="32.6207700" lon="35.1168300">
<ele>158.309998</ele>
<time>2022-10-12T11:57:26.402Z</time>
</trkpt>
<trkpt lat="32.6207700" lon="35.1168200">
<ele>158.239990</ele>
<time>2022-10-12T11:57:26.402Z</time>
</trkpt>
<trkpt lat="32.6207600" lon="35.1166500">
<ele>156.940002</ele>
<time>2022-10-12T11:57:26.402Z</time>
</trkpt>
<trkpt lat="32.6207200" lon="35.1163100">
<ele>158.220001</ele>
<time>2022-10-12T11:57:26.402Z</time>
</trkpt>
<trkpt lat="32.6206900" lon="35.1160300">
<ele>160.690002</ele>
<time>2022-10-12T11:57:26.402Z</time>
</trkpt>
<trkpt lat="32.6206400" lon="35.1158100">
<ele>160.039993</ele>
<time>2022-10-12T11:57:26.402Z</time>
</trkpt>
<trkpt lat="32.6206300" lon="35.1157800">
<ele>160.119995</ele>
<time>2022-10-12T11:57:26.402Z</time>
</trkpt>
<trkpt lat="32.6206300" lon="35.1157800">
<ele>160.119995</ele>
<time>2022-10-12T11:57:26.402Z</time>
</trkpt>
<trkpt lat="32.6206300" lon="35.1157700">
<ele>160.289993</ele>
<time>2022-10-12T11:57:26.402Z</time>
</trkpt>
<trkpt lat="32.6206300" lon="35.1157000">
<ele>161.489990</ele>
<time>2022-10-12T11:57:26.402Z</time>
</trkpt>
<trkpt lat="32.6206200" lon="35.1156800">
<ele>161.420013</ele>
<time>2022-10-12T11:57:26.402Z</time>
</trkpt>
<trkpt lat="32.6206000" lon="35.1155500">
<ele>162.899994</ele>
<time>2022-10-12T11:57:26.402Z</time>
</trkpt>
<trkpt lat="32.6205500" lon="35.1154100">
<ele>164.480011</ele>
<time>2022-10-12T11:57:26.402Z</time>
</trkpt>
<trkpt lat="32.6204900" lon="35.1152700">
<ele>165.879990</ele>
<time>2022-10-12T11:57:26.402Z</time>
</trkpt>
<trkpt lat="32.6204100" lon="35.1151600">
<ele>166.600006</ele>
<time>2022-10-12T11:57:26.402Z</time>
</trkpt>
<trkpt lat="32.6203000" lon="35.1149500">
<ele>170.069992</ele>
<time>2022-10-12T11:57:26.402Z</time>
</trkpt>
<trkpt lat="32.6202500" lon="35.1148900">
<ele>171.130005</ele>
<time>2022-10-12T11:57:26.402Z</time>
</trkpt>
<trkpt lat="32.6200900" lon="35.1147800">
<ele>173.800003</ele>
<time>2022-10-12T11:57:26.402Z</time>
</trkpt>
<trkpt lat="32.6200600" lon="35.1146700">
<ele>176.239990</ele>
<time>2022-10-12T11:57:26.402Z</time>
</trkpt>
<trkpt lat="32.6202000" lon="35.1146700">
<ele>176.930008</ele>
<time>2022-10-12T11:57:26.402Z</time>
</trkpt>
<trkpt lat="32.6202600" lon="35.1146800">
<ele>176.980011</ele>
<time>2022-10-12T11:57:26.402Z</time>
</trkpt>
<trkpt lat="32.6203500" lon="35.1147900">
<ele>175.930008</ele>
<time>2022-10-12T11:57:26.402Z</time>
</trkpt>
<trkpt lat="32.6203700" lon="35.1148400">
<ele>175.070007</ele>
<time>2022-10-12T11:57:26.402Z</time>
</trkpt>
<trkpt lat="32.6204500" lon="35.1149300">
<ele>174.820007</ele>
<time>2022-10-12T11:57:26.402Z</time>
</trkpt>
<trkpt lat="32.6205200" lon="35.1150100">
<ele>174.679993</ele>
<time>2022-10-12T11:57:26.403Z</time>
</trkpt>
<trkpt lat="32.6205400" lon="35.1150600">
<ele>173.800003</ele>
<time>2022-10-12T11:57:26.403Z</time>
</trkpt>
<trkpt lat="32.6205800" lon="35.1150900">
<ele>174.350006</ele>
<time>2022-10-12T11:57:26.403Z</time>
</trkpt>
<trkpt lat="32.6206000" lon="35.1151000">
<ele>174.820007</ele>
<time>2022-10-12T11:57:26.403Z</time>
</trkpt>
<trkpt lat="32.6207000" lon="35.1152000">
<ele>175.590012</ele>
<time>2022-10-12T11:57:26.403Z</time>
</trkpt>
<trkpt lat="32.6207300" lon="35.1152300">
<ele>175.760010</ele>
<time>2022-10-12T11:57:26.403Z</time>
</trkpt>
<trkpt lat="32.6208400" lon="35.1154400">
<ele>174.739990</ele>
<time>2022-10-12T11:57:26.403Z</time>
</trkpt>
<trkpt lat="32.6208900" lon="35.1155300">
<ele>174.589996</ele>
<time>2022-10-12T11:57:26.403Z</time>
</trkpt>
<trkpt lat="32.6209900" lon="35.1155700">
<ele>177.369995</ele>
<time>2022-10-12T11:57:26.403Z</time>
</trkpt>
<trkpt lat="32.6210600" lon="35.1156500">
<ele>178.250000</ele>
<time>2022-10-12T11:57:26.403Z</time>
</trkpt>
<trkpt lat="32.6211000" lon="35.1156300">
<ele>180.009995</ele>
<time>2022-10-12T11:57:26.403Z</time>
</trkpt>
<trkpt lat="32.6210700" lon="35.1155500">
<ele>180.639999</ele>
<time>2022-10-12T11:57:26.403Z</time>
</trkpt>
<trkpt lat="32.6210000" lon="35.1154100">
<ele>181.139999</ele>
<time>2022-10-12T11:57:26.403Z</time>
</trkpt>
<trkpt lat="32.6209200" lon="35.1152100">
<ele>182.860001</ele>
<time>2022-10-12T11:57:26.403Z</time>
</trkpt>
<trkpt lat="32.6208700" lon="35.1149900">
<ele>187.470001</ele>
<time>2022-10-12T11:57:26.403Z</time>
</trkpt>
<trkpt lat="32.6209000" lon="35.1149000">
<ele>187.409988</ele>
<time>2022-10-12T11:57:26.403Z</time>
</trkpt>
<trkpt lat="32.6208700" lon="35.1146600">
<ele>184.610001</ele>
<time>2022-10-12T11:57:26.403Z</time>
</trkpt>
<trkpt lat="32.6209700" lon="35.1145300">
<ele>183.810013</ele>
<time>2022-10-12T11:57:26.403Z</time>
</trkpt>
<trkpt lat="32.6210300" lon="35.1144500">
<ele>182.959991</ele>
<time>2022-10-12T11:57:26.403Z</time>
</trkpt>
<trkpt lat="32.6210900" lon="35.1143400">
<ele>183.199997</ele>
<time>2022-10-12T11:57:26.403Z</time>
</trkpt>
<trkpt lat="32.6211000" lon="35.1143300">
<ele>183.160004</ele>
<time>2022-10-12T11:57:26.403Z</time>
</trkpt>
<trkpt lat="32.6211100" lon="35.1143200">
<ele>183.100006</ele>
<time>2022-10-12T11:57:26.403Z</time>
</trkpt>
<trkpt lat="32.6211200" lon="35.1143000">
<ele>183.019989</ele>
<time>2022-10-12T11:57:26.403Z</time>
</trkpt>
<trkpt lat="32.6211200" lon="35.1143000">
<ele>183.019989</ele>
<time>2022-10-12T11:57:26.403Z</time>
</trkpt>
<trkpt lat="32.6211000" lon="35.1141400">
<ele>182.970001</ele>
<time>2022-10-12T11:57:26.403Z</time>
</trkpt>
<trkpt lat="32.6209900" lon="35.1140100">
<ele>188.690002</ele>
<time>2022-10-12T11:57:26.403Z</time>
</trkpt>
<trkpt lat="32.6209800" lon="35.1140100">
<ele>188.869995</ele>
<time>2022-10-12T11:57:26.403Z</time>
</trkpt>
<trkpt lat="32.6209000" lon="35.1139300">
<ele>192.619995</ele>
<time>2022-10-12T11:57:26.403Z</time>
</trkpt>
<trkpt lat="32.6207700" lon="35.1138000">
<ele>194.960007</ele>
<time>2022-10-12T11:57:26.404Z</time>
</trkpt>
<trkpt lat="32.6207100" lon="35.1137200">
<ele>195.509995</ele>
<time>2022-10-12T11:57:26.404Z</time>
</trkpt>
<trkpt lat="32.6206100" lon="35.1135400">
<ele>197.659988</ele>
<time>2022-10-12T11:57:26.404Z</time>
</trkpt>
<trkpt lat="32.6206700" lon="35.1134200">
<ele>198.500000</ele>
<time>2022-10-12T11:57:26.404Z</time>
</trkpt>
<trkpt lat="32.6207800" lon="35.1134100">
<ele>198.669998</ele>
<time>2022-10-12T11:57:26.404Z</time>
</trkpt>
<trkpt lat="32.6208100" lon="35.1134000">
<ele>198.740005</ele>
<time>2022-10-12T11:57:26.404Z</time>
</trkpt>
<trkpt lat="32.6208400" lon="35.1133700">
<ele>198.660004</ele>
<time>2022-10-12T11:57:26.404Z</time>
</trkpt>
<trkpt lat="32.6209300" lon="35.1132800">
<ele>196.190002</ele>
<time>2022-10-12T11:57:26.404Z</time>
</trkpt>
<trkpt lat="32.6210300" lon="35.1133000">
<ele>192.779984</ele>
<time>2022-10-12T11:57:26.404Z</time>
</trkpt>
<trkpt lat="32.6211800" lon="35.1131800">
<ele>188.929993</ele>
<time>2022-10-12T11:57:26.404Z</time>
</trkpt>
<trkpt lat="32.6213200" lon="35.1131000">
<ele>185.699997</ele>
<time>2022-10-12T11:57:26.404Z</time>
</trkpt>
<trkpt lat="32.6214600" lon="35.1129300">
<ele>185.399994</ele>
<time>2022-10-12T11:57:26.404Z</time>
</trkpt>
<trkpt lat="32.6215100" lon="35.1128600">
<ele>185.729996</ele>
<time>2022-10-12T11:57:26.404Z</time>
</trkpt>
<trkpt lat="32.6217600" lon="35.1126000">
<ele>187.320007</ele>
<time>2022-10-12T11:57:26.404Z</time>
</trkpt>
<trkpt lat="32.6217500" lon="35.1125400">
<ele>188.320007</ele>
<time>2022-10-12T11:57:26.404Z</time>
</trkpt>
<trkpt lat="32.6216800" lon="35.1124900">
<ele>189.140015</ele>
<time>2022-10-12T11:57:26.404Z</time>
</trkpt>
<trkpt lat="32.6214700" lon="35.1126000">
<ele>193.010010</ele>
<time>2022-10-12T11:57:26.404Z</time>
</trkpt>
<trkpt lat="32.6213600" lon="35.1126800">
<ele>193.410004</ele>
<time>2022-10-12T11:57:26.404Z</time>
</trkpt>
<trkpt lat="32.6213000" lon="35.1127200">
<ele>194.009995</ele>
<time>2022-10-12T11:57:26.404Z</time>
</trkpt>
<trkpt lat="32.6212800" lon="35.1126700">
<ele>196.190002</ele>
<time>2022-10-12T11:57:26.404Z</time>
</trkpt>
<trkpt lat="32.6213300" lon="35.1126000">
<ele>196.979996</ele>
<time>2022-10-12T11:57:26.404Z</time>
</trkpt>
<trkpt lat="32.6213800" lon="35.1124300">
<ele>200.189987</ele>
<time>2022-10-12T11:57:26.404Z</time>
</trkpt>
<trkpt lat="32.6214500" lon="35.1122900">
<ele>199.820007</ele>
<time>2022-10-12T11:57:26.404Z</time>
</trkpt>
<trkpt lat="32.6214500" lon="35.1122500">
<ele>200.399994</ele>
<time>2022-10-12T11:57:26.404Z</time>
</trkpt>
<trkpt lat="32.6214700" lon="35.1122200">
<ele>200.099991</ele>
<time>2022-10-12T11:57:26.404Z</time>
</trkpt>
<trkpt lat="32.6216000" lon="35.1121800">
<ele>195.940002</ele>
<time>2022-10-12T11:57:26.404Z</time>
</trkpt>
<trkpt lat="32.6216700" lon="35.1123600">
<ele>191.000000</ele>
<time>2022-10-12T11:57:26.404Z</time>
</trkpt>
<trkpt lat="32.6218000" lon="35.1124200">
<ele>189.740005</ele>
<time>2022-10-12T11:57:26.405Z</time>
</trkpt>
<trkpt lat="32.6218200" lon="35.1124300">
<ele>189.590012</ele>
<time>2022-10-12T11:57:26.405Z</time>
</trkpt>
<trkpt lat="32.6219500" lon="35.1124600">
<ele>189.279999</ele>
<time>2022-10-12T11:57:26.405Z</time>
</trkpt>
<trkpt lat="32.6220900" lon="35.1124500">
<ele>192.979996</ele>
<time>2022-10-12T11:57:26.405Z</time>
</trkpt>
<trkpt lat="32.6221000" lon="35.1123700">
<ele>194.660004</ele>
<time>2022-10-12T11:57:26.405Z</time>
</trkpt>
<trkpt lat="32.6220500" lon="35.1122800">
<ele>194.179993</ele>
<time>2022-10-12T11:57:26.405Z</time>
</trkpt>
<trkpt lat="32.6220500" lon="35.1122700">
<ele>194.309998</ele>
<time>2022-10-12T11:57:26.405Z</time>
</trkpt>
<trkpt lat="32.6219300" lon="35.1121700">
<ele>191.799988</ele>
<time>2022-10-12T11:57:26.405Z</time>
</trkpt>
<trkpt lat="32.6218800" lon="35.1121300">
<ele>193.300003</ele>
<time>2022-10-12T11:57:26.405Z</time>
</trkpt>
<trkpt lat="32.6218300" lon="35.1121100">
<ele>194.040009</ele>
<time>2022-10-12T11:57:26.405Z</time>
</trkpt>
<trkpt lat="32.6216500" lon="35.1120200">
<ele>196.419998</ele>
<time>2022-10-12T11:57:26.405Z</time>
</trkpt>
<trkpt lat="32.6215600" lon="35.1119200">
<ele>200.949997</ele>
<time>2022-10-12T11:57:26.405Z</time>
</trkpt>
<trkpt lat="32.6215300" lon="35.1118100">
<ele>205.320007</ele>
<time>2022-10-12T11:57:26.405Z</time>
</trkpt>
<trkpt lat="32.6216700" lon="35.1117500">
<ele>206.159988</ele>
<time>2022-10-12T11:57:26.405Z</time>
</trkpt>
<trkpt lat="32.6216800" lon="35.1116600">
<ele>210.419998</ele>
<time>2022-10-12T11:57:26.405Z</time>
</trkpt>
<trkpt lat="32.6215600" lon="35.1115100">
<ele>213.380005</ele>
<time>2022-10-12T11:57:26.405Z</time>
</trkpt>
<trkpt lat="32.6215500" lon="35.1115000">
<ele>213.600006</ele>
<time>2022-10-12T11:57:26.405Z</time>
</trkpt>
<trkpt lat="32.6215000" lon="35.1114600">
<ele>214.460007</ele>
<time>2022-10-12T11:57:26.405Z</time>
</trkpt>
<trkpt lat="32.6214000" lon="35.1114400">
<ele>214.899994</ele>
<time>2022-10-12T11:57:26.405Z</time>
</trkpt>
<trkpt lat="32.6212900" lon="35.1113700">
<ele>215.350006</ele>
<time>2022-10-12T11:57:26.405Z</time>
</trkpt>
<trkpt lat="32.6212100" lon="35.1112600">
<ele>214.740005</ele>
<time>2022-10-12T11:57:26.405Z</time>
</trkpt>
<trkpt lat="32.6211900" lon="35.1112400">
<ele>214.489990</ele>
<time>2022-10-12T11:57:26.405Z</time>
</trkpt>
<trkpt lat="32.6210300" lon="35.1112300">
<ele>212.589996</ele>
<time>2022-10-12T11:57:26.405Z</time>
</trkpt>
<trkpt lat="32.6208200" lon="35.1112100">
<ele>209.850006</ele>
<time>2022-10-12T11:57:26.405Z</time>
</trkpt>
<trkpt lat="32.6206200" lon="35.1112400">
<ele>206.179993</ele>
<time>2022-10-12T11:57:26.405Z</time>
</trkpt>
<trkpt lat="32.6204200" lon="35.1113200">
<ele>201.259995</ele>
<time>2022-10-12T11:57:26.405Z</time>
</trkpt>
<trkpt lat="32.6202300" lon="35.1113200">
<ele>195.880005</ele>
<time>2022-10-12T11:57:26.405Z</time>
</trkpt>
<trkpt lat="32.6200600" lon="35.1114000">
<ele>195.949997</ele>
<time>2022-10-12T11:57:26.405Z</time>
</trkpt>
<trkpt lat="32.6199600" lon="35.1114100">
<ele>196.310013</ele>
<time>2022-10-12T11:57:26.405Z</time>
</trkpt>
<trkpt lat="32.6197200" lon="35.1115600">
<ele>195.900009</ele>
<time>2022-10-12T11:57:26.405Z</time>
</trkpt>
<trkpt lat="32.6197300" lon="35.1116000">
<ele>195.199997</ele>
<time>2022-10-12T11:57:26.405Z</time>
</trkpt>
<trkpt lat="32.6198300" lon="35.1116900">
<ele>194.009995</ele>
<time>2022-10-12T11:57:26.405Z</time>
</trkpt>
<trkpt lat="32.6197900" lon="35.1118200">
<ele>191.470001</ele>
<time>2022-10-12T11:57:26.406Z</time>
</trkpt>
<trkpt lat="32.6195400" lon="35.1118900">
<ele>186.679993</ele>
<time>2022-10-12T11:57:26.406Z</time>
</trkpt>
<trkpt lat="32.6191900" lon="35.1120100">
<ele>178.350006</ele>
<time>2022-10-12T11:57:26.406Z</time>
</trkpt>
<trkpt lat="32.6190600" lon="35.1119400">
<ele>183.129990</ele>
<time>2022-10-12T11:57:26.406Z</time>
</trkpt>
<trkpt lat="32.6188800" lon="35.1116100">
<ele>190.500000</ele>
<time>2022-10-12T11:57:26.406Z</time>
</trkpt>
<trkpt lat="32.6188700" lon="35.1115700">
<ele>190.769989</ele>
<time>2022-10-12T11:57:26.406Z</time>
</trkpt>
<trkpt lat="32.6188400" lon="35.1113500">
<ele>192.309998</ele>
<time>2022-10-12T11:57:26.406Z</time>
</trkpt>
<trkpt lat="32.6188200" lon="35.1112100">
<ele>193.120010</ele>
<time>2022-10-12T11:57:26.406Z</time>
</trkpt>
<trkpt lat="32.6187300" lon="35.1109100">
<ele>190.180008</ele>
<time>2022-10-12T11:57:26.406Z</time>
</trkpt>
<trkpt lat="32.6186500" lon="35.1104800">
<ele>183.550003</ele>
<time>2022-10-12T11:57:26.406Z</time>
</trkpt>
<trkpt lat="32.6186200" lon="35.1103000">
<ele>181.470001</ele>
<time>2022-10-12T11:57:26.406Z</time>
</trkpt>
<trkpt lat="32.6186100" lon="35.1100400">
<ele>182.690002</ele>
<time>2022-10-12T11:57:26.406Z</time>
</trkpt>
<trkpt lat="32.6185800" lon="35.1098000">
<ele>182.970001</ele>
<time>2022-10-12T11:57:26.406Z</time>
</trkpt>
<trkpt lat="32.6185900" lon="35.1096100">
<ele>182.779999</ele>
<time>2022-10-12T11:57:26.406Z</time>
</trkpt>
<trkpt lat="32.6186000" lon="35.1093400">
<ele>181.520004</ele>
<time>2022-10-12T11:57:26.406Z</time>
</trkpt>
<trkpt lat="32.6186500" lon="35.1091400">
<ele>181.779999</ele>
<time>2022-10-12T11:57:26.406Z</time>
</trkpt>
<trkpt lat="32.6187300" lon="35.1089300">
<ele>183.630005</ele>
<time>2022-10-12T11:57:26.406Z</time>
</trkpt>
<trkpt lat="32.6189300" lon="35.1088400">
<ele>185.580002</ele>
<time>2022-10-12T11:57:26.406Z</time>
</trkpt>
<trkpt lat="32.6192000" lon="35.1087800">
<ele>185.250000</ele>
<time>2022-10-12T11:57:26.406Z</time>
</trkpt>
<trkpt lat="32.6194300" lon="35.1087200">
<ele>183.879990</ele>
<time>2022-10-12T11:57:26.406Z</time>
</trkpt>
<trkpt lat="32.6196600" lon="35.1086600">
<ele>183.220001</ele>
<time>2022-10-12T11:57:26.406Z</time>
</trkpt>
<trkpt lat="32.6199300" lon="35.1085600">
<ele>181.529999</ele>
<time>2022-10-12T11:57:26.406Z</time>
</trkpt>
<trkpt lat="32.6201500" lon="35.1085100">
<ele>177.969986</ele>
<time>2022-10-12T11:57:26.406Z</time>
</trkpt>
<trkpt lat="32.6203200" lon="35.1084700">
<ele>178.439987</ele>
<time>2022-10-12T11:57:26.406Z</time>
</trkpt>
<trkpt lat="32.6205200" lon="35.1084700">
<ele>182.760010</ele>
<time>2022-10-12T11:57:26.406Z</time>
</trkpt>
<trkpt lat="32.6207400" lon="35.1084600">
<ele>181.880005</ele>
<time>2022-10-12T11:57:26.406Z</time>
</trkpt>
<trkpt lat="32.6209500" lon="35.1085000">
<ele>184.280014</ele>
<time>2022-10-12T11:57:26.406Z</time>
</trkpt>
<trkpt lat="32.6211500" lon="35.1085500">
<ele>189.930008</ele>
<time>2022-10-12T11:57:26.406Z</time>
</trkpt>
<trkpt lat="32.6214200" lon="35.1085700">
<ele>193.259995</ele>
<time>2022-10-12T11:57:26.406Z</time>
</trkpt>
<trkpt lat="32.6215900" lon="35.1086300">
<ele>191.069992</ele>
<time>2022-10-12T11:57:26.406Z</time>
</trkpt>
<trkpt lat="32.6218200" lon="35.1088400">
<ele>189.319992</ele>
<time>2022-10-12T11:57:26.407Z</time>
</trkpt>
<trkpt lat="32.6219000" lon="35.1089000">
<ele>190.069992</ele>
<time>2022-10-12T11:57:26.407Z</time>
</trkpt>
<trkpt lat="32.6219700" lon="35.1089800">
<ele>190.410004</ele>
<time>2022-10-12T11:57:26.407Z</time>
</trkpt>
<trkpt lat="32.6220900" lon="35.1092100">
<ele>190.069992</ele>
<time>2022-10-12T11:57:26.407Z</time>
</trkpt>
<trkpt lat="32.6221900" lon="35.1091700">
<ele>188.490005</ele>
<time>2022-10-12T11:57:26.407Z</time>
</trkpt>
<trkpt lat="32.6222000" lon="35.1091400">
<ele>188.300003</ele>
<time>2022-10-12T11:57:26.407Z</time>
</trkpt>
<trkpt lat="32.6222500" lon="35.1090700">
<ele>188.360001</ele>
<time>2022-10-12T11:57:26.407Z</time>
</trkpt>
<trkpt lat="32.6222400" lon="35.1090700">
<ele>188.229996</ele>
<time>2022-10-12T11:57:26.407Z</time>
</trkpt>
<trkpt lat="32.6222500" lon="35.1090700">
<ele>188.360001</ele>
<time>2022-10-12T11:57:26.407Z</time>
</trkpt>
<trkpt lat="32.6222600" lon="35.1089200">
<ele>187.970001</ele>
<time>2022-10-12T11:57:26.407Z</time>
</trkpt>
<trkpt lat="32.6223300" lon="35.1086700">
<ele>186.949997</ele>
<time>2022-10-12T11:57:26.407Z</time>
</trkpt>
<trkpt lat="32.6223700" lon="35.1085000">
<ele>185.840012</ele>
<time>2022-10-12T11:57:26.407Z</time>
</trkpt>
<trkpt lat="32.6224700" lon="35.1081200">
<ele>185.200012</ele>
<time>2022-10-12T11:57:26.407Z</time>
</trkpt>
<trkpt lat="32.6226000" lon="35.1079300">
<ele>186.350006</ele>
<time>2022-10-12T11:57:26.407Z</time>
</trkpt>
<trkpt lat="32.6227900" lon="35.1076100">
<ele>188.550003</ele>
<time>2022-10-12T11:57:26.407Z</time>
</trkpt>
<trkpt lat="32.6230300" lon="35.1074400">
<ele>181.889999</ele>
<time>2022-10-12T11:57:26.407Z</time>
</trkpt>
<trkpt lat="32.6231300" lon="35.1073700">
<ele>178.410004</ele>
<time>2022-10-12T11:57:26.407Z</time>
</trkpt>
<trkpt lat="32.6231300" lon="35.1073400">
<ele>177.889999</ele>
<time>2022-10-12T11:57:26.407Z</time>
</trkpt>
<trkpt lat="32.6231400" lon="35.1073400">
<ele>177.649994</ele>
<time>2022-10-12T11:57:26.407Z</time>
</trkpt>
<trkpt lat="32.6232900" lon="35.1072600">
<ele>172.139999</ele>
<time>2022-10-12T11:57:26.407Z</time>
</trkpt>
<trkpt lat="32.6233900" lon="35.1072200">
<ele>169.290009</ele>
<time>2022-10-12T11:57:26.407Z</time>
</trkpt>
<trkpt lat="32.6236100" lon="35.1071200">
<ele>161.130005</ele>
<time>2022-10-12T11:57:26.407Z</time>
</trkpt>
<trkpt lat="32.6238300" lon="35.1071900">
<ele>166.300003</ele>
<time>2022-10-12T11:57:26.407Z</time>
</trkpt>
<trkpt lat="32.6239200" lon="35.1071300">
<ele>163.600006</ele>
<time>2022-10-12T11:57:26.407Z</time>
</trkpt>
<trkpt lat="32.6240200" lon="35.1070700">
<ele>160.710007</ele>
<time>2022-10-12T11:57:26.407Z</time>
</trkpt>
<trkpt lat="32.6242900" lon="35.1070300">
<ele>157.119995</ele>
<time>2022-10-12T11:57:26.407Z</time>
</trkpt>
<trkpt lat="32.6247600" lon="35.1068500">
<ele>154.100006</ele>
<time>2022-10-12T11:57:26.407Z</time>
</trkpt>
<trkpt lat="32.6251100" lon="35.1067400">
<ele>149.869995</ele>
<time>2022-10-12T11:57:26.407Z</time>
</trkpt>
<trkpt lat="32.6252500" lon="35.1067000">
<ele>149.220001</ele>
<time>2022-10-12T11:57:26.407Z</time>
</trkpt>
<trkpt lat="32.6254400" lon="35.1066600">
<ele>151.919998</ele>
<time>2022-10-12T11:57:26.408Z</time>
</trkpt>
<trkpt lat="32.6256600" lon="35.1066600">
<ele>154.410004</ele>
<time>2022-10-12T11:57:26.408Z</time>
</trkpt>
<trkpt lat="32.6258900" lon="35.1066000">
<ele>156.799988</ele>
<time>2022-10-12T11:57:26.408Z</time>
</trkpt>
<trkpt lat="32.6258900" lon="35.1066000">
<ele>156.799988</ele>
<time>2022-10-12T11:57:26.408Z</time>
</trkpt>
<trkpt lat="32.6259100" lon="35.1065800">
<ele>157.449997</ele>
<time>2022-10-12T11:57:26.408Z</time>
</trkpt>
<trkpt lat="32.6259100" lon="35.1065800">
<ele>157.449997</ele>
<time>2022-10-12T11:57:26.408Z</time>
</trkpt>
<trkpt lat="32.6259800" lon="35.1064100">
<ele>160.990005</ele>
<time>2022-10-12T11:57:26.408Z</time>
</trkpt>
<trkpt lat="32.6261400" lon="35.1061300">
<ele>158.319992</ele>
<time>2022-10-12T11:57:26.408Z</time>
</trkpt>
<trkpt lat="32.6262400" lon="35.1060800">
<ele>160.559998</ele>
<time>2022-10-12T11:57:26.408Z</time>
</trkpt>
<trkpt lat="32.6261800" lon="35.1059400">
<ele>158.530014</ele>
<time>2022-10-12T11:57:26.408Z</time>
</trkpt>
<trkpt lat="32.6259400" lon="35.1060500">
<ele>153.649994</ele>
<time>2022-10-12T11:57:26.408Z</time>
</trkpt>
<trkpt lat="32.6257600" lon="35.1060900">
<ele>150.470001</ele>
<time>2022-10-12T11:57:26.408Z</time>
</trkpt>
<trkpt lat="32.6256200" lon="35.1060900">
<ele>147.830002</ele>
<time>2022-10-12T11:57:26.408Z</time>
</trkpt>
<trkpt lat="32.6254300" lon="35.1061500">
<ele>147.289993</ele>
<time>2022-10-12T11:57:26.408Z</time>
</trkpt>
<trkpt lat="32.6251600" lon="35.1061100">
<ele>145.139999</ele>
<time>2022-10-12T11:57:26.408Z</time>
</trkpt>
<trkpt lat="32.6249500" lon="35.1060900">
<ele>144.059998</ele>
<time>2022-10-12T11:57:26.408Z</time>
</trkpt>
<trkpt lat="32.6247600" lon="35.1060700">
<ele>144.639999</ele>
<time>2022-10-12T11:57:26.408Z</time>
</trkpt>
<trkpt lat="32.6248200" lon="35.1059400">
<ele>141.449997</ele>
<time>2022-10-12T11:57:26.408Z</time>
</trkpt>
<trkpt lat="32.6253500" lon="35.1055400">
<ele>140.779999</ele>
<time>2022-10-12T11:57:26.408Z</time>
</trkpt>
<trkpt lat="32.6254800" lon="35.1053400">
<ele>140.860001</ele>
<time>2022-10-12T11:57:26.408Z</time>
</trkpt>
<trkpt lat="32.6256400" lon="35.1051900">
<ele>139.639999</ele>
<time>2022-10-12T11:57:26.408Z</time>
</trkpt>
<trkpt lat="32.6256400" lon="35.1051100">
<ele>136.860001</ele>
<time>2022-10-12T11:57:26.408Z</time>
</trkpt>
<trkpt lat="32.6256300" lon="35.1051200">
<ele>137.020004</ele>
<time>2022-10-12T11:57:26.408Z</time>
</trkpt>
<trkpt lat="32.6255900" lon="35.1051400">
<ele>137.100006</ele>
<time>2022-10-12T11:57:26.408Z</time>
</trkpt>
<trkpt lat="32.6254400" lon="35.1050400">
<ele>131.389999</ele>
<time>2022-10-12T11:57:26.408Z</time>
</trkpt>
<trkpt lat="32.6252800" lon="35.1050900">
<ele>131.639999</ele>
<time>2022-10-12T11:57:26.408Z</time>
</trkpt>
<trkpt lat="32.6248700" lon="35.1051700">
<ele>135.089996</ele>
<time>2022-10-12T11:57:26.408Z</time>
</trkpt>
<trkpt lat="32.6248600" lon="35.1049600">
<ele>133.770004</ele>
<time>2022-10-12T11:57:26.408Z</time>
</trkpt>
<trkpt lat="32.6249000" lon="35.1048400">
<ele>132.039993</ele>
<time>2022-10-12T11:57:26.408Z</time>
</trkpt>
<trkpt lat="32.6249700" lon="35.1045300">
<ele>126.669998</ele>
<time>2022-10-12T11:57:26.409Z</time>
</trkpt>
<trkpt lat="32.6250600" lon="35.1042400">
<ele>122.510002</ele>
<time>2022-10-12T11:57:26.409Z</time>
</trkpt>
<trkpt lat="32.6250900" lon="35.1039700">
<ele>121.150002</ele>
<time>2022-10-12T11:57:26.409Z</time>
</trkpt>
<trkpt lat="32.6250700" lon="35.1038300">
<ele>120.430000</ele>
<time>2022-10-12T11:57:26.409Z</time>
</trkpt>
<trkpt lat="32.6250700" lon="35.1038300">
<ele>120.430000</ele>
<time>2022-10-12T11:57:26.409Z</time>
</trkpt>
<trkpt lat="32.6250700" lon="35.1038300">
<ele>120.430000</ele>
<time>2022-10-12T11:57:26.409Z</time>
</trkpt>
<trkpt lat="32.6249900" lon="35.1038100">
<ele>121.250000</ele>
<time>2022-10-12T11:57:26.409Z</time>
</trkpt>
<trkpt lat="32.6248500" lon="35.1037900">
<ele>120.360001</ele>
<time>2022-10-12T11:57:26.409Z</time>
</trkpt>
<trkpt lat="32.6245300" lon="35.1036200">
<ele>121.509995</ele>
<time>2022-10-12T11:57:26.409Z</time>
</trkpt>
<trkpt lat="32.6242600" lon="35.1035500">
<ele>127.139999</ele>
<time>2022-10-12T11:57:26.409Z</time>
</trkpt>
<trkpt lat="32.6241800" lon="35.1035400">
<ele>128.669998</ele>
<time>2022-10-12T11:57:26.409Z</time>
</trkpt>
<trkpt lat="32.6239600" lon="35.1034300">
<ele>132.639999</ele>
<time>2022-10-12T11:57:26.409Z</time>
</trkpt>
<trkpt lat="32.6236700" lon="35.1033300">
<ele>131.820007</ele>
<time>2022-10-12T11:57:26.409Z</time>
</trkpt>
<trkpt lat="32.6234900" lon="35.1031900">
<ele>130.919998</ele>
<time>2022-10-12T11:57:26.409Z</time>
</trkpt>
<trkpt lat="32.6233900" lon="35.1030500">
<ele>130.880005</ele>
<time>2022-10-12T11:57:26.409Z</time>
</trkpt>
<trkpt lat="32.6231700" lon="35.1028300">
<ele>132.820007</ele>
<time>2022-10-12T11:57:26.409Z</time>
</trkpt>
<trkpt lat="32.6231400" lon="35.1027800">
<ele>133.180008</ele>
<time>2022-10-12T11:57:26.409Z</time>
</trkpt>
<trkpt lat="32.6231300" lon="35.1025800">
<ele>133.919998</ele>
<time>2022-10-12T11:57:26.409Z</time>
</trkpt>
<trkpt lat="32.6231800" lon="35.1025100">
<ele>134.419998</ele>
<time>2022-10-12T11:57:26.409Z</time>
</trkpt>
<trkpt lat="32.6232700" lon="35.1024800">
<ele>134.619995</ele>
<time>2022-10-12T11:57:26.409Z</time>
</trkpt>
<trkpt lat="32.6234100" lon="35.1025300">
<ele>133.729996</ele>
<time>2022-10-12T11:57:26.409Z</time>
</trkpt>
<trkpt lat="32.6234900" lon="35.1025400">
<ele>132.319992</ele>
<time>2022-10-12T11:57:26.409Z</time>
</trkpt>
<trkpt lat="32.6234900" lon="35.1025400">
<ele>132.319992</ele>
<time>2022-10-12T11:57:26.409Z</time>
</trkpt>
<trkpt lat="32.6236900" lon="35.1026100">
<ele>128.699997</ele>
<time>2022-10-12T11:57:26.409Z</time>
</trkpt>
<trkpt lat="32.6239500" lon="35.1026500">
<ele>124.209999</ele>
<time>2022-10-12T11:57:26.409Z</time>
</trkpt>
<trkpt lat="32.6241900" lon="35.1025800">
<ele>128.619995</ele>
<time>2022-10-12T11:57:26.409Z</time>
</trkpt>
<trkpt lat="32.6244500" lon="35.1024900">
<ele>129.779999</ele>
<time>2022-10-12T11:57:26.409Z</time>
</trkpt>
<trkpt lat="32.6246700" lon="35.1024400">
<ele>119.480003</ele>
<time>2022-10-12T11:57:26.409Z</time>
</trkpt>
<trkpt lat="32.6249300" lon="35.1024000">
<ele>113.269997</ele>
<time>2022-10-12T11:57:26.409Z</time>
</trkpt>
<trkpt lat="32.6251500" lon="35.1023700">
<ele>110.839996</ele>
<time>2022-10-12T11:57:26.409Z</time>
</trkpt>
<trkpt lat="32.6255200" lon="35.1023700">
<ele>115.660004</ele>
<time>2022-10-12T11:57:26.409Z</time>
</trkpt>
<trkpt lat="32.6256400" lon="35.1023700">
<ele>116.879997</ele>
<time>2022-10-12T11:57:26.410Z</time>
</trkpt>
<trkpt lat="32.6261100" lon="35.1023300">
<ele>119.379997</ele>
<time>2022-10-12T11:57:26.410Z</time>
</trkpt>
<trkpt lat="32.6263200" lon="35.1023100">
<ele>114.639999</ele>
<time>2022-10-12T11:57:26.410Z</time>
</trkpt>
<trkpt lat="32.6268300" lon="35.1022700">
<ele>112.650002</ele>
<time>2022-10-12T11:57:26.410Z</time>
</trkpt>
<trkpt lat="32.6272500" lon="35.1022800">
<ele>113.180000</ele>
<time>2022-10-12T11:57:26.410Z</time>
</trkpt>
<trkpt lat="32.6274200" lon="35.1022900">
<ele>114.250000</ele>
<time>2022-10-12T11:57:26.410Z</time>
</trkpt>
<trkpt lat="32.6277700" lon="35.1022500">
<ele>116.070007</ele>
<time>2022-10-12T11:57:26.410Z</time>
</trkpt>
<trkpt lat="32.6280300" lon="35.1021700">
<ele>118.190002</ele>
<time>2022-10-12T11:57:26.410Z</time>
</trkpt>
<trkpt lat="32.6282200" lon="35.1020800">
<ele>119.019997</ele>
<time>2022-10-12T11:57:26.410Z</time>
</trkpt>
<trkpt lat="32.6284300" lon="35.1020200">
<ele>118.250000</ele>
<time>2022-10-12T11:57:26.410Z</time>
</trkpt>
<trkpt lat="32.6286200" lon="35.1019600">
<ele>116.150002</ele>
<time>2022-10-12T11:57:26.410Z</time>
</trkpt>
<trkpt lat="32.6288800" lon="35.1018700">
<ele>121.669998</ele>
<time>2022-10-12T11:57:26.410Z</time>
</trkpt>
<trkpt lat="32.6291500" lon="35.1018300">
<ele>124.500000</ele>
<time>2022-10-12T11:57:26.410Z</time>
</trkpt>
<trkpt lat="32.6294400" lon="35.1018200">
<ele>124.590004</ele>
<time>2022-10-12T11:57:26.410Z</time>
</trkpt>
<trkpt lat="32.6296700" lon="35.1017700">
<ele>124.610001</ele>
<time>2022-10-12T11:57:26.410Z</time>
</trkpt>
<trkpt lat="32.6299400" lon="35.1017700">
<ele>123.390007</ele>
<time>2022-10-12T11:57:26.410Z</time>
</trkpt>
<trkpt lat="32.6302600" lon="35.1018100">
<ele>127.159996</ele>
<time>2022-10-12T11:57:26.410Z</time>
</trkpt>
<trkpt lat="32.6306700" lon="35.1019400">
<ele>118.570000</ele>
<time>2022-10-12T11:57:26.410Z</time>
</trkpt>
<trkpt lat="32.6310300" lon="35.1019900">
<ele>114.690002</ele>
<time>2022-10-12T11:57:26.410Z</time>
</trkpt>
<trkpt lat="32.6313400" lon="35.1018000">
<ele>115.070000</ele>
<time>2022-10-12T11:57:26.410Z</time>
</trkpt>
<trkpt lat="32.6316700" lon="35.1015800">
<ele>118.670006</ele>
<time>2022-10-12T11:57:26.410Z</time>
</trkpt>
<trkpt lat="32.6319000" lon="35.1014100">
<ele>120.940002</ele>
<time>2022-10-12T11:57:26.410Z</time>
</trkpt>
<trkpt lat="32.6321000" lon="35.1013800">
<ele>126.459999</ele>
<time>2022-10-12T11:57:26.410Z</time>
</trkpt>
<trkpt lat="32.6322700" lon="35.1013800">
<ele>130.840012</ele>
<time>2022-10-12T11:57:26.410Z</time>
</trkpt>
<trkpt lat="32.6324600" lon="35.1014200">
<ele>130.940002</ele>
<time>2022-10-12T11:57:26.410Z</time>
</trkpt>
<trkpt lat="32.6325900" lon="35.1014500">
<ele>132.509995</ele>
<time>2022-10-12T11:57:26.410Z</time>
</trkpt>
<trkpt lat="32.6326100" lon="35.1014500">
<ele>132.850006</ele>
<time>2022-10-12T11:57:26.410Z</time>
</trkpt>
<trkpt lat="32.6326500" lon="35.1014700">
<ele>133.630005</ele>
<time>2022-10-12T11:57:26.411Z</time>
</trkpt>
<trkpt lat="32.6327400" lon="35.1014800">
<ele>135.309998</ele>
<time>2022-10-12T11:57:26.411Z</time>
</trkpt>
<trkpt lat="32.6328000" lon="35.1014900">
<ele>136.199997</ele>
<time>2022-10-12T11:57:26.411Z</time>
</trkpt>
<trkpt lat="32.6330400" lon="35.1015300">
<ele>137.949997</ele>
<time>2022-10-12T11:57:26.411Z</time>
</trkpt>
<trkpt lat="32.6331800" lon="35.1015500">
<ele>138.720001</ele>
<time>2022-10-12T11:57:26.411Z</time>
</trkpt>
<trkpt lat="32.6333000" lon="35.1015900">
<ele>140.320007</ele>
<time>2022-10-12T11:57:26.411Z</time>
</trkpt>
<trkpt lat="32.6334700" lon="35.1016200">
<ele>142.229996</ele>
<time>2022-10-12T11:57:26.411Z</time>
</trkpt>
<trkpt lat="32.6336200" lon="35.1016500">
<ele>143.830002</ele>
<time>2022-10-12T11:57:26.411Z</time>
</trkpt>
<trkpt lat="32.6338000" lon="35.1016800">
<ele>148.009995</ele>
<time>2022-10-12T11:57:26.411Z</time>
</trkpt>
<trkpt lat="32.6339400" lon="35.1017000">
<ele>148.169998</ele>
<time>2022-10-12T11:57:26.411Z</time>
</trkpt>
<trkpt lat="32.6340900" lon="35.1017400">
<ele>143.529999</ele>
<time>2022-10-12T11:57:26.411Z</time>
</trkpt>
<trkpt lat="32.6342200" lon="35.1017600">
<ele>142.740005</ele>
<time>2022-10-12T11:57:26.411Z</time>
</trkpt>
<trkpt lat="32.6343800" lon="35.1017900">
<ele>146.910004</ele>
<time>2022-10-12T11:57:26.411Z</time>
</trkpt>
<trkpt lat="32.6344900" lon="35.1018100">
<ele>148.070007</ele>
<time>2022-10-12T11:57:26.411Z</time>
</trkpt>
<trkpt lat="32.6345500" lon="35.1018300">
<ele>147.429993</ele>
<time>2022-10-12T11:57:26.411Z</time>
</trkpt>
<trkpt lat="32.6346900" lon="35.1018500">
<ele>145.990005</ele>
<time>2022-10-12T11:57:26.411Z</time>
</trkpt>
<trkpt lat="32.6348200" lon="35.1018800">
<ele>143.350006</ele>
<time>2022-10-12T11:57:26.411Z</time>
</trkpt>
<trkpt lat="32.6349700" lon="35.1019100">
<ele>139.899994</ele>
<time>2022-10-12T11:57:26.411Z</time>
</trkpt>
<trkpt lat="32.6350000" lon="35.1019200">
<ele>139.179993</ele>
<time>2022-10-12T11:57:26.411Z</time>
</trkpt>
<trkpt lat="32.6351400" lon="35.1019300">
<ele>137.589996</ele>
<time>2022-10-12T11:57:26.411Z</time>
</trkpt>
<trkpt lat="32.6351700" lon="35.1020100">
<ele>138.669998</ele>
<time>2022-10-12T11:57:26.411Z</time>
</trkpt>
<trkpt lat="32.6351600" lon="35.1020500">
<ele>139.710007</ele>
<time>2022-10-12T11:57:26.411Z</time>
</trkpt>
<trkpt lat="32.6350500" lon="35.1022100">
<ele>144.979996</ele>
<time>2022-10-12T11:57:26.411Z</time>
</trkpt>
<trkpt lat="32.6349100" lon="35.1023600">
<ele>148.690002</ele>
<time>2022-10-12T11:57:26.411Z</time>
</trkpt>
<trkpt lat="32.6347600" lon="35.1025300">
<ele>146.919998</ele>
<time>2022-10-12T11:57:26.412Z</time>
</trkpt>
<trkpt lat="32.6346200" lon="35.1027200">
<ele>147.309998</ele>
<time>2022-10-12T11:57:26.412Z</time>
</trkpt>
<trkpt lat="32.6344900" lon="35.1029100">
<ele>149.000000</ele>
<time>2022-10-12T11:57:26.412Z</time>
</trkpt>
<trkpt lat="32.6343400" lon="35.1030900">
<ele>150.619995</ele>
<time>2022-10-12T11:57:26.412Z</time>
</trkpt>
<trkpt lat="32.6341300" lon="35.1033100">
<ele>148.259995</ele>
<time>2022-10-12T11:57:26.412Z</time>
</trkpt>
<trkpt lat="32.6338600" lon="35.1035700">
<ele>145.820007</ele>
<time>2022-10-12T11:57:26.412Z</time>
</trkpt>
<trkpt lat="32.6335900" lon="35.1039000">
<ele>145.919998</ele>
<time>2022-10-12T11:57:26.412Z</time>
</trkpt>
<trkpt lat="32.6335300" lon="35.1041800">
<ele>147.160004</ele>
<time>2022-10-12T11:57:26.412Z</time>
</trkpt>
<trkpt lat="32.6335200" lon="35.1042400">
<ele>147.270004</ele>
<time>2022-10-12T11:57:26.412Z</time>
</trkpt>
<trkpt lat="32.6335100" lon="35.1042400">
<ele>147.220001</ele>
<time>2022-10-12T11:57:26.412Z</time>
</trkpt>
<trkpt lat="32.6335300" lon="35.1043200">
<ele>147.539993</ele>
<time>2022-10-12T11:57:26.412Z</time>
</trkpt>
<trkpt lat="32.6336100" lon="35.1044300">
<ele>147.059998</ele>
<time>2022-10-12T11:57:26.412Z</time>
</trkpt>
<trkpt lat="32.6336900" lon="35.1044600">
<ele>149.699997</ele>
<time>2022-10-12T11:57:26.412Z</time>
</trkpt>
<trkpt lat="32.6338700" lon="35.1044700">
<ele>154.440002</ele>
<time>2022-10-12T11:57:26.412Z</time>
</trkpt>
<trkpt lat="32.6340700" lon="35.1046200">
<ele>154.680008</ele>
<time>2022-10-12T11:57:26.412Z</time>
</trkpt>
<trkpt lat="32.6341300" lon="35.1047900">
<ele>152.250000</ele>
<time>2022-10-12T11:57:26.412Z</time>
</trkpt>
<trkpt lat="32.6342900" lon="35.1051700">
<ele>146.660004</ele>
<time>2022-10-12T11:57:26.412Z</time>
</trkpt>
<trkpt lat="32.6343500" lon="35.1053100">
<ele>145.210007</ele>
<time>2022-10-12T11:57:26.412Z</time>
</trkpt>
<trkpt lat="32.6344000" lon="35.1054200">
<ele>144.639999</ele>
<time>2022-10-12T11:57:26.412Z</time>
</trkpt>
<trkpt lat="32.6344600" lon="35.1056200">
<ele>142.150009</ele>
<time>2022-10-12T11:57:26.412Z</time>
</trkpt>
<trkpt lat="32.6345900" lon="35.1059700">
<ele>141.250000</ele>
<time>2022-10-12T11:57:26.412Z</time>
</trkpt>
<trkpt lat="32.6346300" lon="35.1061000">
<ele>141.639999</ele>
<time>2022-10-12T11:57:26.412Z</time>
</trkpt>
<trkpt lat="32.6346700" lon="35.1062000">
<ele>142.960007</ele>
<time>2022-10-12T11:57:26.412Z</time>
</trkpt>
<trkpt lat="32.6348700" lon="35.1065000">
<ele>144.400009</ele>
<time>2022-10-12T11:57:26.412Z</time>
</trkpt>
<trkpt lat="32.6349900" lon="35.1067000">
<ele>142.600006</ele>
<time>2022-10-12T11:57:26.412Z</time>
</trkpt>
<trkpt lat="32.6353300" lon="35.1071400">
<ele>127.900002</ele>
<time>2022-10-12T11:57:26.412Z</time>
</trkpt>
<trkpt lat="32.6353700" lon="35.1071900">
<ele>126.239998</ele>
<time>2022-10-12T11:57:26.412Z</time>
</trkpt>
<trkpt lat="32.6354700" lon="35.1073800">
<ele>123.169998</ele>
<time>2022-10-12T11:57:26.412Z</time>
</trkpt>
<trkpt lat="32.6356400" lon="35.1076400">
<ele>119.580002</ele>
<time>2022-10-12T11:57:26.412Z</time>
</trkpt>
<trkpt lat="32.6357000" lon="35.1078100">
<ele>118.900002</ele>
<time>2022-10-12T11:57:26.412Z</time>
</trkpt>
<trkpt lat="32.6357500" lon="35.1083000">
<ele>117.480003</ele>
<time>2022-10-12T11:57:26.412Z</time>
</trkpt>
<trkpt lat="32.6357400" lon="35.1084600">
<ele>116.169998</ele>
<time>2022-10-12T11:57:26.412Z</time>
</trkpt>
<trkpt lat="32.6357900" lon="35.1088500">
<ele>112.769997</ele>
<time>2022-10-12T11:57:26.412Z</time>
</trkpt>
<trkpt lat="32.6358200" lon="35.1089300">
<ele>110.620003</ele>
<time>2022-10-12T11:57:26.413Z</time>
</trkpt>
<trkpt lat="32.6360000" lon="35.1089600">
<ele>103.770004</ele>
<time>2022-10-12T11:57:26.413Z</time>
</trkpt>
<trkpt lat="32.6362000" lon="35.1089800">
<ele>97.970001</ele>
<time>2022-10-12T11:57:26.413Z</time>
</trkpt>
<trkpt lat="32.6365100" lon="35.1092400">
<ele>93.680000</ele>
<time>2022-10-12T11:57:26.413Z</time>
</trkpt>
<trkpt lat="32.6366500" lon="35.1092800">
<ele>93.050003</ele>
<time>2022-10-12T11:57:26.413Z</time>
</trkpt>
<trkpt lat="32.6369000" lon="35.1092600">
<ele>97.759995</ele>
<time>2022-10-12T11:57:26.413Z</time>
</trkpt>
<trkpt lat="32.6370000" lon="35.1091600">
<ele>100.370003</ele>
<time>2022-10-12T11:57:26.413Z</time>
</trkpt>
<trkpt lat="32.6370100" lon="35.1091500">
<ele>100.560005</ele>
<time>2022-10-12T11:57:26.413Z</time>
</trkpt>
</trkseg>
</trk>
</gpx>
